[[{"header":{"parameterUnit":"m.s-1","parameterCategory":1,"la1":31.0,"la2":29.5877,"lo1":-88.7671,"lo2":-86.6584,"dy":0.0162,"dx":0.0185,"nx":115,"ny":88,"refTime":"2023-08-03T00:00:00:Z","depth":0,"parameterNumber":2,"parameterNumberName":"U-component_of_WINDS"},"data":[0.0,0.0,0.0,0.0,0.0,0.0,0.0,0.0,0.0,0.0,0.0,0.0,0.0,0.0,0.0,0.0,0.0,0.0,0.0,0.0,0.0,0.0,0.0,0.0,0.0,0.0,0.0,0.0,0.0,0.0,0.0,0.0,0.0,0.0,0.0,0.0,0.0,0.0,0.0,0.0,0.0,0.0,0.0,0.0,0.0,0.0,0.0,0.0,0.0,0.0,0.0,0.0,0.0,0.0,0.0,0.0,0.0,0.0,0.0,0.0,0.0,0.0,0.0,0.0,0.0,0.0,0.0,0.0,0.0,0.0,0.0,0.0,0.0,0.0,0.0,0.0,0.0,0.0,0.0,0.0,0.0,0.0,0.0,0.0,0.0,0.0,0.0,0.0,0.0,0.0,0.0,0.0,0.0,0.0,0.0,0.0,0.0,0.0,0.0,0.0,0.0,0.0,0.0,0.0,0.0,0.0,0.0,0.0,0.0,0.0,0.0,0.0,0.0,0.0,0.0,0.0,0.0,0.0,0.0,0.0,0.0,0.0,0.0,0.0,0.0,0.0,0.0,0.0,0.0,0.0,0.0,0.0,0.0,0.0,0.0,0.0,0.0,0.0,0.0,0.0,0.0,0.0,0.0,0.0,0.0,0.0,0.0,0.0,0.0,0.0,0.0,0.0,0.0,0.0,0.0,0.0,0.0,0.0,0.0,0.0,0.0,0.0,0.0,0.0,0.0,0.0,0.0,0.0,0.0,0.0,0.0,0.0,0.0,0.0,0.0,0.0,0.0,0.0,0.0,0.0,0.0,0.0,0.0,0.0,0.0,0.0,0.0,0.0,0.0,0.0,0.0,0.0,0.0,0.0,0.0,0.0,0.0,0.0,0.0,0.0,0.0,0.0,0.0,0.0,0.0,0.0,0.0,0.0,0.0,0.0,0.0,0.0,0.0,0.0,0.0,0.0,0.0,0.0,0.0,0.0,0.0,0.0,0.0,0.0,0.0,0.0,0.0,0.0,0.0,0.0,0.0,0.0,0.0,0.0,0.0,0.0,0.0,0.0,0.0,0.0,0.0,0.0,0.0,0.0,0.0,0.0,0.0,0.0,0.0,0.0,0.0,0.0,0.0,0.0,0.0,0.0,0.0,0.0,0.0,0.0,0.0,0.0,0.0,0.0,0.0,0.0,0.0,0.0,0.0,0.0,0.0,0.0,0.0,0.0,0.0,0.0,0.0,0.0,0.0,0.0,0.0,0.0,0.0,0.0,0.0,0.0,0.0,0.0,0.0,0.0,0.0,0.0,0.0,0.0,0.0,0.0,0.0,0.0,0.0,0.0,0.0,0.0,0.0,0.0,0.0,0.0,0.0,0.0,0.0,0.0,0.0,0.0,0.0,0.0,0.0,0.0,0.0,0.0,0.0,0.0,0.0,0.0,0.0,0.0,0.0,0.0,0.0,0.0,0.0,0.0,0.0,0.0,0.0,0.0,0.0,0.0,0.0,0.0,0.0,0.0,0.0,0.0,0.0,0.0,0.0,0.0,0.0,0.0,0.0,0.0,0.0,0.0,0.0,0.0,0.0,0.0,0.0,0.0,0.0,0.0,0.0,0.0,0.0,0.0,0.0,0.0,0.0,0.0,0.0,0.0,0.0,0.0,0.0,0.0,0.0,0.0,0.0,0.0,0.0,0.0,0.0,0.0,0.0,0.0,0.0,0.0,0.0,0.0,0.0,0.0,0.0,0.0,0.0,0.0,0.0,0.0,0.0,0.0,0.0,0.0,0.0,0.0,0.0,0.0,0.0,0.0,0.0,0.0,0.0,0.0,0.0,0.0,0.0,0.0,0.0,0.0,0.0,0.0,0.0,0.0,0.0,0.0,0.0,0.0,0.0,0.0,0.0,0.0,0.0,0.0,0.0,0.0,0.0,0.0,0.0,0.0,0.0,0.0,0.0,0.0,0.0,0.0,0.0,0.0,0.0,0.0,0.0,0.0,0.0,0.0,0.0,0.0,0.0,0.0,0.0,0.0,0.0,0.0,0.0,0.0,0.0,0.0,0.0,0.0,0.0,0.0,0.0,0.0,0.0,0.0,0.0,0.0,0.0,0.0,0.0,0.0,0.0,0.0,0.0,0.0,0.0,0.0,0.0,0.0,0.0,0.0,0.0,0.0,0.0,0.0,0.0,0.0,0.0,0.0,0.0,0.0,0.0,0.0,0.0,0.0,0.0,0.0,0.0,0.0,0.0,0.0,0.0,0.0,0.0,0.0,0.0,0.0,0.0,0.0,0.0,0.0,0.0,0.0,0.0,0.0,0.0,0.0,0.0,0.0,0.0,0.0,0.0,0.0,0.0,0.0,0.0,0.0,0.0,0.0,0.0,0.0,0.0,0.0,0.0,0.0,0.0,0.0,0.0,0.0,0.0,0.0,0.0,0.0,0.0,0.0,0.0,0.0,0.0,0.0,0.0,0.0,0.0,0.0,0.0,0.0,0.0,0.0,0.0,0.0,0.0,0.0,0.0,0.0,0.0,0.0,0.0,0.0,0.0,0.0,0.0,0.0,0.0,0.0,0.0,0.0,0.0,0.0,0.0,0.0,0.0,0.0,0.0,0.0,0.0,0.0,0.0,0.0,0.0,0.0,0.0,0.0,0.0,0.0,0.0,0.0,0.0,0.0,0.0,0.0,0.0,0.0,0.0,0.0,0.0,0.0,0.0,0.0,0.0,0.0,0.0,0.0,0.0,0.0,0.0,0.0,0.0,0.0,0.0,0.0,0.0,0.0,0.0,0.0,0.0,0.0,0.0,0.0,0.0,0.0,0.0,0.0,0.0,0.0,0.0,0.0,0.0,0.0,0.0,0.0,0.0,0.0,0.0,0.0,0.0,0.0,0.0,0.0,0.0,0.0,0.0,0.0,0.0,0.0,0.0,0.0,0.0,0.0,0.0,0.0,0.0,0.0,0.0,0.0,0.0,0.0,0.0,0.0,0.0,0.0,0.0,0.0,0.0,0.0,0.0,0.0,0.0,0.0,0.0,0.0,0.0,0.0,0.0,0.0,0.0,0.0,0.0,0.0,0.0,0.0,0.0,0.0,0.0,0.0,0.0,0.0,0.0,0.0,0.0,0.0,0.0,0.0,0.0,0.0,0.0,0.0,0.0,0.0,0.0,0.0,0.0,0.0,0.0,0.0,0.0,0.0,0.0,0.0,0.0,0.0,0.0,0.0,0.0,0.0,0.0,0.0,0.0,0.0,0.0,0.0,0.0,0.0,0.0,0.0,0.0,0.0,0.0,0.0,0.0,0.0,0.0,0.0,0.0,0.0,0.0,0.0,0.0,0.0,0.0,0.0,0.0,0.0,0.0,0.0,0.0,0.0,0.0,0.0,0.0,0.0,0.0,0.0,0.0,0.0,0.0,0.0,0.0,0.0,0.0,0.0,0.0,0.0,0.0,0.0,0.0,0.0,0.0,0.0,0.0,0.0,0.0,0.0,0.0,0.0,0.0,0.0,0.0,0.0,0.0,0.0,0.0,0.0,0.0,0.0,0.0,0.0,0.0,0.0,0.0,0.0,0.0,0.0,0.0,0.0,0.0,0.0,0.0,0.0,0.0,0.0,0.0,0.0,0.0,0.0,0.0,0.0,0.0,0.0,0.0,0.0,0.0,0.0,0.0,0.0,0.0,0.0,0.0,0.0,0.0,0.0,0.0,0.0,0.0,0.0,0.0,0.0,0.0,0.0,0.0,0.0,0.0,0.0,0.0,0.0,0.0,0.0,0.0,0.0,0.0,0.0,0.0,0.0,0.0,0.0,0.0,0.0,0.0,0.0,0.0,0.0,0.0,0.0,0.0,0.0,0.0,0.0,0.0,0.0,0.0,0.0,0.0,0.0,0.0,0.0,0.0,0.0,0.0,0.0,0.0,0.0,0.0,0.0,0.0,0.0,0.0,0.0,0.0,0.0,0.0,0.0,0.0,0.0,0.0,0.0,0.0,0.0,0.0,0.0,0.0,0.0,0.0,0.0,0.0,0.0,0.0,0.0,0.0,0.0,0.0,0.0,0.0,0.0,0.0,0.0,0.0,0.0,0.0,0.0,0.0,0.0,0.0,0.0,0.0,0.0,0.0,0.0,0.0,0.0,0.0,0.0,0.0,0.0,0.0,0.0,0.0,0.0,0.0,0.0,0.0,0.0,0.0,0.0,0.0,0.0,0.0,0.0,0.0,0.0,0.0,0.0,0.0,0.0,0.0,0.0,0.0,0.0,0.0,0.0,0.0,0.0,0.0,0.0,1.441,0.0,0.0,0.0,0.0,0.0,0.0,0.0,0.0,0.0,0.0,0.0,0.0,0.0,0.0,0.0,0.0,0.0,0.0,0.0,0.0,0.0,0.0,0.0,0.0,0.0,0.0,0.0,0.0,0.0,0.0,0.0,0.0,0.0,0.0,0.0,0.0,0.0,0.0,0.0,0.0,0.0,0.0,0.0,0.0,0.0,0.0,0.0,0.0,0.0,0.0,0.0,0.0,0.0,0.0,0.0,0.0,0.0,0.0,0.0,0.0,0.0,0.0,0.0,0.0,0.0,0.0,0.0,0.0,0.0,0.0,0.0,0.0,0.0,0.0,0.0,0.0,0.0,0.0,0.0,0.0,0.0,0.0,0.0,0.0,0.0,0.0,0.0,0.0,0.0,0.0,0.0,0.0,0.0,0.0,0.0,0.0,0.0,0.0,0.0,0.0,0.0,0.0,0.0,0.0,0.0,0.0,0.0,0.0,0.0,0.0,1.6201,1.5732,1.5937,1.5489,1.4231,0.0,0.0,0.0,0.0,0.0,0.0,0.0,0.0,0.0,0.0,0.0,0.0,0.0,0.0,0.0,0.0,0.0,0.0,0.0,0.0,0.0,0.0,0.0,0.0,0.0,0.0,0.0,0.0,0.0,0.0,0.0,0.0,0.0,0.0,0.0,0.0,0.0,0.0,0.0,0.0,0.0,0.0,0.0,0.0,0.0,0.0,0.0,0.0,0.0,0.0,0.0,0.0,0.0,0.0,0.0,0.0,0.0,0.0,0.0,0.0,0.0,0.0,0.0,0.0,0.0,0.0,0.0,0.0,0.0,0.0,0.0,0.0,0.0,0.0,0.0,0.0,0.0,0.0,0.0,0.0,0.0,0.0,0.0,0.0,0.0,0.0,0.0,0.0,0.0,0.0,0.0,0.0,0.0,0.0,0.0,0.0,0.0,0.0,0.0,0.0,0.0,0.0,0.0,0.0,0.0,0.0,0.0,0.0,0.0,0.0,0.0,0.0,1.5699,1.5153,1.3796,0.0,0.0,0.0,0.0,0.0,0.0,0.0,0.0,0.0,0.0,0.0,0.0,0.0,0.0,0.0,0.0,0.0,0.0,0.0,0.0,0.0,0.0,0.0,0.0,0.0,0.0,0.0,0.0,0.0,0.0,0.0,0.0,0.0,0.0,0.0,0.0,0.0,0.0,0.0,0.0,0.0,0.0,0.0,0.0,0.0,0.0,0.0,0.0,0.0,0.0,0.0,0.0,0.0,0.0,0.0,0.0,0.0,0.0,0.0,0.0,0.0,0.0,0.0,0.0,0.0,0.0,0.0,0.0,0.0,0.0,0.0,0.0,0.0,0.0,0.0,0.0,0.0,0.0,0.0,0.0,0.0,0.0,0.0,0.0,0.0,0.0,0.0,0.0,0.0,0.0,0.0,0.0,0.0,0.0,0.0,0.0,0.0,0.0,0.0,0.0,0.0,0.0,0.0,0.0,0.0,0.0,0.0,0.0,0.0,0.0,1.5684,1.5996,1.5223,0.0,1.2447,0.0,0.0,0.0,0.0,0.0,0.0,0.0,0.0,0.0,0.0,0.0,0.0,0.0,0.0,0.0,0.0,0.0,0.0,0.0,0.0,0.0,0.0,0.0,0.0,0.0,0.0,0.0,0.0,0.0,0.0,0.0,0.0,0.0,0.0,0.0,0.0,0.0,0.0,0.0,0.0,0.0,0.0,0.0,0.0,0.0,0.0,0.0,0.0,0.0,0.0,0.0,0.0,0.0,0.0,0.0,0.0,0.0,0.0,0.0,0.0,0.0,0.0,0.0,0.0,0.0,0.0,0.0,0.0,0.0,0.0,0.0,0.0,0.0,0.0,0.0,0.0,0.0,0.0,0.0,0.0,0.0,0.0,0.0,0.0,0.0,0.0,0.0,0.0,0.0,0.0,0.0,0.0,0.0,0.0,0.0,0.0,0.0,0.0,0.0,0.0,0.0,0.0,0.0,0.0,0.0,0.0,0.0,0.0,0.0,0.0,1.5615,1.6055,1.4737,1.343,0.0,0.0,0.0,0.0,0.0,0.0,0.0,0.0,0.0,0.0,0.0,0.0,0.0,0.0,0.0,0.0,0.0,0.0,0.0,0.0,0.0,0.0,0.0,0.0,0.0,0.0,0.0,0.0,0.0,0.0,0.0,0.0,0.0,0.0,0.0,0.0,0.0,0.0,0.0,0.0,0.0,0.0,0.0,0.0,0.0,0.0,0.0,0.0,0.0,0.0,0.0,0.0,0.0,0.0,0.0,0.0,0.0,0.0,0.0,0.0,0.0,0.0,0.0,0.0,0.0,0.0,0.0,0.0,0.0,0.0,0.0,0.0,0.0,0.0,0.0,0.0,0.0,0.0,0.0,0.0,0.0,0.0,0.0,0.0,0.0,0.0,0.0,0.0,0.0,0.0,0.0,0.0,0.0,0.0,0.0,0.0,0.0,0.0,0.0,0.0,0.0,0.0,0.0,0.0,0.0,0.0,0.0,0.0,0.0,0.0,1.5654,1.5612,1.5495,1.399,1.2617,1.16,0.0,0.0,0.0,0.0,0.0,0.0,0.0,0.0,0.0,0.0,0.0,0.0,0.0,0.0,0.0,0.0,0.0,0.0,0.0,0.0,0.0,0.0,0.0,0.0,0.0,0.0,0.0,0.0,0.0,0.0,0.0,0.0,0.0,0.0,0.0,0.0,0.0,0.0,0.0,0.0,0.0,0.0,0.0,0.0,0.0,0.0,0.0,0.0,0.0,0.0,0.0,0.0,0.0,0.0,0.0,0.0,0.0,0.0,0.0,0.0,0.0,0.0,0.0,0.0,0.0,0.0,0.0,0.0,0.0,0.0,0.0,0.0,0.0,0.0,0.0,0.0,0.0,0.0,0.0,0.0,0.0,0.0,0.0,0.0,0.0,0.0,0.0,0.0,0.0,0.0,0.0,0.0,0.0,0.0,0.0,0.0,0.0,0.0,0.0,0.0,0.0,0.0,0.0,0.0,0.0,0.0,0.0,0.0,1.6582,1.623,1.5461,1.4195,1.2688,1.1629,0.0,0.0,0.0,0.0,0.0,0.0,0.0,0.0,0.0,0.0,0.0,0.0,0.0,0.0,0.0,0.0,0.0,0.0,0.0,0.0,0.0,0.0,0.0,0.0,0.0,0.0,0.0,0.0,0.0,0.0,0.0,0.0,0.0,0.0,0.0,0.0,0.0,0.0,0.0,0.0,0.0,0.0,0.0,0.0,0.0,0.0,0.0,0.0,0.0,0.0,0.0,0.0,0.0,0.0,0.0,0.0,0.0,0.0,0.0,0.0,0.0,0.0,0.0,0.0,0.0,0.0,0.0,0.0,0.0,0.0,0.0,0.0,0.0,0.0,0.0,0.0,0.0,0.0,0.0,0.0,0.0,0.0,0.0,0.0,0.0,0.0,0.0,0.0,0.0,0.0,0.0,0.0,0.0,0.0,0.0,0.0,0.0,0.0,0.0,0.0,0.0,0.0,0.0,0.0,0.0,0.0,0.0,0.0,0.0,1.5478,1.4906,1.4114,1.305,1.2274,1.1582,0.0,0.0,0.0,0.0,0.0,0.0,0.0,0.0,0.0,0.0,0.0,0.0,0.0,0.0,0.0,0.0,0.0,0.0,0.0,0.0,0.0,0.0,0.0,0.0,0.0,0.0,0.0,0.0,0.0,0.0,0.0,0.0,0.0,0.0,0.0,0.0,0.0,0.0,0.0,0.0,0.0,0.0,0.0,0.0,0.0,0.0,0.0,0.0,0.0,0.0,0.0,0.0,0.0,0.0,0.0,0.0,0.0,0.0,0.0,0.0,0.0,0.0,0.0,0.0,0.0,0.0,0.0,0.0,0.0,0.0,0.0,0.0,0.0,0.0,0.0,0.0,0.0,0.0,0.0,0.0,0.0,0.0,0.0,0.0,0.0,0.0,0.0,0.0,0.0,0.0,0.0,0.0,0.0,0.0,0.0,0.0,0.0,0.0,0.0,0.0,0.0,0.0,0.0,0.0,0.0,0.0,0.0,0.0,0.0,1.4592,0.0,1.2999,1.2289,1.1677,1.1076,0.0,0.0,0.0,0.0,0.0,0.0,0.0,0.0,0.0,0.0,0.0,0.0,0.0,0.0,0.0,0.0,0.0,0.0,0.0,0.0,0.0,0.0,0.0,0.0,0.0,0.0,0.0,0.0,0.0,0.0,0.0,0.0,0.0,0.0,0.0,0.0,0.0,0.0,0.0,0.0,0.0,0.0,0.0,0.0,0.0,0.0,0.0,0.0,0.0,0.0,0.0,0.0,0.0,0.0,0.0,0.0,0.0,0.0,0.0,0.0,0.0,0.0,0.0,0.0,0.0,0.0,0.0,0.0,0.0,0.0,0.0,0.0,0.0,0.0,0.0,0.0,0.0,0.0,0.0,0.0,0.0,0.0,0.0,0.0,0.0,0.0,0.0,0.0,0.0,0.0,0.0,0.0,0.0,0.0,0.0,0.0,0.0,0.0,0.0,0.0,0.0,0.0,0.0,0.0,0.0,0.0,0.0,0.0,1.4573,1.4159,1.2978,1.2264,1.1935,1.0798,1.0127,0.0,0.0,0.0,0.0,0.0,0.0,0.0,0.0,0.0,0.0,0.0,0.0,0.0,0.0,0.0,0.0,0.0,0.0,0.0,0.0,0.0,0.0,0.0,0.0,0.0,0.0,0.0,0.0,0.0,0.0,0.0,0.0,0.0,0.0,0.0,0.0,0.0,0.0,0.0,0.0,0.0,0.0,0.0,0.0,0.0,0.0,0.0,0.0,0.0,0.0,0.0,0.0,0.0,0.0,0.0,0.0,0.0,0.0,0.0,0.0,0.0,0.0,0.0,0.0,0.0,0.0,0.0,0.0,0.0,0.0,0.0,0.0,0.0,0.0,0.0,0.0,0.0,0.0,0.0,0.0,0.0,0.0,0.0,0.0,0.0,0.0,0.0,0.0,0.0,0.0,0.0,0.0,0.0,0.0,0.0,0.0,0.0,0.0,0.0,0.0,0.0,0.0,0.0,0.0,0.0,0.0,0.0,0.0,0.0,1.2346,1.1592,1.1204,1.1099,1.0467,1.0207,0.0,0.0,0.0,0.0,0.0,0.0,0.0,0.0,0.0,0.0,0.0,0.0,0.0,0.0,0.0,0.0,0.0,0.0,0.0,0.0,0.0,0.0,0.0,0.0,0.0,0.0,0.0,0.0,0.0,0.0,0.0,0.0,0.0,0.0,0.0,0.0,0.0,0.0,0.0,0.0,0.0,0.0,0.0,0.0,0.0,0.0,0.0,0.0,0.0,0.0,0.0,0.0,0.0,0.0,0.0,0.0,0.0,0.0,0.0,0.0,0.0,0.0,0.0,0.0,0.0,0.0,0.0,0.0,0.0,0.0,0.0,0.0,0.0,0.0,0.0,0.0,0.0,0.0,0.0,0.0,0.0,0.0,0.0,0.0,0.0,0.0,0.0,0.0,0.0,0.0,0.0,0.0,0.0,0.0,0.0,0.0,0.0,0.0,0.0,0.0,0.0,0.0,0.0,0.0,0.0,0.0,0.0,0.0,0.0,1.1135,1.0828,1.0585,1.0464,1.0253,1.0207,1.0381,0.0,0.0,0.0,0.0,0.0,0.0,0.0,0.0,0.0,0.0,0.0,0.0,0.0,0.0,0.0,0.0,0.0,0.0,0.0,0.0,0.0,0.0,0.0,0.0,0.0,0.0,0.0,0.0,0.0,0.0,0.0,0.0,0.0,0.0,0.0,0.0,0.0,0.0,0.0,0.0,0.0,0.0,0.0,0.0,0.0,0.0,0.0,0.0,0.0,0.0,0.0,0.0,0.0,0.0,0.0,0.0,0.0,0.0,0.0,0.0,0.0,0.0,0.0,0.0,0.0,0.0,0.0,0.0,0.0,0.0,0.0,0.0,0.0,0.0,0.0,0.0,0.0,0.0,0.0,0.0,0.0,0.0,0.0,0.0,0.0,0.0,0.0,0.0,0.0,0.0,0.0,0.0,0.0,0.0,0.0,0.0,0.0,0.0,0.0,0.0,0.0,0.0,0.0,0.0,0.0,0.0,0.0,0.0,1.0655,1.0662,1.0517,1.0147,1.014,1.014,0.0,0.0,0.0,0.0,0.0,0.0,0.0,0.0,0.0,0.0,0.0,0.0,0.0,0.0,0.0,0.0,0.0,0.0,0.0,0.0,0.0,0.0,0.0,0.0,0.0,0.0,0.0,0.0,0.0,0.0,0.0,0.0,0.0,0.0,0.0,0.0,0.0,0.0,0.0,0.0,0.0,0.0,0.0,0.0,0.0,0.0,0.0,0.0,0.0,0.0,0.0,0.0,0.0,0.0,0.0,0.0,0.0,0.0,0.0,0.0,0.0,0.0,0.0,0.0,0.0,0.0,0.0,0.0,0.0,0.0,0.0,0.0,0.0,0.0,0.0,0.0,0.0,0.0,0.0,0.0,0.0,0.0,0.0,0.0,0.0,0.0,0.0,0.0,0.0,0.0,0.0,0.0,0.0,0.0,0.0,0.0,0.0,0.0,0.0,0.0,0.0,0.0,0.0,0.0,0.0,0.0,0.0,0.0,0.0,1.0989,1.1122,1.0962,1.0468,1.0441,1.0448,0.0,0.0,0.0,0.0,0.0,0.0,0.0,0.0,0.0,0.0,0.0,0.0,0.0,0.0,0.0,0.0,0.0,0.0,0.0,0.0,0.0,0.0,0.0,0.0,0.0,0.0,0.0,0.0,0.0,0.0,0.0,0.0,0.0,0.0,0.0,0.0,0.0,0.0,0.0,0.0,0.0,0.0,0.0,0.0,0.0,0.0,0.0,0.0,0.0,0.0,0.0,0.0,0.0,0.0,0.0,0.0,0.0,0.0,0.0,0.0,0.0,0.0,0.0,0.0,0.0,0.0,0.0,0.0,0.0,0.0,0.0,0.0,0.0,0.0,0.0,0.0,0.0,0.0,0.0,0.0,0.0,0.0,0.0,0.0,0.0,0.0,0.0,0.0,0.0,0.0,0.0,0.0,0.0,0.0,0.0,0.0,0.0,0.0,0.0,0.0,0.0,0.0,0.0,0.0,0.0,0.0,0.0,0.0,1.1201,1.1632,1.1492,1.1323,1.1182,1.0989,1.0808,0.0,0.0,0.0,0.0,0.0,0.0,0.0,0.0,0.0,0.0,0.0,0.0,0.0,0.0,0.0,0.0,0.0,0.0,0.0,0.0,0.0,0.0,0.0,0.0,0.0,0.0,0.0,0.0,0.0,0.0,0.0,0.0,0.0,0.0,0.0,0.0,0.0,0.0,0.0,0.0,0.0,0.0,0.0,0.0,0.0,0.0,0.0,0.0,0.0,0.0,0.0,0.0,0.0,0.0,0.0,0.0,0.0,0.0,0.0,0.0,0.0,0.0,0.0,0.0,0.0,0.0,0.0,0.0,0.0,0.0,0.0,0.0,0.0,0.0,0.0,0.0,0.0,0.0,0.0,0.0,0.0,0.0,0.0,0.0,0.0,0.0,0.0,0.0,0.0,0.0,0.0,0.0,0.0,0.0,0.0,0.0,0.0,0.0,0.0,0.0,0.0,0.0,0.0,0.0,0.0,0.0,0.0,0.0,1.1477,1.2253,1.1813,1.1623,1.185,1.155,1.1136,0.0,0.0,0.0,0.0,0.0,0.0,0.0,0.0,0.0,0.0,0.0,0.0,0.0,0.0,0.0,0.0,0.0,0.0,0.0,0.0,0.0,0.0,0.0,0.0,0.0,0.0,0.0,0.0,0.0,0.0,0.0,0.0,0.0,0.0,0.0,0.0,0.0,0.0,0.0,0.0,0.0,0.0,0.0,0.0,0.0,0.0,0.0,0.0,0.0,0.0,0.0,0.0,0.0,0.0,0.0,0.0,0.0,0.0,0.0,0.0,0.0,0.0,0.0,0.0,0.0,0.0,0.0,0.0,0.0,0.0,0.0,0.0,0.0,0.0,0.0,0.0,0.0,0.0,0.0,0.0,0.0,0.0,0.0,0.0,0.0,0.0,0.0,0.0,0.0,0.0,0.0,0.0,0.0,0.0,0.0,0.0,0.0,0.0,0.0,0.0,0.0,0.0,0.0,0.0,0.0,0.0,0.0,0.0,1.1634,1.2255,1.2161,1.2037,1.187,1.1356,1.1029,0.0,0.0,0.0,0.0,0.0,0.0,0.0,0.0,0.0,0.0,0.0,0.0,0.0,0.0,0.0,0.0,0.0,0.0,0.0,0.0,0.0,0.0,0.0,0.0,0.0,0.0,0.0,0.0,0.0,0.0,0.0,0.0,0.0,0.0,0.0,0.0,0.0,0.0,0.0,0.0,0.0,0.0,0.0,0.0,0.0,0.0,0.0,0.0,1.1042,0.0,0.0,0.0,0.0,0.0,0.0,0.0,0.0,0.0,0.0,0.0,0.0,0.0,0.0,0.0,0.0,0.0,0.0,0.0,0.0,0.0,0.0,0.0,0.0,0.0,0.0,0.0,0.0,0.0,0.0,0.0,0.0,0.0,0.0,0.0,0.0,0.0,0.0,0.0,0.0,0.0,0.0,0.0,0.0,0.0,0.0,0.0,0.0,0.0,0.0,0.0,0.0,0.0,0.0,0.0,0.0,0.0,0.0,0.0,1.1653,1.2267,1.231,1.2225,1.2058,1.1503,1.1129,0.0,0.0,0.0,0.0,0.0,0.0,0.0,0.0,0.0,0.0,0.0,0.0,0.0,0.0,0.0,0.0,0.0,0.0,0.0,0.0,0.0,0.0,0.0,0.0,0.0,0.0,0.0,0.0,0.0,0.0,0.0,0.0,0.0,0.0,0.0,0.0,0.0,0.0,0.0,0.0,0.0,0.0,0.0,0.0,0.0,0.0,0.0,0.0,0.0,0.0,0.0,0.0,0.0,0.0,0.0,0.0,0.0,0.0,0.0,0.0,0.0,0.0,0.0,0.0,0.0,0.0,0.0,0.0,0.0,0.0,0.0,0.0,0.0,0.0,0.0,0.0,0.0,0.0,0.0,0.0,0.0,0.0,0.0,0.0,0.0,0.0,0.0,0.0,0.0,0.0,0.0,0.0,0.0,0.0,0.0,0.0,0.0,0.0,0.0,0.0,0.0,0.0,0.0,0.0,0.0,0.0,0.0,1.1136,1.1632,1.225,1.2264,1.2305,1.2298,1.173,1.1309,1.1069,0.0,0.0,0.0,0.0,0.0,0.0,0.0,0.0,0.0,0.0,0.0,0.0,0.0,0.0,0.0,0.0,0.0,0.0,0.0,0.0,0.0,0.0,0.0,0.0,0.0,0.0,0.0,0.0,0.0,0.0,0.0,0.0,0.0,0.0,0.0,0.0,0.0,0.0,1.1062,1.1309,0.0,0.0,0.0,0.0,0.0,0.0,0.0,0.0,0.9243,0.0,0.0,0.0,0.0,0.0,0.0,0.0,0.0,0.0,0.0,0.0,0.0,0.0,0.0,0.0,0.0,0.0,0.0,0.0,0.0,0.0,0.0,0.0,0.0,0.0,0.0,0.0,0.0,0.0,0.0,0.0,0.0,0.0,0.0,0.0,0.0,0.0,0.0,0.0,0.0,0.0,0.0,0.0,0.0,0.0,0.0,0.0,0.0,0.0,0.0,0.0,0.0,0.0,0.0,0.0,0.0,1.1269,1.1136,1.145,1.2291,1.2278,1.2305,1.2291,1.1737,1.1403,1.1336,0.0,0.0,0.0,0.0,0.0,0.0,0.0,0.0,0.0,0.0,0.0,0.0,0.0,0.0,0.0,0.0,0.0,0.0,0.0,0.0,0.0,0.0,0.0,0.0,0.0,0.0,0.0,0.0,0.0,0.0,0.0,0.0,0.0,0.0,0.0,0.0,0.0,0.0,0.0,1.161,1.1817,0.0,0.0,0.0,0.0,0.0,0.0,0.0,0.0,0.8575,0.0,0.0,0.0,0.0,0.0,0.0,0.0,0.0,0.0,0.0,0.0,0.0,0.0,0.0,0.0,0.0,0.0,0.0,0.0,0.0,0.0,0.0,0.0,0.0,0.0,0.0,0.0,0.0,0.0,0.0,0.0,0.0,0.0,0.0,0.0,0.0,0.0,0.0,0.0,0.0,0.0,0.0,0.0,0.0,0.0,0.0,0.0,0.0,0.0,0.0,0.0,0.0,0.0,0.0,0.0,1.0052,1.0836,1.157,1.2278,1.2305,1.2305,1.2291,1.173,1.143,0.0,0.0,0.0,0.0,0.0,0.0,0.0,0.0,0.0,0.0,0.0,0.0,0.0,0.0,0.0,0.0,0.0,0.0,0.0,0.0,0.0,0.0,0.0,0.0,0.0,0.0,0.0,0.0,0.0,0.0,0.0,0.0,0.0,0.0,0.0,0.0,0.0,0.0,0.0,0.0,1.1683,1.187,1.187,0.0,0.0,0.0,0.0,0.0,0.0,0.8324,0.753,0.0,0.0,0.0,0.0,0.0,0.0,0.0,0.0,0.0,0.0,0.0,0.0,0.0,0.0,0.0,0.0,0.0,0.0,0.0,0.0,0.0,0.0,0.0,0.0,0.0,0.0,0.0,0.0,0.0,0.0,0.0,0.0,0.0,0.0,0.0,0.0,0.0,0.0,0.0,0.0,0.0,0.0,0.0,0.0,0.0,0.0,0.0,0.0,0.0,0.0,0.0,0.0,0.0,0.0,0.0,0.9064,1.0546,1.165,1.2271,1.2305,1.2271,1.2211,1.1697,1.1396,0.0,0.0,0.0,0.0,0.0,0.0,0.0,0.0,0.0,0.0,0.0,0.0,0.0,0.0,0.0,0.0,0.0,0.0,0.0,0.0,0.0,0.0,0.0,0.0,0.0,0.0,0.0,0.0,0.0,0.0,0.0,0.0,0.0,0.0,0.0,0.0,0.0,0.0,0.0,0.0,0.0,1.1931,1.1877,1.2071,0.0,0.0,0.0,0.0,0.8628,0.7618,0.0,0.0,0.0,0.0,0.0,0.0,0.0,0.0,0.0,0.0,0.0,0.0,0.0,0.0,0.0,0.0,0.0,0.0,0.0,0.0,0.0,0.0,0.0,0.0,0.0,0.0,0.0,0.0,0.0,0.0,0.0,0.0,0.0,0.0,0.0,0.0,0.0,0.0,0.0,0.0,0.0,0.0,0.0,0.0,0.0,0.0,0.0,0.0,0.0,0.0,0.0,0.0,0.0,0.0,0.0,0.0,0.9611,1.0581,1.145,1.2251,1.2305,1.2178,1.1924,1.1597,1.1303,0.0,0.0,0.0,0.0,0.0,0.0,0.0,0.0,0.0,0.0,0.0,0.0,0.0,0.0,0.0,0.0,0.0,0.0,0.0,0.0,0.0,0.0,0.0,0.0,0.0,0.0,0.0,0.0,0.0,0.0,0.0,0.0,0.0,0.0,0.0,0.0,0.0,0.0,0.0,0.0,0.0,1.2158,1.1904,1.1968,1.1703,0.0,0.0,0.8581,0.7966,0.7042,0.0,0.0,0.0,0.0,0.0,0.0,0.0,0.0,0.0,0.0,0.0,0.0,0.0,0.0,0.0,0.0,0.0,0.0,0.0,0.0,0.0,0.0,0.0,0.0,0.0,0.0,0.0,0.0,0.0,0.0,0.0,0.0,0.0,0.0,0.0,0.0,0.0,0.0,0.0,0.0,0.0,0.0,0.0,0.0,0.0,0.0,0.0,0.0,0.0,0.0,0.0,0.0,0.0,0.0,0.0,0.9577,0.9762,1.0712,1.1583,1.2271,1.2305,1.2164,1.1877,1.1583,1.1289,0.0,0.0,0.0,0.0,0.0,0.0,0.0,0.0,0.0,0.0,0.0,0.0,0.0,0.0,0.0,0.0,0.0,0.0,0.0,0.0,0.0,0.0,0.0,0.0,0.0,0.0,0.0,0.0,0.0,0.0,0.0,0.0,0.0,0.0,0.0,0.0,0.0,0.0,0.0,0.0,0.0,0.0,1.1284,1.0777,0.0,0.0,0.0,0.8277,0.7833,0.0,0.0,0.0,0.0,0.0,0.0,0.0,0.0,0.0,0.0,0.0,0.0,0.0,0.0,0.0,0.0,0.0,0.0,0.0,0.0,0.0,0.0,0.0,0.0,0.0,0.0,0.0,0.0,0.0,0.0,0.0,0.0,0.0,0.0,0.0,0.0,0.0,0.0,0.0,0.0,0.0,0.0,0.0,0.0,0.0,0.0,0.0,0.0,0.0,0.0,0.0,0.0,0.0,0.0,0.0,0.0,0.0,0.9699,1.0829,1.1717,1.2271,1.2231,1.2051,1.1764,1.147,0.0,0.0,0.0,0.0,0.0,0.0,0.0,0.0,0.0,0.0,0.0,0.0,0.0,0.0,0.0,0.0,0.0,0.0,0.0,0.0,0.0,0.0,0.0,0.0,0.0,0.0,0.0,1.0982,0.0,0.0,0.0,0.0,0.0,0.0,0.0,0.0,0.0,0.0,0.0,0.0,0.0,0.0,1.0518,1.0477,0.9824,0.9321,0.0,0.0,0.8099,0.7545,0.6809,0.6264,0.0,0.0,0.0,0.0,0.0,0.0,0.0,0.0,0.0,0.0,0.0,0.0,0.0,0.0,0.0,0.0,0.0,0.0,0.0,0.0,0.0,0.0,0.0,0.0,0.0,0.0,0.0,0.0,0.0,0.0,0.0,0.0,0.0,0.0,0.0,0.0,0.0,0.0,0.0,0.0,0.0,0.0,0.0,0.0,0.0,0.0,0.0,0.0,0.0,0.0,0.0,0.0,0.0,0.0,0.0,0.9762,1.0829,1.171,1.2271,1.2037,1.1757,1.147,1.1169,1.0889,0.0,0.0,0.0,0.0,0.0,0.0,0.0,0.0,0.0,0.0,0.0,0.0,0.0,0.0,0.0,0.0,0.0,0.0,0.0,0.0,0.0,0.0,0.0,0.0,0.0,0.0,0.0,0.0,0.0,0.0,0.0,0.0,0.0,0.0,0.0,0.0,0.0,0.0,0.0,0.0,0.0,1.0661,0.974,0.9511,0.9192,0.0,0.0,0.7882,0.6773,0.6407,0.6325,0.6302,0.0,0.0,0.0,0.0,0.0,0.0,0.0,0.0,0.0,0.0,0.0,0.0,0.0,0.0,0.0,0.0,0.0,0.0,0.0,0.0,0.0,0.0,0.0,0.0,0.0,0.0,0.0,0.0,0.0,0.0,0.0,0.0,0.0,0.0,0.0,0.0,0.0,0.0,0.0,0.0,0.0,0.0,0.0,0.0,0.0,0.0,0.0,0.0,0.0,0.0,0.0,0.0,0.0,0.9719,0.9728,1.084,1.1477,1.1762,1.1839,1.1643,1.1176,1.1049,1.0855,0.0,0.0,0.0,0.0,0.0,0.0,0.0,0.0,0.0,0.0,0.0,0.0,0.0,0.0,0.0,0.0,0.0,0.0,0.0,0.0,0.0,0.0,0.0,0.0,0.0,0.0,0.0,0.0,1.187,1.1984,1.2271,0.0,0.0,0.0,0.0,0.0,0.0,0.0,0.0,0.0,0.0,0.8892,0.8742,0.8137,0.0,0.0,0.7237,0.7112,0.6448,0.6301,0.6324,0.6295,0.6383,0.0,0.0,0.0,0.0,0.0,0.0,0.0,0.0,0.0,0.0,0.0,0.0,0.0,0.0,0.0,0.0,0.0,0.0,0.0,0.0,0.0,0.0,0.0,0.0,0.0,0.0,0.0,0.0,0.0,0.0,0.0,0.0,0.0,0.0,0.0,0.0,0.0,0.0,0.0,0.0,0.0,0.0,0.0,0.0,0.0,0.0,0.0,0.0,0.0,0.0,0.0,0.0,0.9788,0.973,1.0908,1.1543,1.1664,1.1746,1.1536,1.1136,1.0955,1.0768,0.0,0.0,0.0,0.0,0.0,0.0,0.0,0.0,0.0,0.0,0.0,0.0,0.0,0.0,0.0,0.0,0.0,0.0,0.0,0.0,0.0,0.0,0.0,0.0,0.0,0.0,0.0,0.0,1.1997,1.2078,1.2285,0.0,0.0,0.0,0.0,0.0,0.0,0.0,0.0,0.0,0.0,0.778,0.7734,0.7191,0.6664,0.6556,0.659,0.6559,0.6356,0.6364,0.6391,0.6291,0.0,0.0,0.0,0.0,0.0,0.0,0.0,0.0,0.0,0.0,0.0,0.0,0.0,0.0,0.0,0.0,0.0,0.0,0.0,0.0,0.0,0.0,0.0,0.0,0.0,0.0,0.0,0.0,0.0,0.0,1.0618,0.0,0.0,0.0,0.0,0.0,0.0,0.0,0.0,0.0,0.0,0.0,0.0,0.0,0.0,0.0,0.0,0.0,0.0,0.0,0.0,0.0,0.0,0.9981,0.9736,1.1164,1.1991,1.2258,1.173,1.1361,1.139,1.0862,1.0631,1.0618,0.0,0.0,0.0,0.0,0.0,0.0,0.0,0.0,0.0,0.0,0.0,0.0,0.0,0.0,0.0,0.0,0.0,0.0,0.0,0.0,0.0,0.0,0.0,0.0,0.0,0.0,1.2278,1.2291,1.2291,0.0,0.0,0.0,0.0,0.0,0.0,0.0,0.0,0.0,0.0,0.885,0.7946,0.6892,0.6705,0.6709,0.6698,0.6495,0.6398,0.6471,0.6593,0.6597,0.0,0.0,0.0,0.0,0.0,0.0,0.0,0.0,0.0,0.0,0.0,0.0,0.0,0.0,0.0,0.0,0.0,0.0,0.0,0.0,0.0,0.0,0.0,0.0,0.0,0.0,0.0,1.0618,1.0618,0.0,0.0,0.0,0.0,0.0,0.0,0.0,0.0,0.0,0.0,0.0,1.0835,1.0712,0.0,0.0,0.0,0.0,0.0,0.0,0.0,0.0,0.0,0.0,0.0,0.0,1.0553,1.0818,1.151,1.2074,1.2247,1.1713,1.1336,1.1142,1.0762,1.0618,1.0618,0.0,0.0,0.0,0.0,0.0,0.0,0.0,0.0,0.0,0.0,0.0,0.0,0.0,0.0,0.0,0.0,0.0,0.0,0.0,0.0,0.0,0.0,0.0,0.0,0.0,1.2305,0.0,0.0,0.0,0.0,0.0,0.0,0.0,0.0,0.0,0.0,0.0,0.8932,0.8799,0.7946,0.7282,0.6983,0.6993,0.6959,0.0,0.0,0.0,0.0,0.0,0.0,0.0,0.0,0.0,0.0,0.0,0.0,0.0,0.0,0.7021,0.6624,0.6549,0.6552,0.6556,0.0,0.0,0.0,0.0,0.0,0.0,0.0,0.0,0.0,0.0,0.0,0.0,0.0,0.0,1.0568,0.0,1.0187,0.0,0.0,0.0,0.0,0.0,0.0,0.0,0.0,1.0708,1.0868,1.1129,1.0955,1.0962,0.0,1.0949,1.0862,0.0,0.0,0.0,0.0,0.0,0.0,0.0,0.0,1.1029,1.1405,1.1793,1.215,1.2237,1.1861,1.1443,1.1156,1.0862,1.0708,1.0708,1.0765,1.0916,0.0,0.0,0.0,0.0,0.0,0.0,0.0,0.0,0.0,0.0,0.0,0.0,0.0,0.0,0.0,0.0,0.0,0.0,0.0,0.0,0.0,0.0,0.0,1.2305,0.0,0.0,0.0,0.0,0.0,0.0,0.0,0.0,0.0,0.9296,0.8715,0.8172,0.8412,0.7565,0.7017,0.7058,0.0,0.0,0.0,0.0,0.0,0.0,0.0,0.6738,0.6861,0.6814,0.68,0.6844,0.6936,0.7034,0.7037,0.0,0.0,0.6922,0.6898,0.6936,0.7022,0.6892,0.6885,0.6983,0.6922,0.6881,0.0,0.0,0.0,0.0,0.0,0.0,0.0,0.0,1.0594,1.0478,0.0,0.9443,0.0,0.0,0.0,0.0,0.0,1.0601,0.0,0.0,1.1009,1.1162,1.143,1.1423,1.1423,1.1436,1.1423,1.141,1.139,1.0862,0.0,0.0,0.0,0.0,0.0,0.0,1.1438,1.1488,1.2025,1.2302,1.2368,1.2018,1.1737,1.1423,1.1149,1.1009,1.1015,1.106,1.1204,1.1436,1.1614,0.0,0.0,0.0,0.0,0.0,0.0,0.0,0.0,0.0,0.0,0.0,0.0,0.0,0.0,0.0,0.0,0.0,0.0,0.0,0.0,1.2311,0.0,0.0,0.0,0.0,0.0,0.0,0.0,0.0,0.0,0.0,0.9142,0.879,0.8361,0.8369,0.0,0.0,0.0,0.0,0.6953,0.6959,0.6777,0.6827,0.7044,0.7365,0.75,0.718,0.0,0.0,0.718,0.7153,0.7163,0.7166,0.7302,0.7339,0.7189,0.727,0.7458,0.7549,0.7348,0.717,0.7078,0.7187,0.718,0.7442,0.0,0.0,0.0,0.0,0.8765,0.8944,0.8995,0.9219,0.9124,0.8819,0.8695,0.0,0.0,0.0,0.0,0.0,0.0,1.1223,1.1303,1.1296,1.1463,1.173,1.1523,1.153,1.173,1.1523,1.143,1.1416,1.1263,1.1223,1.1296,0.0,0.0,0.0,0.0,1.2032,1.2065,1.2626,1.2993,1.3158,1.2492,1.1937,1.1436,1.1349,1.1296,1.1303,1.1272,1.1429,1.1744,1.2022,0.0,0.0,0.0,0.0,0.0,0.0,0.0,0.0,0.0,0.0,0.0,0.0,0.0,0.0,0.0,0.0,0.0,0.0,0.0,1.2305,1.2498,1.2303,0.0,0.0,0.0,0.0,0.0,0.0,0.0,0.0,0.0,0.7699,0.7525,0.739,0.0,0.0,0.7292,0.7251,0.7336,0.7407,0.7407,0.7315,0.0,0.7461,0.77,0.777,0.7458,0.7506,0.7519,0.7475,0.7468,0.7502,0.7594,0.7655,0.7733,0.7761,0.7607,0.7643,0.7826,0.7768,0.7617,0.7621,0.7537,0.754,0.7114,0.7718,0.7646,0.768,0.7782,0.8165,0.8358,0.843,0.8727,0.8613,0.8263,0.8029,0.7955,0.8031,0.8811,0.0,0.0,0.0,1.1112,1.1213,1.0779,1.0692,1.0998,1.131,1.1537,1.177,1.1991,1.2131,1.2131,1.2131,1.2131,1.2124,0.0,0.0,1.2051,1.2452,1.2579,1.2576,1.2936,1.3273,1.3467,1.2755,1.2078,1.1623,1.1603,1.1603,1.1603,1.1715,1.1867,1.2044,1.2204,1.2305,0.0,0.0,0.0,0.0,0.0,0.0,0.0,0.0,0.0,0.0,0.0,1.2305,0.0,0.0,0.0,0.0,1.2405,1.2525,1.2645,1.2826,0.0,0.0,0.0,0.0,0.0,0.0,0.0,0.9294,0.8037,0.7228,0.7221,0.721,0.7227,0.7312,0.7404,0.7461,0.7461,0.0,0.7621,0.7675,0.7682,0.7607,0.7763,0.7893,0.7963,0.7756,0.7773,0.7773,0.7773,0.7773,0.7804,0.7879,0.7902,0.7929,0.8024,0.7892,0.7773,0.7976,0.7942,0.7899,0.7902,0.7821,0.7831,0.6853,0.6927,0.6781,0.6701,0.6669,0.7629,0.812,0.8336,0.9063,0.889,0.804,0.7626,0.7331,0.7401,0.9317,0.0,1.1611,1.0971,1.0831,1.0973,1.0042,0.9756,1.0029,1.118,1.168,1.168,1.275,1.3253,1.3267,1.322,1.3227,1.3227,1.2685,1.2405,1.2438,1.2966,1.3167,1.3008,1.3194,1.3394,1.3532,1.2812,1.2238,1.1944,1.1917,1.1904,1.1911,1.2158,1.2305,1.2305,1.2305,1.2305,1.2305,0.0,0.0,0.0,0.0,0.0,0.0,0.0,0.0,0.0,0.0,0.0,0.0,0.0,0.0,0.0,1.2625,0.0,1.318,1.3227,0.0,0.0,0.0,1.3333,1.3434,1.0982,0.971,1.0549,0.0,0.0,0.7587,0.7619,0.7621,0.7631,0.7628,0.7617,0.7617,0.7631,0.7678,0.7811,0.7731,0.7778,0.7888,0.8007,0.8001,0.8007,0.8038,0.8021,0.8021,0.8024,0.8035,0.8028,0.8038,0.8038,0.8038,0.8024,0.8038,0.8024,0.8028,0.8035,0.8028,0.7945,0.7959,0.7924,0.8804,0.8849,0.7994,0.6915,0.8288,0.8713,0.8716,0.9902,0.9775,0.8671,0.8324,0.7648,0.6936,0.8129,0.8843,0.9161,1.0638,1.1333,1.1391,1.197,1.233,1.2399,1.2856,1.3121,1.3121,1.3371,1.3661,1.3848,1.3427,1.3327,1.352,1.3394,1.3247,1.3327,1.3474,1.3566,1.3791,1.3874,1.3897,1.392,1.3312,1.2852,1.2614,1.2318,1.2198,1.2204,1.2271,1.2305,1.2305,1.2305,1.2305,1.2305,1.2305,0.0,0.0,0.0,0.0,0.0,0.0,0.0,0.0,0.0,1.2498,1.2959,0.0,1.2995,0.0,1.306,1.3133,1.3206,1.3407,0.0,0.0,1.3413,1.3531,1.1925,1.2668,1.2826,1.1382,1.0269,0.9537,0.9292,0.8398,0.7804,0.7913,0.7834,0.776,0.7763,0.7865,0.7946,0.7974,0.7878,0.7898,0.7932,0.8038,0.8038,0.8038,0.8038,0.8038,0.8038,0.8038,0.8038,0.8038,0.8038,0.8038,0.8038,0.8038,0.8038,0.8038,0.8038,0.8038,0.8038,0.7959,0.7975,0.8881,0.9427,0.8881,0.8085,0.732,0.8637,0.8893,0.829,0.8999,0.8882,0.8096,0.777,0.7871,0.8292,0.9034,0.9908,1.0845,1.1815,1.2263,1.2257,1.2348,1.2433,1.2523,1.3107,1.3446,1.3439,1.3966,1.4315,1.4449,1.4148,1.4075,1.4229,1.4229,1.4229,1.4229,1.4102,1.4115,1.4275,1.4148,1.4129,1.4111,1.354,1.3126,1.2953,1.2532,1.2371,1.2492,1.2371,1.2305,1.2305,1.2305,1.2305,1.2305,1.2305,1.2365,0.0,0.0,0.0,0.0,0.0,0.0,0.0,0.0,0.0,0.0,0.0,1.3526,1.338,1.3407,1.3514,1.3768,1.3941,1.3822,1.3328,1.3623,1.3349,1.2086,1.215,1.187,1.0634,0.9703,0.9139,0.8944,0.8351,0.7943,0.8028,0.7963,0.7913,0.7919,0.7991,0.8038,0.8038,0.8038,0.8038,0.8038,0.8038,0.8038,0.8038,0.8038,0.8038,0.8038,0.8038,0.8038,0.8038,0.8038,0.8038,0.8038,0.8038,0.8038,0.8038,0.8038,0.8038,0.8038,0.7959,0.7975,0.9503,0.9686,0.8585,0.8215,0.8494,0.9597,0.9291,0.8063,0.8453,0.8366,0.7822,0.7647,0.8635,1.0339,1.0773,1.1911,1.3703,1.3373,1.3217,1.3126,1.2381,1.1914,1.2011,1.2968,1.3453,1.3538,1.4559,1.5044,1.507,1.4997,1.4983,1.501,1.4977,1.4983,1.501,1.4756,1.4522,1.4469,1.4322,1.4153,1.4049,1.3534,1.3247,1.3193,1.2619,1.2425,1.2741,1.2438,1.2305,1.2305,1.2305,1.2318,1.2351,1.2365,1.2567,0.0,1.2882,0.0,0.0,0.0,0.0,0.0,0.0,0.0,0.0,1.378,1.3992,1.3741,1.3754,1.3981,1.4529,1.4576,1.4676,1.493,1.3979,1.3344,1.3247,1.1431,1.0063,0.9877,0.8989,0.8319,0.8236,0.8055,0.8038,0.8038,0.8035,0.8024,0.8035,0.8035,0.8038,0.8038,0.8038,0.8038,0.8038,0.8038,0.8038,0.8038,0.8038,0.8038,0.8038,0.8038,0.8038,0.8038,0.8038,0.8038,0.8038,0.8038,0.8038,0.8038,0.8038,0.8038,0.8041,0.7955,0.7969,0.9502,1.1433,1.1144,1.1717,1.2767,1.2958,1.2078,1.074,1.2963,1.3187,1.2037,1.1812,1.1589,1.1266,1.1307,1.1599,1.2057,1.2802,1.3217,1.3217,1.3941,1.4308,1.4327,1.4826,1.4937,1.5029,1.5219,1.5438,1.5651,1.519,1.509,1.5304,1.5077,1.5084,1.5304,0.0,0.0,0.0,1.4612,1.4562,1.415,1.3738,1.3447,1.3206,1.2619,0.0,1.2378,1.2331,1.2305,1.2305,1.2305,0.0,0.0,0.0,0.0,0.0,0.0,0.0,0.0,0.0,0.0,0.0,1.3955,1.3921,1.3921,1.4018,1.4146,1.4322,1.4355,1.4489,1.4843,1.4877,1.4903,1.4963,1.4988,1.493,1.4937,1.4652,1.4212,1.3155,1.1849,1.0715,0.9649,0.8707,0.8038,0.8137,0.8038,0.8038,0.8041,0.8038,0.8038,0.8038,0.8038,0.8038,0.8038,0.8038,0.8038,0.8038,0.8038,0.8038,0.8038,0.8038,0.8038,0.8038,0.8038,0.8038,0.8038,0.8038,0.8038,0.8038,0.8038,0.8038,0.8038,0.8041,0.7952,1.1063,0.0,1.2139,1.2334,0.0,1.3584,1.344,1.2648,1.3348,1.3242,1.2554,1.2774,1.2707,1.2455,1.2553,1.2928,1.3493,1.4192,1.444,1.4539,1.5107,1.5391,1.5398,1.5545,1.5611,1.5605,1.5611,1.5691,1.5805,1.5531,1.5471,1.5605,1.5458,1.5464,1.5605,1.5611,1.5365,1.4962,1.4933,1.4823,1.4529,1.4088,1.3721,1.342,1.2839,0.0,0.0,0.0,0.0,0.0,0.0,0.0,0.0,1.3409,0.0,1.3407,1.3427,1.3621,1.4035,1.4075,1.4208,1.4496,1.4522,1.4556,1.4514,1.4529,1.4583,1.4723,1.4736,1.4856,1.5144,1.5177,1.5237,1.5378,1.4946,1.4458,1.3797,1.3222,1.2425,1.1253,1.0382,0.9899,0.9998,0.9509,0.9312,0.9801,0.9895,0.9604,0.9019,0.8432,0.8038,0.8038,0.8038,0.8038,0.8038,0.8038,0.8038,0.8038,0.8038,0.8038,0.8038,0.8038,0.8038,0.8038,0.8038,0.8038,0.8038,0.8038,0.8038,0.8038,0.8038,0.8038,0.8038,0.8038,0.8045,1.2716,1.3776,1.2721,1.2431,1.2721,1.3782,1.4262,1.4172,0.0,0.0,0.0,1.3143,1.3608,1.3842,1.3948,1.4615,1.5491,1.5718,1.5825,1.5825,1.5825,1.5825,1.5825,1.5825,1.5825,1.5825,1.5825,1.5825,1.5825,1.5825,1.5825,1.5825,1.5825,1.5825,1.5825,1.5825,1.5819,1.579,1.5342,1.5053,1.5,1.4421,1.3995,1.3654,1.3113,1.2953,1.3193,1.27,1.268,1.3186,1.2844,1.2797,1.3287,1.3826,1.3971,1.3701,1.3774,1.3931,1.4482,1.4569,1.4703,1.495,1.501,1.5019,1.5027,1.5021,1.499,1.5037,1.5044,1.5157,1.5444,1.5471,1.5571,1.5805,1.4854,1.3782,1.2716,1.1653,1.0867,0.9308,0.9114,0.9019,0.9903,0.9702,1.0002,1.0877,1.0779,1.1068,1.0096,0.8825,0.8038,0.8038,0.8038,0.8038,0.8038,0.8038,0.8038,0.8038,0.8038,0.8038,0.8038,0.8038,0.8038,0.8038,0.8038,0.8038,0.8038,0.8038,0.8038,0.8038,0.8038,0.8038,0.8038,0.8038,0.8038,1.2716,1.3878,1.368,1.4268,1.5242,1.5439,1.5534,1.5534,1.5343,1.5242,1.5242,1.5311,1.5386,1.5475,1.5481,1.5582,1.5772,1.5812,1.5825,1.5825,1.5825,1.5825,1.5825,1.5825,1.5825,1.5825,1.5825,1.5825,1.5825,1.5825,1.5825,1.5825,1.5825,1.5825,1.5825,1.5825,1.5812,1.5772,1.5732,1.5451,1.5013,1.4609,1.4195,1.3661,1.3327,1.316,1.3206,1.3087,1.3081,1.3206,1.3571,1.378,1.3567,1.3879,1.409,1.4008,1.4255,1.4436,1.4522,1.4756,1.4917,1.4977,1.519,1.5308,1.5136,1.504,1.507,1.5297,1.5337,1.5458,1.5725,1.5758,1.5765,1.5818,1.5635,1.5439,1.5045,1.4854,1.4172,1.2807,1.2037,1.0877,1.0288,0.9312,0.8821,0.8722,0.9702,0.9118,0.9899,0.8821,0.8137,0.8038,0.8038,0.8038,0.8031,0.8038,0.8038,0.8038,0.8038,0.8038,0.8038,0.8038,0.8038,0.8038,0.8038,0.8038,0.8038,0.8038,0.8038,0.8038,0.8038,0.8038,0.8038,0.8038,0.8038,1.3476,1.4848,1.4949,1.5242,1.5825,1.5825,1.5825,1.5825,1.5825,1.5825,1.5825,1.5825,1.5825,1.5825,1.5825,1.5825,1.5825,1.5825,1.5825,1.5825,1.5825,1.5825,1.5825,1.5825,1.5825,1.5825,1.5825,1.5825,1.5825,1.5825,1.5825,1.5825,1.5825,1.5825,1.5825,1.5825,1.5825,1.5825,1.5825,1.5631,1.5413,1.5167,1.4636,1.3908,1.3748,1.3607,1.3454,1.3266,1.3338,1.3674,1.396,1.4028,1.3881,1.4321,1.4477,1.4322,1.4596,1.483,1.499,1.5271,1.5431,1.5438,1.5551,1.5578,1.5544,1.5444,1.5484,1.5618,1.5631,1.5685,1.5818,1.5825,1.5825,1.5825,1.5825,1.554,1.4949,1.4752,1.4268,1.3006,1.2334,1.1945,1.2134,1.1546,1.1546,1.2032,1.1741,1.1448,1.1935,1.0386,0.8795,0.8255,0.9166,0.9292,0.8396,0.8707,0.8722,0.8137,0.8038,0.8038,0.8038,0.8038,0.8038,0.8038,0.8038,0.8038,0.8038,0.8038,0.8038,0.8038,0.8038,0.8038,0.8038,0.8038,0.8038,1.453,1.5825,1.5825,1.5825,1.5825,1.5825,1.5825,1.5825,1.5825,1.5825,1.5825,1.5825,1.5825,1.5825,1.5825,1.5825,1.5825,1.5825,1.5825,1.5825,1.5825,1.5825,1.5825,1.5825,1.5825,1.5825,1.5825,1.5825,1.5825,1.5825,1.5825,1.5825,1.5825,1.5825,1.5825,1.5825,1.5825,1.5825,1.5825,1.5799,1.5821,1.5503,1.5003,1.4255,1.4182,1.4041,1.3685,1.3556,1.3612,1.4155,1.4379,1.4412,1.4381,1.4783,1.4919,1.4649,1.4897,1.519,1.5471,1.5698,1.5825,1.5825,1.5825,1.5825,1.5825,1.5825,1.5825,1.5825,1.5812,1.5818,1.5825,1.5825,1.5825,1.5825,1.5825,1.5439,1.4555,1.4364,1.398,1.2915,1.2528,1.2813,1.359,1.3584,1.3584,1.4076,1.4076,1.359,1.3584,1.2032,1.052,0.9867,1.0586,1.1175,0.978,0.9985,0.9998,0.9019,0.8627,0.8627,0.8528,0.8333,0.8038,0.8038,0.8038,0.8038,0.8038,0.8038,0.8038,0.8038,0.8038,0.8038,0.8038,0.8038,0.8038,1.5629,1.5832,1.5825,1.5825,1.5825,1.5825,1.5825,1.5825,1.5825,1.5825,1.5825,1.5825,1.5825,1.5825,1.5825,1.5825,1.5825,1.5825,1.5825,1.5825,1.5825,1.5825,1.5825,1.5825,1.5825,1.5825,1.5825,1.5825,1.5825,1.5825,1.5825,1.5825,1.5825,1.5825,1.5825,1.5825,1.5825,1.5825,1.5825,1.5799,1.5828,1.5503,1.5097,1.4496,1.4482,1.4342,1.4082,1.4048,1.4175,1.4456,1.5179,1.5406,1.5028,1.5102,1.5122,1.4937,1.5197,1.5478,1.5752,1.5812,1.5825,1.5825,1.5825,1.5825,1.5825,1.5825,1.5825,1.5825,1.5825,1.5825,1.5825,1.5825,1.5825,1.5825,1.5825,1.573,1.5629,1.5635,1.554,1.5439,1.4274,1.3776,1.3878,1.3204,1.2528,1.3017,1.3011,1.3108,1.3878,1.3584,1.3069,1.2395,1.1579,1.1727,1.3215,1.2959,1.1458,1.1146,1.0476,0.9772,0.9363,0.8689,0.8035,0.7994,0.8038,0.8038,0.8038,0.8038,0.8038,0.8038,0.8038,0.8038,0.8038,0.8038,0.8038,1.5825,1.5825,1.5825,1.5825,1.5825,1.5825,1.5825,1.5825,1.5825,1.5825,1.5825,1.5825,1.5825,1.5825,1.5825,1.5825,1.5825,1.5825,1.5825,1.5825,1.5825,1.5825,1.5825,1.5825,1.5825,1.5825,1.5825,1.5825,1.5825,1.5825,1.5825,1.5825,1.5825,1.5825,1.5825,1.5825,1.5825,1.5825,1.5825,1.5778,1.5779,1.5665,1.5458,1.509,1.5037,1.4903,1.4636,1.4307,1.4353,1.4776,1.5478,1.5541,1.5053,1.5332,1.5427,1.5237,1.5498,1.5698,1.5818,1.5825,1.5825,1.5825,1.5825,1.5825,1.5825,1.5825,1.5825,1.5825,1.5825,1.5825,1.5825,1.5825,1.5825,1.5825,1.5825,1.5825,1.5825,1.5825,1.5825,1.573,1.5337,1.5045,1.4949,1.4561,1.4274,1.4178,1.4178,1.437,1.4949,1.4364,1.4172,1.4465,1.3307,1.2276,1.2775,1.1643,1.0863,1.0428,1.0053,0.9719,0.9531,0.93,0.8676,0.801,0.7987,0.8035,0.8038,0.8038,0.8038,0.8038,0.8038,0.8038,0.8038,0.8038,0.8038,1.5825,1.5825,1.5825,1.5825,1.5825,1.5825,1.5825,1.5825,1.5825,1.5825,1.5825,1.5825,1.5825,1.5825,1.5825,1.5825,1.5825,1.5825,1.5825,1.5825,1.5825,1.5825,1.5825,1.5825,1.5825,1.5825,1.5825,1.5825,1.5825,1.5825,1.5825,1.5825,1.5825,1.5825,1.5825,1.5825,1.5825,1.5825,1.5825,1.5825,1.5825,1.5825,1.5691,1.5431,1.5398,1.5257,1.4983,1.4558,1.4591,1.5084,1.559,1.5631,1.5302,1.5609,1.5731,1.5531,1.5705,1.5825,1.5825,1.5825,1.5825,1.5825,1.5825,1.5825,1.5825,1.5825,1.5825,1.5825,1.5825,1.5825,1.5825,1.5825,1.5825,1.5825,1.5825,1.5825,1.5825,1.5825,1.5825,1.5825,1.573,1.5825,1.5825,1.573,1.5629,1.5635,1.573,1.5825,1.573,1.5051,1.4783,1.5536,1.4694,1.3521,1.1993,1.1717,1.0976,1.0545,1.064,1.0145,0.9665,0.9594,0.9224,0.8266,0.811,0.8031,0.8038,0.8038,0.8038,0.8038,0.8038,0.8038,0.8038,0.8038,0.8038,1.5825,1.5825,1.5825,1.5825,1.5825,1.5825,1.5825,1.5825,1.5825,1.5825,1.5825,1.5825,1.5825,1.5825,1.5825,1.5825,1.5825,1.5825,1.5825,1.5825,1.5825,1.5825,1.5825,1.5825,1.5825,1.5825,1.5825,1.5825,1.5825,1.5825,1.5825,1.5825,1.5825,1.5825,1.5825,1.5825,1.5825,1.5825,1.5825,1.5825,1.5825,1.5825,1.5691,1.5451,1.5404,1.5284,1.5037,1.4977,1.509,1.5371,1.5681,1.581,1.5745,1.5785,1.5792,1.5798,1.5812,1.5825,1.5825,1.5825,1.5825,1.5825,1.5825,1.5825,1.5825,1.5825,1.5825,1.5825,1.5825,1.5825,1.5825,1.5825,1.5825,1.5825,1.5825,1.5825,1.5825,1.5825,1.5825,1.5825,1.5825,1.5825,1.5825,1.5825,1.5825,1.5825,1.5825,1.5825,1.5825,1.573,1.5648,1.5547,1.4962,1.428,1.5025,1.3511,1.3082,1.2736,1.1546,1.1211,1.0426,0.9744,0.9037,0.8502,0.8124,0.8035,0.8038,0.8038,0.8038,0.8038,0.8038,0.8038,0.8038,0.8038,0.8038,1.5825,1.5825,1.5825,1.5825,1.5825,1.5825,1.5825,1.5825,1.5825,1.5825,1.5825,1.5825,1.5825,1.5825,1.5825,1.5825,1.5825,1.5825,1.5825,1.5825,1.5825,1.5825,1.5825,1.5825,1.5825,1.5825,1.5825,1.5825,1.5825,1.5825,1.5825,1.5825,1.5825,1.5825,1.5825,1.5825,1.5825,1.5825,1.5825,1.5825,1.5825,1.5825,1.5772,1.5685,1.5671,1.5625,1.5518,1.5518,1.5571,1.5671,1.5779,1.5826,1.5812,1.5825,1.5825,1.5825,1.5825,1.5825,1.5825,1.5825,1.5825,1.5825,1.5825,1.5825,1.5825,1.5825,1.5825,1.5825,1.5825,1.5825,1.5825,1.5825,1.5825,1.5825,1.5825,1.5825,1.5825,1.5825,1.5825,1.5825,1.5825,1.5825,1.5825,1.5825,1.5825,1.5825,1.5825,1.5825,1.5825,1.5825,1.5825,1.573,1.5439,1.5255,1.558,1.3811,1.2603,1.2713,1.2194,1.1414,1.0683,0.9927,0.9251,0.8528,0.8174,0.8035,0.8038,0.8038,0.8038,0.8038,0.8038,0.8038,0.8038,0.8038,0.8038,1.5825,1.5825,1.5825,1.5825,1.5825,1.5825,1.5825,1.5825,1.5825,1.5825,1.5825,1.5825,1.5825,1.5825,1.5825,1.5825,1.5825,1.5825,1.5825,1.5825,1.5825,1.5825,1.5825,1.5825,1.5825,1.5825,1.5825,1.5825,1.5825,1.5825,1.5825,1.5825,1.5825,1.5825,1.5825,1.5825,1.5825,1.5825,1.5825,1.5825,1.5825,1.5825,1.5825,1.5825,1.5825,1.5825,1.5825,1.5825,1.5825,1.5825,1.5825,1.5825,1.5825,1.5825,1.5825,1.5825,1.5825,1.5825,1.5825,1.5825,1.5825,1.5825,1.5825,1.5825,1.5825,1.5825,1.5825,1.5825,1.5825,1.5825,1.5825,1.5825,1.5825,1.5825,1.5825,1.5825,1.5825,1.5825,1.5825,1.5825,1.5825,1.5825,1.5825,1.5825,1.5825,1.5825,1.5825,1.5825,1.5825,1.5825,1.5825,1.5825,1.5825,1.573,1.5845,1.4669,1.3402,1.3246,1.2346,1.1605,1.0886,1.0139,0.9397,0.8665,0.8231,0.8107,0.8038,0.8038,0.8038,0.8038,0.8038,0.8038,0.8038,0.8038,0.8038,1.5825,1.5825,1.5825,1.5825,1.5825,1.5825,1.5825,1.5825,1.5825,1.5825,1.5825,1.5825,1.5825,1.5825,1.5825,1.5825,1.5825,1.5825,1.5825,1.5825,1.5825,1.5825,1.5825,1.5825,1.5825,1.5825,1.5825,1.5825,1.5825,1.5825,1.5825,1.5825,1.5825,1.5825,1.5825,1.5825,1.5825,1.5825,1.5825,1.5825,1.5825,1.5825,1.5825,1.5825,1.5825,1.5825,1.5825,1.5825,1.5825,1.5825,1.5825,1.5825,1.5825,1.5825,1.5825,1.5825,1.5825,1.5825,1.5825,1.5825,1.5825,1.5825,1.5825,1.5825,1.5825,1.5825,1.5825,1.5825,1.5825,1.5825,1.5825,1.5825,1.5825,1.5825,1.5825,1.5825,1.5825,1.5825,1.5825,1.5825,1.5825,1.5825,1.5825,1.5825,1.5825,1.5825,1.5825,1.5825,1.5825,1.5825,1.5825,1.5825,1.5825,1.5825,1.5825,1.571,1.4886,1.399,1.274,1.1682,1.1143,1.045,0.9397,0.8663,0.8174,0.8038,0.8038,0.8038,0.8038,0.8038,0.8038,0.8038,0.8038,0.8038,0.8038,1.5825,1.5825,1.5825,1.5825,1.5825,1.5825,1.5825,1.5825,1.5825,1.5825,1.5825,1.5825,1.5825,1.5825,1.5825,1.5825,1.5825,1.5825,1.5825,1.5825,1.5825,1.5825,1.5825,1.5825,1.5825,1.5825,1.5825,1.5825,1.5825,1.5825,1.5825,1.5825,1.5825,1.5825,1.5825,1.5825,1.5825,1.5825,1.5825,1.5825,1.5825,1.5825,1.5825,1.5825,1.5825,1.5825,1.5825,1.5825,1.5825,1.5825,1.5825,1.5825,1.5825,1.5825,1.5825,1.5825,1.5825,1.5825,1.5825,1.5825,1.5825,1.5825,1.5825,1.5825,1.5825,1.5825,1.5825,1.5825,1.5825,1.5825,1.5825,1.5825,1.5825,1.5825,1.5825,1.5825,1.5825,1.5825,1.5825,1.5825,1.5825,1.5825,1.5825,1.5825,1.5825,1.5825,1.5825,1.5825,1.5825,1.5825,1.5825,1.5825,1.5825,1.5825,1.5825,1.5825,1.536,1.4407,1.3137,1.2211,1.1606,1.043,0.9465,0.8821,0.8432,0.8038,0.8038,0.8038,0.8038,0.8038,0.8038,0.8038,0.8038,0.8038,0.8038,1.5825,1.5825,1.5825,1.5825,1.5825,1.5825,1.5825,1.5825,1.5825,1.5825,1.5825,1.5825,1.5825,1.5825,1.5825,1.5825,1.5825,1.5825,1.5825,1.5825,1.5825,1.5825,1.5825,1.5825,1.5825,1.5825,1.5825,1.5825,1.5825,1.5825,1.5825,1.5825,1.5825,1.5825,1.5825,1.5825,1.5825,1.5825,1.5825,1.5825,1.5825,1.5825,1.5825,1.5825,1.5825,1.5825,1.5825,1.5825,1.5825,1.5825,1.5825,1.5825,1.5825,1.5825,1.5825,1.5825,1.5825,1.5825,1.5825,1.5825,1.5825,1.5825,1.5825,1.5825,1.5825,1.5825,1.5825,1.5825,1.5825,1.5825,1.5825,1.5825,1.5825,1.5825,1.5825,1.5825,1.5825,1.5825,1.5825,1.5825,1.5825,1.5825,1.5825,1.5825,1.5825,1.5825,1.5825,1.5825,1.5825,1.5825,1.5825,1.5825,1.5825,1.5825,1.5825,1.5825,1.5825,1.4734,1.3476,1.2973,1.2406,1.0701,0.9312,0.9118,0.8726,0.8137,0.8038,0.8038,0.8038,0.8038,0.8038,0.8038,0.8038,0.8038,0.8038,1.5825,1.5825,1.5825,1.5825,1.5825,1.5825,1.5825,1.5825,1.5825,1.5825,1.5825,1.5825,1.5825,1.5825,1.5825,1.5825,1.5825,1.5825,1.5825,1.5825,1.5825,1.5825,1.5825,1.5825,1.5825,1.5825,1.5825,1.5825,1.5825,1.5825,1.5825,1.5825,1.5825,1.5825,1.5825,1.5825,1.5825,1.5825,1.5825,1.5825,1.5825,1.5825,1.5825,1.5825,1.5825,1.5825,1.5825,1.5825,1.5825,1.5825,1.5825,1.5825,1.5825,1.5825,1.5825,1.5825,1.5825,1.5825,1.5825,1.5825,1.5825,1.5825,1.5825,1.5825,1.5825,1.5825,1.5825,1.5825,1.5825,1.5825,1.5825,1.5825,1.5825,1.5825,1.5825,1.5825,1.5825,1.5825,1.5825,1.5825,1.5825,1.5825,1.5825,1.5825,1.5825,1.5825,1.5825,1.5825,1.5825,1.5825,1.5825,1.5825,1.5825,1.5825,1.5825,1.5825,1.5825,1.5242,1.398,1.3273,1.2464,1.0658,0.9118,0.9023,0.8825,0.8333,0.8038,0.8038,0.8038,0.8038,0.8038,0.8038,0.8038,0.8038,0.8038,1.5825,1.5825,1.5825,1.5825,1.5825,1.5825,1.5825,1.5825,1.5825,1.5825,1.5825,1.5825,1.5825,1.5825,1.5825,1.5825,1.5825,1.5825,1.5825,1.5825,1.5825,1.5825,1.5825,1.5825,1.5825,1.5825,1.5825,1.5825,1.5825,1.5825,1.5825,1.5825,1.5825,1.5825,1.5825,1.5825,1.5825,1.5825,1.5825,1.5825,1.5825,1.5825,1.5825,1.5825,1.5825,1.5825,1.5825,1.5825,1.5825,1.5825,1.5825,1.5825,1.5825,1.5825,1.5825,1.5825,1.5825,1.5825,1.5825,1.5825,1.5825,1.5825,1.5825,1.5825,1.5825,1.5825,1.5825,1.5825,1.5825,1.5825,1.5825,1.5825,1.5825,1.5825,1.5825,1.5825,1.5825,1.5825,1.5825,1.5825,1.5825,1.5825,1.5825,1.5825,1.5825,1.5825,1.5825,1.5825,1.5825,1.5825,1.5825,1.5825,1.5825,1.5825,1.5825,1.5825,1.573,1.5534,1.4465,1.3199,1.1915,1.0083,0.9019,0.8333,0.8432,0.8038,0.8038,0.8038,0.8038,0.7922,0.8035,0.8035,0.8035,0.8035,0.8038,1.5825,1.5825,1.5825,1.5825,1.5825,1.5825,1.5825,1.5825,1.5825,1.5825,1.5825,1.5825,1.5825,1.5825,1.5825,1.5825,1.5825,1.5825,1.5825,1.5825,1.5825,1.5825,1.5825,1.5825,1.5825,1.5825,1.5825,1.5825,1.5825,1.5825,1.5825,1.5825,1.5825,1.5825,1.5825,1.5825,1.5825,1.5825,1.5825,1.5825,1.5825,1.5825,1.5825,1.5825,1.5825,1.5825,1.5825,1.5825,1.5825,1.5825,1.5825,1.5825,1.5825,1.5825,1.5825,1.5825,1.5825,1.5825,1.5825,1.5825,1.5825,1.5825,1.5825,1.5825,1.5825,1.5825,1.5825,1.5825,1.5825,1.5825,1.5825,1.5825,1.5825,1.5825,1.5825,1.5825,1.5825,1.5825,1.5825,1.5825,1.5825,1.5825,1.5825,1.5825,1.5825,1.5825,1.5825,1.5825,1.5825,1.5825,1.5825,1.5825,1.5825,1.5825,1.5825,1.5825,1.5825,1.5629,1.4076,1.2909,1.2226,1.0382,0.9406,0.8726,0.8333,0.8038,0.8038,0.7925,0.7888,0.7885,0.7912,0.8007,0.7991,0.8001,0.8007,1.5825,1.5825,1.5825,1.5825,1.5825,1.5825,1.5825,1.5825,1.5825,1.5825,1.5825,1.5825,1.5825,1.5825,1.5825,1.5825,1.5825,1.5825,1.5825,1.5825,1.5825,1.5825,1.5825,1.5825,1.5825,1.5825,1.5825,1.5825,1.5825,1.5825,1.5825,1.5825,1.5825,1.5825,1.5825,1.5825,1.5825,1.5825,1.5825,1.5825,1.5825,1.5825,1.5825,1.5825,1.5825,1.5825,1.5825,1.5825,1.5825,1.5825,1.5825,1.5825,1.5825,1.5825,1.5825,1.5825,1.5825,1.5825,1.5825,1.5825,1.5825,1.5825,1.5825,1.5825,1.5825,1.5825,1.5825,1.5825,1.5825,1.5825,1.5825,1.5825,1.5825,1.5825,1.5825,1.5825,1.5825,1.5825,1.5825,1.5825,1.5825,1.5825,1.5825,1.5825,1.5825,1.5825,1.5825,1.5825,1.5825,1.5825,1.5825,1.5825,1.5825,1.5825,1.5825,1.5825,1.5825,1.5629,1.3494,1.2425,1.3,1.1838,1.048,0.9505,0.8528,0.8038,0.8038,0.7908,0.7872,0.7845,0.7868,0.7929,0.7896,0.7929,0.795,1.5825,1.5825,1.5825,1.5825,1.5825,1.5825,1.5825,1.5825,1.5825,1.5825,1.5825,1.5825,1.5825,1.5825,1.5825,1.5825,1.5825,1.5825,1.5825,1.5825,1.5825,1.5825,1.5825,1.5825,1.5825,1.5825,1.5825,1.5825,1.5825,1.5825,1.5825,1.5825,1.5825,1.5825,1.5825,1.5825,1.5825,1.5825,1.5825,1.5825,1.5825,1.5825,1.5825,1.5825,1.5825,1.5825,1.5825,1.5825,1.5825,1.5825,1.5825,1.5825,1.5825,1.5825,1.5825,1.5825,1.5825,1.5825,1.5825,1.5825,1.5825,1.5825,1.5825,1.5825,1.5825,1.5825,1.5825,1.5825,1.5825,1.5825,1.5825,1.5825,1.5825,1.5825,1.5825,1.5825,1.5825,1.5825,1.5825,1.5825,1.5825,1.5825,1.5825,1.5825,1.5825,1.5825,1.5825,1.5825,1.5825,1.5825,1.5825,1.5825,1.5825,1.5825,1.5825,1.5825,1.5825,1.5534,1.3686,1.2431,1.3102,1.2032,1.0284,0.9114,0.8333,0.8038,0.8038,0.8035,0.7905,0.7865,0.7906,0.7865,0.7841,0.7868,0.7872,1.5825,1.5825,1.5825,1.5825,1.5825,1.5825,1.5825,1.5825,1.5825,1.5825,1.5825,1.5825,1.5825,1.5825,1.5825,1.5825,1.5825,1.5825,1.5825,1.5825,1.5825,1.5825,1.5825,1.5825,1.5825,1.5825,1.5825,1.5825,1.5825,1.5825,1.5825,1.5825,1.5825,1.5825,1.5825,1.5825,1.5825,1.5825,1.5825,1.5825,1.5825,1.5825,1.5825,1.5825,1.5825,1.5825,1.5825,1.5825,1.5825,1.5825,1.5825,1.5825,1.5825,1.5825,1.5825,1.5825,1.5825,1.5825,1.5825,1.5825,1.5825,1.5825,1.5825,1.5825,1.5825,1.5825,1.5825,1.5825,1.5825,1.5825,1.5825,1.5825,1.5825,1.5825,1.5825,1.5825,1.5825,1.5825,1.5825,1.5825,1.5825,1.5825,1.5825,1.5825,1.5825,1.5825,1.5825,1.5825,1.5825,1.5825,1.5825,1.5825,1.5825,1.5825,1.5825,1.5825,1.5825,1.5337,1.4268,1.359,1.3776,1.1838,0.9509,0.9019,0.8821,0.8038,0.8038,0.8035,0.7974,0.7834,0.776,0.7767,0.775,0.7699,0.7706,1.5825,1.5825,1.5825,1.5825,1.5825,1.5825,1.5825,1.5825,1.5825,1.5825,1.5825,1.5825,1.5825,1.5825,1.5825,1.5825,1.5825,1.5825,1.5825,1.5825,1.5825,1.5825,1.5825,1.5825,1.5825,1.5825,1.5825,1.5825,1.5825,1.5825,1.5825,1.5825,1.5825,1.5825,1.5825,1.5825,1.5825,1.5825,1.5825,1.5825,1.5825,1.5825,1.5825,1.5825,1.5825,1.5825,1.5825,1.5825,1.5825,1.5825,1.5825,1.5825,1.5825,1.5825,1.5825,1.5825,1.5825,1.5825,1.5825,1.5825,1.5825,1.5825,1.5825,1.5825,1.5825,1.5825,1.5825,1.5825,1.5825,1.5825,1.5825,1.5825,1.5825,1.5825,1.5825,1.5825,1.5825,1.5825,1.5825,1.5825,1.5825,1.5825,1.5825,1.5825,1.5825,1.5825,1.5825,1.5825,1.5825,1.5825,1.5825,1.5825,1.5825,1.5825,1.5825,1.5825,1.5825,1.5439,1.4657,1.4459,1.407,1.1741,0.9998,0.9998,0.9702,0.8722,0.8038,0.8038,0.7926,0.7716,0.7648,0.7685,0.7624,0.7522,0.7553,1.5825,1.5825,1.5825,1.5825,1.5825,1.5825,1.5825,1.5825,1.5825,1.5825,1.5825,1.5825,1.5825,1.5825,1.5825,1.5825,1.5825,1.5825,1.5825,1.5825,1.5825,1.5825,1.5825,1.5825,1.5825,1.5825,1.5825,1.5825,1.5825,1.5825,1.5825,1.5825,1.5825,1.5825,1.5825,1.5825,1.5825,1.5825,1.5825,1.5825,1.5825,1.5825,1.5825,1.5825,1.5825,1.5825,1.5825,1.5825,1.5825,1.5825,1.5825,1.5825,1.5825,1.5825,1.5825,1.5825,1.5825,1.5825,1.5825,1.5825,1.5825,1.5825,1.5825,1.5825,1.5825,1.5825,1.5825,1.5825,1.5825,1.5825,1.5825,1.5825,1.5825,1.5825,1.5825,1.5825,1.5825,1.5825,1.5825,1.5825,1.5825,1.5825,1.5825,1.5825,1.5825,1.5825,1.5825,1.5825,1.5825,1.5825,1.5825,1.5825,1.5825,1.5825,1.5825,1.5825,1.5825,1.5534,1.5045,1.4949,1.3974,1.1843,1.0676,1.097,1.0087,0.8623,0.8131,0.8131,0.7906,0.7815,0.7665,0.7624,0.7602,0.7502,0.7537,1.5825,1.5825,1.5825,1.5825,1.5825,1.5825,1.5825,1.5825,1.5825,1.5825,1.5825,1.5825,1.5825,1.5825,1.5825,1.5825,1.5825,1.5825,1.5825,1.5825,1.5825,1.5825,1.5825,1.5825,1.5825,1.5825,1.5825,1.5825,1.5825,1.5825,1.5825,1.5825,1.5825,1.5825,1.5825,1.5825,1.5825,1.5825,1.5825,1.5825,1.5825,1.5825,1.5825,1.5825,1.5825,1.5825,1.5825,1.5825,1.5825,1.5825,1.5825,1.5825,1.5825,1.5825,1.5825,1.5825,1.5825,1.5825,1.5825,1.5825,1.5825,1.5825,1.5825,1.5825,1.5825,1.5825,1.5825,1.5825,1.5825,1.5825,1.5825,1.5825,1.5825,1.5825,1.5825,1.5825,1.5825,1.5825,1.5825,1.5825,1.5825,1.5825,1.5825,1.5825,1.5825,1.5825,1.5825,1.5825,1.5825,1.5825,1.5825,1.5825,1.5825,1.5825,1.5825,1.5825,1.5825,1.5629,1.5439,1.5337,1.4561,1.2619,1.2134,1.242,1.0863,0.9304,0.8502,0.859,0.8247,0.7921,0.7939,0.7937,0.7678,0.7594,0.7887,1.5825,1.5825,1.5825,1.5825,1.5825,1.5825,1.5825,1.5825,1.5825,1.5825,1.5825,1.5825,1.5825,1.5825,1.5825,1.5825,1.5825,1.5825,1.5825,1.5825,1.5825,1.5825,1.5825,1.5825,1.5825,1.5825,1.5825,1.5825,1.5825,1.5825,1.5825,1.5825,1.5825,1.5825,1.5825,1.5825,1.5825,1.5825,1.5825,1.5825,1.5825,1.5825,1.5825,1.5825,1.5825,1.5825,1.5825,1.5825,1.5825,1.5825,1.5825,1.5825,1.5825,1.5825,1.5825,1.5825,1.5825,1.5825,1.5825,1.5825,1.5825,1.5825,1.5825,1.5825,1.5825,1.5825,1.5825,1.5825,1.5825,1.5825,1.5825,1.5825,1.5825,1.5825,1.5825,1.5825,1.5825,1.5825,1.5825,1.5825,1.5825,1.5825,1.5825,1.5825,1.5825,1.5825,1.5825,1.5825,1.5825,1.5825,1.5825,1.5825,1.5825,1.5825,1.5825,1.5825,1.5825,1.573,1.5635,1.5629,1.4854,1.3782,1.359,1.3295,1.2517,1.1053,1.0053,0.9327,0.9481,0.9349,0.8663,0.8502,0.8743,0.8899,0.9076,1.5825,1.5825,1.5825,1.5825,1.5825,1.5825,1.5825,1.5825,1.5825,1.5825,1.5825,1.5825,1.5825,1.5825,1.5825,1.5825,1.5825,1.5825,1.5825,1.5825,1.5825,1.5825,1.5825,1.5825,1.5825,1.5825,1.5825,1.5825,1.5825,1.5825,1.5825,1.5825,1.5825,1.5825,1.5825,1.5825,1.5825,1.5825,1.5825,1.5825,1.5825,1.5825,1.5825,1.5825,1.5825,1.5825,1.5825,1.5825,1.5825,1.5825,1.5825,1.5825,1.5825,1.5825,1.5825,1.5825,1.5825,1.5825,1.5825,1.5825,1.5825,1.5825,1.5825,1.5825,1.5825,1.5825,1.5825,1.5825,1.5825,1.5825,1.5825,1.5825,1.5825,1.5825,1.5825,1.5825,1.5825,1.5825,1.5825,1.5825,1.5825,1.5825,1.5825,1.5825,1.5825,1.5825,1.5825,1.5825,1.5825,1.5825,1.5825,1.5825,1.5825,1.5825,1.5825,1.5825,1.5825,1.5825,1.5825,1.5825,1.5146,1.4465,1.4076,1.3686,1.3102,1.2813,1.2109,1.154,1.1296,1.0839,1.0371,1.0206,1.0362,1.0376,1.0265,1.5825,1.5825,1.5825,1.5825,1.5825,1.5825,1.5825,1.5825,1.5825,1.5825,1.5825,1.5825,1.5825,1.5825,1.5825,1.5825,1.5825,1.5825,1.5825,1.5825,1.5825,1.5825,1.5825,1.5825,1.5825,1.5825,1.5825,1.5825,1.5825,1.5825,1.5825,1.5825,1.5825,1.5825,1.5825,1.5825,1.5825,1.5825,1.5825,1.5825,1.5825,1.5825,1.5825,1.5825,1.5825,1.5825,1.5825,1.5825,1.5825,1.5825,1.5825,1.5825,1.5825,1.5825,1.5825,1.5825,1.5825,1.5825,1.5825,1.5825,1.5825,1.5825,1.5825,1.5825,1.5825,1.5825,1.5825,1.5825,1.5825,1.5825,1.5825,1.5825,1.5825,1.5825,1.5825,1.5825,1.5825,1.5825,1.5825,1.5825,1.5825,1.5825,1.5825,1.5825,1.5825,1.5825,1.5825,1.5825,1.5825,1.5825,1.5825,1.5825,1.5825,1.5825,1.5825,1.5825,1.5825,1.5825,1.5825,1.573,1.5534,1.5045,1.4657,1.4364,1.4076,1.3878,1.3776,1.3351,1.2786,1.2368,1.2037,1.1666,1.1316,1.1488,1.1558,1.5758,1.5825,1.5825,1.5825,1.5825,1.5825,1.5825,1.5825,1.5825,1.5825,1.5825,1.5825,1.5825,1.5825,1.5825,1.5825,1.5825,1.5825,1.5825,1.5825,1.5825,1.5825,1.5825,1.5825,1.5825,1.5825,1.5825,1.5825,1.5825,1.5825,1.5825,1.5825,1.5825,1.5825,1.5825,1.5825,1.5825,1.5825,1.5825,1.5825,1.5825,1.5825,1.5825,1.5825,1.5825,1.5825,1.5825,1.5825,1.5825,1.5825,1.5825,1.5825,1.5825,1.5825,1.5825,1.5825,1.5825,1.5825,1.5825,1.5825,1.5825,1.5825,1.5825,1.5825,1.5825,1.5825,1.5825,1.5825,1.5825,1.5825,1.5825,1.5825,1.5825,1.5825,1.5825,1.5825,1.5825,1.5825,1.5825,1.5825,1.5825,1.5825,1.5825,1.5825,1.5825,1.5825,1.5825,1.5825,1.5825,1.5825,1.5825,1.5825,1.5825,1.5825,1.5825,1.5825,1.5825,1.5825,1.5825,1.573,1.5629,1.5439,1.5051,1.4854,1.4752,1.4854,1.4848,1.4465,1.4074,1.3531,1.2997,1.2374,1.2157,1.2404,1.2693,1.5585,1.5825,1.5825,1.5825,1.5825,1.5825,1.5825,1.5825,1.5825,1.5825,1.5825,1.5825,1.5825,1.5825,1.5825,1.5825,1.5825,1.5825,1.5825,1.5825,1.5825,1.5825,1.5825,1.5825,1.5825,1.5825,1.5825,1.5825,1.5825,1.5825,1.5825,1.5825,1.5825,1.5825,1.5825,1.5825,1.5825,1.5825,1.5825,1.5825,1.5825,1.5825,1.5825,1.5825,1.5825,1.5825,1.5825,1.5825,1.5825,1.5825,1.5825,1.5825,1.5825,1.5825,1.5825,1.5825,1.5825,1.5825,1.5825,1.5825,1.5825,1.5825,1.5825,1.5825,1.5825,1.5825,1.5825,1.5825,1.5825,1.5825,1.5825,1.5825,1.5825,1.5825,1.5825,1.5825,1.5825,1.5825,1.5825,1.5825,1.5825,1.5825,1.5825,1.5825,1.5825,1.5825,1.5825,1.5825,1.5825,1.5825,1.5825,1.5825,1.5825,1.5825,1.5825,1.5825,1.5825,1.5825,1.5825,1.5825,1.573,1.5534,1.5439,1.5439,1.5337,1.5635,1.573,1.522,1.4827,1.4455,1.3957,1.3361,1.32,1.3452,1.3658,1.5725,1.5825,1.5825,1.5825,1.5825,1.5825,1.5825,1.5825,1.5825,1.5825,1.5825,1.5825,1.5825,1.5825,1.5825,1.5825,1.5825,1.5825,1.5825,1.5825,1.5825,1.5825,1.5825,1.5825,1.5825,1.5825,1.5825,1.5825,1.5825,1.5825,1.5825,1.5825,1.5825,1.5825,1.5825,1.5825,1.5825,1.5825,1.5825,1.5825,1.5825,1.5825,1.5825,1.5825,1.5825,1.5825,1.5825,1.5825,1.5825,1.5825,1.5825,1.5825,1.5825,1.5825,1.5825,1.5825,1.5825,1.5825,1.5825,1.5825,1.5825,1.5825,1.5825,1.5825,1.5825,1.5825,1.5825,1.5825,1.5825,1.5825,1.5825,1.5825,1.5825,1.5825,1.5825,1.5825,1.5825,1.5825,1.5825,1.5825,1.5825,1.5825,1.5825,1.5825,1.5825,1.5825,1.5825,1.5825,1.5825,1.5825,1.5825,1.5825,1.5825,1.5825,1.5825,1.5825,1.5825,1.5825,1.5825,1.5825,1.5825,1.5825,1.573,1.5825,1.5825,1.5825,1.5825,1.5825,1.5524,1.5081,1.4724,1.4307,1.4349,1.4362,1.4329,1.5752,1.5812,1.5738,1.5752,1.5818,1.5825,1.5825,1.5825,1.5825,1.5825,1.5825,1.5825,1.5825,1.5825,1.5825,1.5825,1.5825,1.5825,1.5825,1.5825,1.5825,1.5825,1.5825,1.5825,1.5825,1.5825,1.5825,1.5825,1.5825,1.5825,1.5825,1.5825,1.5825,1.5825,1.5825,1.5825,1.5825,1.5825,1.5825,1.5825,1.5825,1.5825,1.5825,1.5825,1.5825,1.5825,1.5825,1.5825,1.5825,1.5825,1.5825,1.5825,1.5825,1.5825,1.5825,1.5825,1.5825,1.5825,1.5825,1.5825,1.5825,1.5825,1.5825,1.5825,1.5825,1.5825,1.5825,1.5825,1.5825,1.5825,1.5825,1.5825,1.5825,1.5825,1.5825,1.5825,1.5825,1.5825,1.5825,1.5825,1.5825,1.5825,1.5825,1.5825,1.5825,1.5825,1.5825,1.5825,1.5825,1.5825,1.5825,1.5825,1.5825,1.5825,1.5825,1.5825,1.5825,1.5825,1.5825,1.5825,1.5825,1.5825,1.5825,1.5825,1.5825,1.5825,1.5825,1.5825,1.5772,1.5749,1.5291,1.4763,1.4703,1.4643,1.4556,1.5585,1.5778,1.5538,1.5591,1.5818,1.5825,1.5825,1.5825,1.5825,1.5825,1.5825,1.5825,1.5825,1.5825,1.5825,1.5825,1.5825,1.5825,1.5825,1.5825,1.5825,1.5825,1.5825,1.5825,1.5825,1.5825,1.5825,1.5825,1.5825,1.5825,1.5825,1.5825,1.5825,1.5825,1.5825,1.5825,1.5825,1.5825,1.5825,1.5825,1.5825,1.5825,1.5825,1.5825,1.5825,1.5825,1.5825,1.5825,1.5825,1.5825,1.5825,1.5825,1.5825,1.5825,1.5825,1.5825,1.5825,1.5825,1.5825,1.5825,1.5825,1.5825,1.5825,1.5825,1.5825,1.5825,1.5825,1.5825,1.5825,1.5825,1.5825,1.5825,1.5825,1.5825,1.5825,1.5825,1.5825,1.5825,1.5825,1.5825,1.5825,1.5825,1.5825,1.5825,1.5825,1.5825,1.5825,1.5825,1.5825,1.5825,1.5825,1.5825,1.5825,1.5825,1.5825,1.5825,1.5825,1.5825,1.5825,1.5825,1.5825,1.5825,1.5825,1.5825,1.5825,1.5825,1.5825,1.5825,1.5792,1.5758,1.5402,1.5044,1.499,1.4923,1.4836,1.5738,1.5818,1.5725,1.5738,1.5818,1.5825,1.5825,1.5825,1.5825,1.5825,1.5825,1.5825,1.5825,1.5825,1.5825,1.5825,1.5825,1.5825,1.5825,1.5825,1.5825,1.5825,1.5825,1.5825,1.5825,1.5825,1.5825,1.5825,1.5825,1.5825,1.5825,1.5825,1.5825,1.5825,1.5825,1.5825,1.5825,1.5825,1.5825,1.5825,1.5825,1.5825,1.5825,1.5825,1.5825,1.5825,1.5825,1.5825,1.5825,1.5825,1.5825,1.5825,1.5825,1.5825,1.5825,1.5825,1.5825,1.5825,1.5825,1.5825,1.5825,1.5825,1.5825,1.5825,1.5825,1.5825,1.5825,1.5825,1.5825,1.5825,1.5825,1.5825,1.5825,1.5825,1.5825,1.5825,1.5825,1.5825,1.5825,1.5825,1.5825,1.5825,1.5825,1.5825,1.5825,1.5825,1.5825,1.5825,1.5825,1.5825,1.5825,1.5825,1.5825,1.5825,1.5825,1.5825,1.5825,1.5825,1.5825,1.5825,1.5825,1.5825,1.5825,1.5825,1.5825,1.5825,1.5825,1.5825,1.5798,1.5671,1.5471,1.5337,1.5271,1.5204,1.5124,1.5825,1.5825,1.5825,1.5825,1.5825,1.5825,1.5825,1.5825,1.5825,1.5825,1.5825,1.5825,1.5825,1.5825,1.5825,1.5825,1.5825,1.5825,1.5825,1.5825,1.5825,1.5825,1.5825,1.5825,1.5825,1.5825,1.5825,1.5825,1.5825,1.5825,1.5825,1.5825,1.5825,1.5825,1.5825,1.5825,1.5825,1.5825,1.5825,1.5825,1.5825,1.5825,1.5825,1.5825,1.5825,1.5825,1.5825,1.5825,1.5825,1.5825,1.5825,1.5825,1.5825,1.5825,1.5825,1.5825,1.5825,1.5825,1.5825,1.5825,1.5825,1.5825,1.5825,1.5825,1.5825,1.5825,1.5825,1.5825,1.5825,1.5825,1.5825,1.5825,1.5825,1.5825,1.5825,1.5825,1.5825,1.5825,1.5825,1.5825,1.5825,1.5825,1.5825,1.5825,1.5825,1.5825,1.5825,1.5825,1.5825,1.5825,1.5825,1.5825,1.5825,1.5825,1.5825,1.5825,1.5825,1.5825,1.5825,1.5825,1.5825,1.5825,1.5825,1.5825,1.5825,1.5825,1.5825,1.5818,1.5805,1.5805,1.5752,1.5638,1.5558,1.5478,1.5391,1.5825,1.5825,1.5825,1.5825,1.5825,1.5825,1.5825,1.5825,1.5825,1.5825,1.5825,1.5825,1.5825,1.5825,1.5825,1.5825,1.5825,1.5825,1.5825,1.5825,1.5825,1.5825,1.5825,1.5825,1.5825,1.5825,1.5825,1.5825,1.5825,1.5825,1.5825,1.5825,1.5825,1.5825,1.5825,1.5825,1.5825,1.5825,1.5825,1.5825,1.5825,1.5825,1.5825,1.5825,1.5825,1.5825,1.5825,1.5825,1.5825,1.5825,1.5825,1.5825,1.5825,1.5825,1.5825,1.5825,1.5825,1.5825,1.5825,1.5825,1.5825,1.5825,1.5825,1.5825,1.5825,1.5825,1.5825,1.5825,1.5825,1.5825,1.5825,1.5825,1.5825,1.5825,1.5825,1.5825,1.5825,1.5825,1.5825,1.5825,1.5825,1.5825,1.5825,1.5825,1.5825,1.5825,1.5825,1.5825,1.5825,1.5825,1.5825,1.5825,1.5825,1.5825,1.5825,1.5825,1.5825,1.5825,1.5825,1.5825,1.5825,1.5825,1.5825,1.5825,1.5825,1.5825,1.5825,1.5825,1.5825,1.5825,1.5825,1.5798,1.5678,1.5705,1.5605,1.5825,1.5825,1.5825,1.5825,1.5825,1.5825,1.5825,1.5825,1.5825,1.5825,1.5825,1.5825,1.5825,1.5825,1.5825,1.5825,1.5825,1.5825,1.5825,1.5825,1.5825,1.5825,1.5825,1.5825,1.5825,1.5825,1.5825,1.5825,1.5825,1.5825,1.5825,1.5825,1.5825,1.5825,1.5825,1.5825,1.5825,1.5825,1.5825,1.5825,1.5825,1.5825,1.5825,1.5825,1.5825,1.5825,1.5825,1.5825,1.5825,1.5825,1.5825,1.5825,1.5825,1.5825,1.5825,1.5825,1.5825,1.5825,1.5825,1.5825,1.5825,1.5825,1.5825,1.5825,1.5825,1.5825,1.5825,1.5825,1.5825,1.5825,1.5825,1.5825,1.5825,1.5825,1.5838,1.5852,1.5865,1.5912,1.5912,1.5905,1.5905,1.5763,1.5852,1.5825,1.5825,1.5825,1.5825,1.5825,1.5825,1.5825,1.5825,1.5825,1.5825,1.5825,1.5825,1.5825,1.5825,1.5825,1.5825,1.5825,1.5825,1.5825,1.5825,1.5825,1.5825,1.5825,1.5825,1.5825,1.5825,1.5825,1.5825,1.5825,1.5825,1.5812,1.5685,1.5826,1.5825,1.5825,1.5825,1.5825,1.5825,1.5825,1.5825,1.5825,1.5825,1.5825,1.5825,1.5825,1.5825,1.5825,1.5825,1.5825,1.5825,1.5825,1.5825,1.5825,1.5825,1.5825,1.5825,1.5825,1.5825,1.5825,1.5825,1.5825,1.5825,1.5825,1.5825,1.5825,1.5825,1.5825,1.5825,1.5825,1.5825,1.5825,1.5825,1.5825,1.5825,1.5825,1.5825,1.5825,1.5825,1.5825,1.5825,1.5825,1.5825,1.5825,1.5825,1.5825,1.5825,1.5825,1.5825,1.5825,1.5825,1.5825,1.5825,1.5825,1.5825,1.5825,1.5825,1.5825,1.5825,1.5825,1.5825,1.5825,1.5825,1.5825,1.5825,1.5825,1.5825,1.5858,1.5885,1.5945,1.6012,1.6019,1.6012,1.5883,1.583,1.5797,1.5852,1.5825,1.5825,1.5825,1.5825,1.5825,1.5825,1.5825,1.5825,1.5825,1.5825,1.5825,1.5825,1.5825,1.5825,1.5825,1.5825,1.5825,1.5825,1.5825,1.5825,1.5825,1.5825,1.5825,1.5825,1.5825,1.5825,1.5825,1.5825,1.5825,1.5825,1.5625,1.5744,1.5792,1.5825,1.5825,1.5825,1.5825,1.5825,1.5825,1.5825,1.5825,1.5825,1.5825,1.5825,1.5825,1.5825,1.5825,1.5825,1.5825,1.5825,1.5825,1.5825,1.5825,1.5825,1.5825,1.5825,1.5825,1.5825,1.5825,1.5825,1.5825,1.5825,1.5825,1.5825,1.5825,1.5825,1.5825,1.5825,1.5825,1.5825,1.5825,1.5825,1.5825,1.5825,1.5825,1.5825,1.5825,1.5825,1.5825,1.5825,1.5825,1.5825,1.5825,1.5825,1.5825,1.5825,1.5825,1.5825,1.5825,1.5825,1.5825,1.5825,1.5825,1.5825,1.5825,1.5825,1.5825,1.5825,1.5825,1.5825,1.5825,1.5825,1.5845,1.5852,1.5925,1.5999,1.6112,1.6259,1.6279,1.6246,1.6219,1.5926,1.5853,1.577,1.5825,1.5825,1.5825,1.5825,1.5825,1.5825,1.5825,1.5825,1.5825,1.5825,1.5825,1.5825,1.5825,1.5825,1.5825,1.5825,1.5825,1.5825,1.5825,1.5825,1.5825,1.5825,1.5825,1.5825,1.5825,1.5825,1.5825,1.5825,1.5825,1.5825,1.5825,1.5651,1.5335,1.5524,1.5738,1.5825,1.5825,1.5825,1.5825,1.5825,1.5825,1.5825,1.5825,1.5825,1.5825,1.5825,1.5825,1.5825,1.5825,1.5825,1.5825,1.5825,1.5825,1.5825,1.5825,1.5825,1.5825,1.5825,1.5825,1.5825,1.5825,1.5825,1.5825,1.5825,1.5825,1.5825,1.5825,1.5825,1.5825,1.5825,1.5825,1.5825,1.5825,1.5825,1.5825,1.5825,1.5825,1.5825,1.5825,1.5825,1.5825,1.5825,1.5825,1.5825,1.5825,1.5825,1.5825,1.5825,1.5825,1.5825,1.5825,1.5825,1.5825,1.5825,1.5825,1.5825,1.5825,1.5825,1.5825,1.5825,1.5825,1.5825,1.5832,1.5852,1.5885,1.6005,1.6126,1.6319,1.6526,1.6526,1.6486,1.6268,1.5967,1.5899,1.581,1.5825,1.5825,1.5825,1.5825,1.5825,1.5825,1.5825,1.5825,1.5825,1.5825,1.5825,1.5825,1.5825,1.5825,1.5825,1.5825,1.5825,1.5825,1.5825,1.5825,1.5825,1.5825,1.5825,1.5825,1.5825,1.5825,1.5825,1.5825,1.5825,1.5825,1.5825,1.5651,1.484,1.5224,1.5511,1.5712,1.5818,1.5825,1.5825,1.5825,1.5825,1.5825,1.5825,1.5825,1.5825,1.5825,1.5825,1.5825,1.5825,1.5825,1.5825,1.5825,1.5825,1.5825,1.5825,1.5825,1.5825,1.5825,1.5825,1.5825,1.5825,1.5825,1.5825,1.5825,1.5825,1.5825,1.5825,1.5825,1.5825,1.5825,1.5825,1.5825,1.5825,1.5825,1.5825,1.5825,1.5825,1.5825,1.5825,1.5825,1.5825,1.5825,1.5825,1.5825,1.5825,1.5825,1.5825,1.5825,1.5825,1.5825,1.5825,1.5825,1.5825,1.5825,1.5825,1.5825,1.5825,1.5825,1.5825,1.5825,1.5825,1.5825,1.5825,1.5838,1.5852,1.5932,1.5992,1.6112,1.6552,1.6794,1.6639,1.6319,1.6018,1.5809,1.5836,1.5825,1.5825,1.5825,1.5825,1.5825,1.5825,1.5825,1.5825,1.5825,1.5825,1.5825,1.5825,1.5825,1.5825,1.5825,1.5825,1.5825,1.5825,1.5825,1.5825,1.5825,1.5825,1.5825,1.5825,1.5825,1.5825,1.5825,1.5825,1.5825,1.5825,1.5825,1.5725,1.446,1.4977,1.5284,1.5565,1.5805,1.5825,1.5825,1.5825,1.5825,1.5825,1.5825,1.5825,1.5825,1.5825,1.5825,1.5825,1.5825,1.5825,1.5825,1.5825,1.5825,1.5825,1.5825,1.5825,1.5825,1.5825,1.5825,1.5825,1.5825,1.5825,1.5825,1.5825,1.5825,1.5825,1.5825,1.5825,1.5825,1.5825,1.5825,1.5825,1.5825,1.5825,1.5825,1.5825,1.5825,1.5825,1.5825,1.5825,1.5825,1.5825,1.5825,1.5825,1.5825,1.5825,1.5825,1.5825,1.5825,1.5825,1.5825,1.5825,1.5825,1.5825,1.5825,1.5825,1.5825,1.5825,1.5825,1.5825,1.5825,1.5825,1.5825,1.5832,1.5838,1.5932,1.5979,1.6032,1.6531,1.6975,1.6652,1.6306,1.6082,1.5886,1.5761,1.5845,1.5825,1.5825,1.5825,1.5825,1.5825,1.5825,1.5825,1.5825,1.5825,1.5825,1.5825,1.5825,1.5825,1.5825,1.5825,1.5825,1.5825,1.5825,1.5825,1.5825,1.5825,1.5825,1.5825,1.5825,1.5825,1.5825,1.5825,1.5825,1.5825,1.5825,1.5825,1.4476,1.499,1.5277,1.5558,1.5798,1.5818,1.5825,1.5825,1.5825,1.5825,1.5825,1.5825,1.5825,1.5825,1.5825,1.5825,1.5825,1.5825,1.5825,1.5825,1.5825,1.5825,1.5825,1.5825,1.5825,1.5825,1.5825,1.5825,1.5825,1.5825,1.5825,1.5825,1.5825,1.5825,1.5825,1.5825,1.5825,1.5825,1.5825,1.5825,1.5825,1.5825,1.5825,1.5825,1.5825,1.5825,1.5825,1.5825,1.5825,1.5825,1.5825,1.5825,1.5825,1.5825,1.5825,1.5825,1.5825,1.5825,1.5825,1.5825,1.5825,1.5825,1.5825,1.5825,1.5825,1.5825,1.5825,1.5825,1.5825,1.5825,1.5825,1.5825,1.5852,1.6106,1.6239,1.6326,1.6567,1.6726,1.6632,1.6333,1.5978,1.584,1.579,1.5825,1.5825,1.5825,1.5825,1.5825,1.5825,1.5825,1.5825,1.5825,1.5825,1.5825,1.5825,1.5825,1.5825,1.5825,1.5825,1.5825,1.5825,1.5825,1.5825,1.5825,1.5825,1.5825,1.5825,1.5825,1.5825,1.5825,1.5825,1.5825,1.5825,1.5825,1.5825]},{"header":{"parameterUnit":"m.s-1","parameterCategory":1,"la1":31.0,"la2":29.5877,"lo1":-88.7671,"lo2":-86.6584,"dy":0.0162,"dx":0.0185,"nx":115,"ny":88,"refTime":"2023-08-03T00:00:00:Z","depth":0,"parameterNumber":3,"parameterNumberName":"V-component_of_WINDS"},"data":[0.0,0.0,0.0,0.0,0.0,0.0,0.0,0.0,0.0,0.0,0.0,0.0,0.0,0.0,0.0,0.0,0.0,0.0,0.0,0.0,0.0,0.0,0.0,0.0,0.0,0.0,0.0,0.0,0.0,0.0,0.0,0.0,0.0,0.0,0.0,0.0,0.0,0.0,0.0,0.0,0.0,0.0,0.0,0.0,0.0,0.0,0.0,0.0,0.0,0.0,0.0,0.0,0.0,0.0,0.0,0.0,0.0,0.0,0.0,0.0,0.0,0.0,0.0,0.0,0.0,0.0,0.0,0.0,0.0,0.0,0.0,0.0,0.0,0.0,0.0,0.0,0.0,0.0,0.0,0.0,0.0,0.0,0.0,0.0,0.0,0.0,0.0,0.0,0.0,0.0,0.0,0.0,0.0,0.0,0.0,0.0,0.0,0.0,0.0,0.0,0.0,0.0,0.0,0.0,0.0,0.0,0.0,0.0,0.0,0.0,0.0,0.0,0.0,0.0,0.0,0.0,0.0,0.0,0.0,0.0,0.0,0.0,0.0,0.0,0.0,0.0,0.0,0.0,0.0,0.0,0.0,0.0,0.0,0.0,0.0,0.0,0.0,0.0,0.0,0.0,0.0,0.0,0.0,0.0,0.0,0.0,0.0,0.0,0.0,0.0,0.0,0.0,0.0,0.0,0.0,0.0,0.0,0.0,0.0,0.0,0.0,0.0,0.0,0.0,0.0,0.0,0.0,0.0,0.0,0.0,0.0,0.0,0.0,0.0,0.0,0.0,0.0,0.0,0.0,0.0,0.0,0.0,0.0,0.0,0.0,0.0,0.0,0.0,0.0,0.0,0.0,0.0,0.0,0.0,0.0,0.0,0.0,0.0,0.0,0.0,0.0,0.0,0.0,0.0,0.0,0.0,0.0,0.0,0.0,0.0,0.0,0.0,0.0,0.0,0.0,0.0,0.0,0.0,0.0,0.0,0.0,0.0,0.0,0.0,0.0,0.0,0.0,0.0,0.0,0.0,0.0,0.0,0.0,0.0,0.0,0.0,0.0,0.0,0.0,0.0,0.0,0.0,0.0,0.0,0.0,0.0,0.0,0.0,0.0,0.0,0.0,0.0,0.0,0.0,0.0,0.0,0.0,0.0,0.0,0.0,0.0,0.0,0.0,0.0,0.0,0.0,0.0,0.0,0.0,0.0,0.0,0.0,0.0,0.0,0.0,0.0,0.0,0.0,0.0,0.0,0.0,0.0,0.0,0.0,0.0,0.0,0.0,0.0,0.0,0.0,0.0,0.0,0.0,0.0,0.0,0.0,0.0,0.0,0.0,0.0,0.0,0.0,0.0,0.0,0.0,0.0,0.0,0.0,0.0,0.0,0.0,0.0,0.0,0.0,0.0,0.0,0.0,0.0,0.0,0.0,0.0,0.0,0.0,0.0,0.0,0.0,0.0,0.0,0.0,0.0,0.0,0.0,0.0,0.0,0.0,0.0,0.0,0.0,0.0,0.0,0.0,0.0,0.0,0.0,0.0,0.0,0.0,0.0,0.0,0.0,0.0,0.0,0.0,0.0,0.0,0.0,0.0,0.0,0.0,0.0,0.0,0.0,0.0,0.0,0.0,0.0,0.0,0.0,0.0,0.0,0.0,0.0,0.0,0.0,0.0,0.0,0.0,0.0,0.0,0.0,0.0,0.0,0.0,0.0,0.0,0.0,0.0,0.0,0.0,0.0,0.0,0.0,0.0,0.0,0.0,0.0,0.0,0.0,0.0,0.0,0.0,0.0,0.0,0.0,0.0,0.0,0.0,0.0,0.0,0.0,0.0,0.0,0.0,0.0,0.0,0.0,0.0,0.0,0.0,0.0,0.0,0.0,0.0,0.0,0.0,0.0,0.0,0.0,0.0,0.0,0.0,0.0,0.0,0.0,0.0,0.0,0.0,0.0,0.0,0.0,0.0,0.0,0.0,0.0,0.0,0.0,0.0,0.0,0.0,0.0,0.0,0.0,0.0,0.0,0.0,0.0,0.0,0.0,0.0,0.0,0.0,0.0,0.0,0.0,0.0,0.0,0.0,0.0,0.0,0.0,0.0,0.0,0.0,0.0,0.0,0.0,0.0,0.0,0.0,0.0,0.0,0.0,0.0,0.0,0.0,0.0,0.0,0.0,0.0,0.0,0.0,0.0,0.0,0.0,0.0,0.0,0.0,0.0,0.0,0.0,0.0,0.0,0.0,0.0,0.0,0.0,0.0,0.0,0.0,0.0,0.0,0.0,0.0,0.0,0.0,0.0,0.0,0.0,0.0,0.0,0.0,0.0,0.0,0.0,0.0,0.0,0.0,0.0,0.0,0.0,0.0,0.0,0.0,0.0,0.0,0.0,0.0,0.0,0.0,0.0,0.0,0.0,0.0,0.0,0.0,0.0,0.0,0.0,0.0,0.0,0.0,0.0,0.0,0.0,0.0,0.0,0.0,0.0,0.0,0.0,0.0,0.0,0.0,0.0,0.0,0.0,0.0,0.0,0.0,0.0,0.0,0.0,0.0,0.0,0.0,0.0,0.0,0.0,0.0,0.0,0.0,0.0,0.0,0.0,0.0,0.0,0.0,0.0,0.0,0.0,0.0,0.0,0.0,0.0,0.0,0.0,0.0,0.0,0.0,0.0,0.0,0.0,0.0,0.0,0.0,0.0,0.0,0.0,0.0,0.0,0.0,0.0,0.0,0.0,0.0,0.0,0.0,0.0,0.0,0.0,0.0,0.0,0.0,0.0,0.0,0.0,0.0,0.0,0.0,0.0,0.0,0.0,0.0,0.0,0.0,0.0,0.0,0.0,0.0,0.0,0.0,0.0,0.0,0.0,0.0,0.0,0.0,0.0,0.0,0.0,0.0,0.0,0.0,0.0,0.0,0.0,0.0,0.0,0.0,0.0,0.0,0.0,0.0,0.0,0.0,0.0,0.0,0.0,0.0,0.0,0.0,0.0,0.0,0.0,0.0,0.0,0.0,0.0,0.0,0.0,0.0,0.0,0.0,0.0,0.0,0.0,0.0,0.0,0.0,0.0,0.0,0.0,0.0,0.0,0.0,0.0,0.0,0.0,0.0,0.0,0.0,0.0,0.0,0.0,0.0,0.0,0.0,0.0,0.0,0.0,0.0,0.0,0.0,0.0,0.0,0.0,0.0,0.0,0.0,0.0,0.0,0.0,0.0,0.0,0.0,0.0,0.0,0.0,0.0,0.0,0.0,0.0,0.0,0.0,0.0,0.0,0.0,0.0,0.0,0.0,0.0,0.0,0.0,0.0,0.0,0.0,0.0,0.0,0.0,0.0,0.0,0.0,0.0,0.0,0.0,0.0,0.0,0.0,0.0,0.0,0.0,0.0,0.0,0.0,0.0,0.0,0.0,0.0,0.0,0.0,0.0,0.0,0.0,0.0,0.0,0.0,0.0,0.0,0.0,0.0,0.0,0.0,0.0,0.0,0.0,0.0,0.0,0.0,0.0,0.0,0.0,0.0,0.0,0.0,0.0,0.0,0.0,0.0,0.0,0.0,0.0,0.0,0.0,0.0,0.0,0.0,0.0,0.0,0.0,0.0,0.0,0.0,0.0,0.0,0.0,0.0,0.0,0.0,0.0,0.0,0.0,0.0,0.0,0.0,0.0,0.0,0.0,0.0,0.0,0.0,0.0,0.0,0.0,0.0,0.0,0.0,0.0,0.0,0.0,0.0,0.0,0.0,0.0,0.0,0.0,0.0,0.0,0.0,0.0,0.0,0.0,0.0,0.0,0.0,0.0,0.0,0.0,0.0,0.0,0.0,0.0,0.0,0.0,0.0,0.0,0.0,0.0,0.0,0.0,0.0,0.0,0.0,0.0,0.0,0.0,0.0,0.0,0.0,0.0,0.0,0.0,0.0,0.0,0.0,0.0,0.0,0.0,0.0,0.0,0.0,0.0,0.0,0.0,0.0,0.0,0.0,0.0,0.0,0.0,0.0,0.0,0.0,0.0,0.0,0.0,0.0,0.0,0.0,0.0,0.0,0.0,0.0,0.0,0.0,0.0,0.0,0.0,0.0,0.0,0.0,0.0,0.0,0.0,0.0,0.0,0.0,0.0,0.0,0.0,0.0,0.0,0.0,0.0,0.0,0.0,0.0,0.0,0.0,0.0,0.0,0.0,0.0,0.0,0.0,0.0,0.0,0.0,0.0,0.0,0.0,0.0,0.0,0.0,0.0,0.0,0.0,0.0,0.0,0.0,0.0,0.0,0.0,0.0,0.0,0.0,0.0,-2.7244,0.0,0.0,0.0,0.0,0.0,0.0,0.0,0.0,0.0,0.0,0.0,0.0,0.0,0.0,0.0,0.0,0.0,0.0,0.0,0.0,0.0,0.0,0.0,0.0,0.0,0.0,0.0,0.0,0.0,0.0,0.0,0.0,0.0,0.0,0.0,0.0,0.0,0.0,0.0,0.0,0.0,0.0,0.0,0.0,0.0,0.0,0.0,0.0,0.0,0.0,0.0,0.0,0.0,0.0,0.0,0.0,0.0,0.0,0.0,0.0,0.0,0.0,0.0,0.0,0.0,0.0,0.0,0.0,0.0,0.0,0.0,0.0,0.0,0.0,0.0,0.0,0.0,0.0,0.0,0.0,0.0,0.0,0.0,0.0,0.0,0.0,0.0,0.0,0.0,0.0,0.0,0.0,0.0,0.0,0.0,0.0,0.0,0.0,0.0,0.0,0.0,0.0,0.0,0.0,0.0,0.0,0.0,0.0,0.0,0.0,-2.8061,-2.7249,-2.7604,-2.7657,-2.7338,0.0,0.0,0.0,0.0,0.0,0.0,0.0,0.0,0.0,0.0,0.0,0.0,0.0,0.0,0.0,0.0,0.0,0.0,0.0,0.0,0.0,0.0,0.0,0.0,0.0,0.0,0.0,0.0,0.0,0.0,0.0,0.0,0.0,0.0,0.0,0.0,0.0,0.0,0.0,0.0,0.0,0.0,0.0,0.0,0.0,0.0,0.0,0.0,0.0,0.0,0.0,0.0,0.0,0.0,0.0,0.0,0.0,0.0,0.0,0.0,0.0,0.0,0.0,0.0,0.0,0.0,0.0,0.0,0.0,0.0,0.0,0.0,0.0,0.0,0.0,0.0,0.0,0.0,0.0,0.0,0.0,0.0,0.0,0.0,0.0,0.0,0.0,0.0,0.0,0.0,0.0,0.0,0.0,0.0,0.0,0.0,0.0,0.0,0.0,0.0,0.0,0.0,0.0,0.0,0.0,0.0,0.0,0.0,0.0,0.0,0.0,0.0,-2.7606,-2.7909,-2.7822,0.0,0.0,0.0,0.0,0.0,0.0,0.0,0.0,0.0,0.0,0.0,0.0,0.0,0.0,0.0,0.0,0.0,0.0,0.0,0.0,0.0,0.0,0.0,0.0,0.0,0.0,0.0,0.0,0.0,0.0,0.0,0.0,0.0,0.0,0.0,0.0,0.0,0.0,0.0,0.0,0.0,0.0,0.0,0.0,0.0,0.0,0.0,0.0,0.0,0.0,0.0,0.0,0.0,0.0,0.0,0.0,0.0,0.0,0.0,0.0,0.0,0.0,0.0,0.0,0.0,0.0,0.0,0.0,0.0,0.0,0.0,0.0,0.0,0.0,0.0,0.0,0.0,0.0,0.0,0.0,0.0,0.0,0.0,0.0,0.0,0.0,0.0,0.0,0.0,0.0,0.0,0.0,0.0,0.0,0.0,0.0,0.0,0.0,0.0,0.0,0.0,0.0,0.0,0.0,0.0,0.0,0.0,0.0,0.0,0.0,-2.7165,-2.7706,-2.8183,0.0,-2.9323,0.0,0.0,0.0,0.0,0.0,0.0,0.0,0.0,0.0,0.0,0.0,0.0,0.0,0.0,0.0,0.0,0.0,0.0,0.0,0.0,0.0,0.0,0.0,0.0,0.0,0.0,0.0,0.0,0.0,0.0,0.0,0.0,0.0,0.0,0.0,0.0,0.0,0.0,0.0,0.0,0.0,0.0,0.0,0.0,0.0,0.0,0.0,0.0,0.0,0.0,0.0,0.0,0.0,0.0,0.0,0.0,0.0,0.0,0.0,0.0,0.0,0.0,0.0,0.0,0.0,0.0,0.0,0.0,0.0,0.0,0.0,0.0,0.0,0.0,0.0,0.0,0.0,0.0,0.0,0.0,0.0,0.0,0.0,0.0,0.0,0.0,0.0,0.0,0.0,0.0,0.0,0.0,0.0,0.0,0.0,0.0,0.0,0.0,0.0,0.0,0.0,0.0,0.0,0.0,0.0,0.0,0.0,0.0,0.0,0.0,-2.7046,-2.7807,-2.8462,-2.88,0.0,0.0,0.0,0.0,0.0,0.0,0.0,0.0,0.0,0.0,0.0,0.0,0.0,0.0,0.0,0.0,0.0,0.0,0.0,0.0,0.0,0.0,0.0,0.0,0.0,0.0,0.0,0.0,0.0,0.0,0.0,0.0,0.0,0.0,0.0,0.0,0.0,0.0,0.0,0.0,0.0,0.0,0.0,0.0,0.0,0.0,0.0,0.0,0.0,0.0,0.0,0.0,0.0,0.0,0.0,0.0,0.0,0.0,0.0,0.0,0.0,0.0,0.0,0.0,0.0,0.0,0.0,0.0,0.0,0.0,0.0,0.0,0.0,0.0,0.0,0.0,0.0,0.0,0.0,0.0,0.0,0.0,0.0,0.0,0.0,0.0,0.0,0.0,0.0,0.0,0.0,0.0,0.0,0.0,0.0,0.0,0.0,0.0,0.0,0.0,0.0,0.0,0.0,0.0,0.0,0.0,0.0,0.0,0.0,0.0,-2.7114,-2.7454,-2.839,-2.8684,-2.8846,-2.8891,0.0,0.0,0.0,0.0,0.0,0.0,0.0,0.0,0.0,0.0,0.0,0.0,0.0,0.0,0.0,0.0,0.0,0.0,0.0,0.0,0.0,0.0,0.0,0.0,0.0,0.0,0.0,0.0,0.0,0.0,0.0,0.0,0.0,0.0,0.0,0.0,0.0,0.0,0.0,0.0,0.0,0.0,0.0,0.0,0.0,0.0,0.0,0.0,0.0,0.0,0.0,0.0,0.0,0.0,0.0,0.0,0.0,0.0,0.0,0.0,0.0,0.0,0.0,0.0,0.0,0.0,0.0,0.0,0.0,0.0,0.0,0.0,0.0,0.0,0.0,0.0,0.0,0.0,0.0,0.0,0.0,0.0,0.0,0.0,0.0,0.0,0.0,0.0,0.0,0.0,0.0,0.0,0.0,0.0,0.0,0.0,0.0,0.0,0.0,0.0,0.0,0.0,0.0,0.0,0.0,0.0,0.0,0.0,-2.8721,-2.8112,-2.8476,-2.9929,-2.9007,-2.8964,0.0,0.0,0.0,0.0,0.0,0.0,0.0,0.0,0.0,0.0,0.0,0.0,0.0,0.0,0.0,0.0,0.0,0.0,0.0,0.0,0.0,0.0,0.0,0.0,0.0,0.0,0.0,0.0,0.0,0.0,0.0,0.0,0.0,0.0,0.0,0.0,0.0,0.0,0.0,0.0,0.0,0.0,0.0,0.0,0.0,0.0,0.0,0.0,0.0,0.0,0.0,0.0,0.0,0.0,0.0,0.0,0.0,0.0,0.0,0.0,0.0,0.0,0.0,0.0,0.0,0.0,0.0,0.0,0.0,0.0,0.0,0.0,0.0,0.0,0.0,0.0,0.0,0.0,0.0,0.0,0.0,0.0,0.0,0.0,0.0,0.0,0.0,0.0,0.0,0.0,0.0,0.0,0.0,0.0,0.0,0.0,0.0,0.0,0.0,0.0,0.0,0.0,0.0,0.0,0.0,0.0,0.0,0.0,0.0,-2.681,-2.6753,-2.7113,-2.7986,-2.8228,-2.8667,0.0,0.0,0.0,0.0,0.0,0.0,0.0,0.0,0.0,0.0,0.0,0.0,0.0,0.0,0.0,0.0,0.0,0.0,0.0,0.0,0.0,0.0,0.0,0.0,0.0,0.0,0.0,0.0,0.0,0.0,0.0,0.0,0.0,0.0,0.0,0.0,0.0,0.0,0.0,0.0,0.0,0.0,0.0,0.0,0.0,0.0,0.0,0.0,0.0,0.0,0.0,0.0,0.0,0.0,0.0,0.0,0.0,0.0,0.0,0.0,0.0,0.0,0.0,0.0,0.0,0.0,0.0,0.0,0.0,0.0,0.0,0.0,0.0,0.0,0.0,0.0,0.0,0.0,0.0,0.0,0.0,0.0,0.0,0.0,0.0,0.0,0.0,0.0,0.0,0.0,0.0,0.0,0.0,0.0,0.0,0.0,0.0,0.0,0.0,0.0,0.0,0.0,0.0,0.0,0.0,0.0,0.0,0.0,0.0,-2.619,0.0,-2.7254,-2.7282,-2.7846,-2.83,0.0,0.0,0.0,0.0,0.0,0.0,0.0,0.0,0.0,0.0,0.0,0.0,0.0,0.0,0.0,0.0,0.0,0.0,0.0,0.0,0.0,0.0,0.0,0.0,0.0,0.0,0.0,0.0,0.0,0.0,0.0,0.0,0.0,0.0,0.0,0.0,0.0,0.0,0.0,0.0,0.0,0.0,0.0,0.0,0.0,0.0,0.0,0.0,0.0,0.0,0.0,0.0,0.0,0.0,0.0,0.0,0.0,0.0,0.0,0.0,0.0,0.0,0.0,0.0,0.0,0.0,0.0,0.0,0.0,0.0,0.0,0.0,0.0,0.0,0.0,0.0,0.0,0.0,0.0,0.0,0.0,0.0,0.0,0.0,0.0,0.0,0.0,0.0,0.0,0.0,0.0,0.0,0.0,0.0,0.0,0.0,0.0,0.0,0.0,0.0,0.0,0.0,0.0,0.0,0.0,0.0,0.0,0.0,-2.6156,-2.7199,-2.8642,-2.8892,-2.8288,-2.7947,-2.7824,0.0,0.0,0.0,0.0,0.0,0.0,0.0,0.0,0.0,0.0,0.0,0.0,0.0,0.0,0.0,0.0,0.0,0.0,0.0,0.0,0.0,0.0,0.0,0.0,0.0,0.0,0.0,0.0,0.0,0.0,0.0,0.0,0.0,0.0,0.0,0.0,0.0,0.0,0.0,0.0,0.0,0.0,0.0,0.0,0.0,0.0,0.0,0.0,0.0,0.0,0.0,0.0,0.0,0.0,0.0,0.0,0.0,0.0,0.0,0.0,0.0,0.0,0.0,0.0,0.0,0.0,0.0,0.0,0.0,0.0,0.0,0.0,0.0,0.0,0.0,0.0,0.0,0.0,0.0,0.0,0.0,0.0,0.0,0.0,0.0,0.0,0.0,0.0,0.0,0.0,0.0,0.0,0.0,0.0,0.0,0.0,0.0,0.0,0.0,0.0,0.0,0.0,0.0,0.0,0.0,0.0,0.0,0.0,0.0,-2.5314,-2.6501,-2.7049,-2.6796,-2.7447,-2.8044,0.0,0.0,0.0,0.0,0.0,0.0,0.0,0.0,0.0,0.0,0.0,0.0,0.0,0.0,0.0,0.0,0.0,0.0,0.0,0.0,0.0,0.0,0.0,0.0,0.0,0.0,0.0,0.0,0.0,0.0,0.0,0.0,0.0,0.0,0.0,0.0,0.0,0.0,0.0,0.0,0.0,0.0,0.0,0.0,0.0,0.0,0.0,0.0,0.0,0.0,0.0,0.0,0.0,0.0,0.0,0.0,0.0,0.0,0.0,0.0,0.0,0.0,0.0,0.0,0.0,0.0,0.0,0.0,0.0,0.0,0.0,0.0,0.0,0.0,0.0,0.0,0.0,0.0,0.0,0.0,0.0,0.0,0.0,0.0,0.0,0.0,0.0,0.0,0.0,0.0,0.0,0.0,0.0,0.0,0.0,0.0,0.0,0.0,0.0,0.0,0.0,0.0,0.0,0.0,0.0,0.0,0.0,0.0,0.0,-2.5763,-2.6633,-2.7045,-2.6736,-2.7423,-2.8044,-2.8521,0.0,0.0,0.0,0.0,0.0,0.0,0.0,0.0,0.0,0.0,0.0,0.0,0.0,0.0,0.0,0.0,0.0,0.0,0.0,0.0,0.0,0.0,0.0,0.0,0.0,0.0,0.0,0.0,0.0,0.0,0.0,0.0,0.0,0.0,0.0,0.0,0.0,0.0,0.0,0.0,0.0,0.0,0.0,0.0,0.0,0.0,0.0,0.0,0.0,0.0,0.0,0.0,0.0,0.0,0.0,0.0,0.0,0.0,0.0,0.0,0.0,0.0,0.0,0.0,0.0,0.0,0.0,0.0,0.0,0.0,0.0,0.0,0.0,0.0,0.0,0.0,0.0,0.0,0.0,0.0,0.0,0.0,0.0,0.0,0.0,0.0,0.0,0.0,0.0,0.0,0.0,0.0,0.0,0.0,0.0,0.0,0.0,0.0,0.0,0.0,0.0,0.0,0.0,0.0,0.0,0.0,0.0,0.0,-2.7939,-2.8709,-2.87,-2.7879,-2.786,-2.786,0.0,0.0,0.0,0.0,0.0,0.0,0.0,0.0,0.0,0.0,0.0,0.0,0.0,0.0,0.0,0.0,0.0,0.0,0.0,0.0,0.0,0.0,0.0,0.0,0.0,0.0,0.0,0.0,0.0,0.0,0.0,0.0,0.0,0.0,0.0,0.0,0.0,0.0,0.0,0.0,0.0,0.0,0.0,0.0,0.0,0.0,0.0,0.0,0.0,0.0,0.0,0.0,0.0,0.0,0.0,0.0,0.0,0.0,0.0,0.0,0.0,0.0,0.0,0.0,0.0,0.0,0.0,0.0,0.0,0.0,0.0,0.0,0.0,0.0,0.0,0.0,0.0,0.0,0.0,0.0,0.0,0.0,0.0,0.0,0.0,0.0,0.0,0.0,0.0,0.0,0.0,0.0,0.0,0.0,0.0,0.0,0.0,0.0,0.0,0.0,0.0,0.0,0.0,0.0,0.0,0.0,0.0,0.0,0.0,-2.9588,-3.0351,-3.0118,-2.876,-2.8686,-2.8705,0.0,0.0,0.0,0.0,0.0,0.0,0.0,0.0,0.0,0.0,0.0,0.0,0.0,0.0,0.0,0.0,0.0,0.0,0.0,0.0,0.0,0.0,0.0,0.0,0.0,0.0,0.0,0.0,0.0,0.0,0.0,0.0,0.0,0.0,0.0,0.0,0.0,0.0,0.0,0.0,0.0,0.0,0.0,0.0,0.0,0.0,0.0,0.0,0.0,0.0,0.0,0.0,0.0,0.0,0.0,0.0,0.0,0.0,0.0,0.0,0.0,0.0,0.0,0.0,0.0,0.0,0.0,0.0,0.0,0.0,0.0,0.0,0.0,0.0,0.0,0.0,0.0,0.0,0.0,0.0,0.0,0.0,0.0,0.0,0.0,0.0,0.0,0.0,0.0,0.0,0.0,0.0,0.0,0.0,0.0,0.0,0.0,0.0,0.0,0.0,0.0,0.0,0.0,0.0,0.0,0.0,0.0,0.0,-3.0363,-3.0702,-3.1151,-3.1109,-3.0516,-3.0191,-2.9696,0.0,0.0,0.0,0.0,0.0,0.0,0.0,0.0,0.0,0.0,0.0,0.0,0.0,0.0,0.0,0.0,0.0,0.0,0.0,0.0,0.0,0.0,0.0,0.0,0.0,0.0,0.0,0.0,0.0,0.0,0.0,0.0,0.0,0.0,0.0,0.0,0.0,0.0,0.0,0.0,0.0,0.0,0.0,0.0,0.0,0.0,0.0,0.0,0.0,0.0,0.0,0.0,0.0,0.0,0.0,0.0,0.0,0.0,0.0,0.0,0.0,0.0,0.0,0.0,0.0,0.0,0.0,0.0,0.0,0.0,0.0,0.0,0.0,0.0,0.0,0.0,0.0,0.0,0.0,0.0,0.0,0.0,0.0,0.0,0.0,0.0,0.0,0.0,0.0,0.0,0.0,0.0,0.0,0.0,0.0,0.0,0.0,0.0,0.0,0.0,0.0,0.0,0.0,0.0,0.0,0.0,0.0,0.0,-3.0698,-3.151,-3.1594,-3.1935,-3.2559,-3.1733,-3.0595,0.0,0.0,0.0,0.0,0.0,0.0,0.0,0.0,0.0,0.0,0.0,0.0,0.0,0.0,0.0,0.0,0.0,0.0,0.0,0.0,0.0,0.0,0.0,0.0,0.0,0.0,0.0,0.0,0.0,0.0,0.0,0.0,0.0,0.0,0.0,0.0,0.0,0.0,0.0,0.0,0.0,0.0,0.0,0.0,0.0,0.0,0.0,0.0,0.0,0.0,0.0,0.0,0.0,0.0,0.0,0.0,0.0,0.0,0.0,0.0,0.0,0.0,0.0,0.0,0.0,0.0,0.0,0.0,0.0,0.0,0.0,0.0,0.0,0.0,0.0,0.0,0.0,0.0,0.0,0.0,0.0,0.0,0.0,0.0,0.0,0.0,0.0,0.0,0.0,0.0,0.0,0.0,0.0,0.0,0.0,0.0,0.0,0.0,0.0,0.0,0.0,0.0,0.0,0.0,0.0,0.0,0.0,0.0,-3.1536,-3.2346,-3.2965,-3.3073,-3.2614,-3.1201,-3.0301,0.0,0.0,0.0,0.0,0.0,0.0,0.0,0.0,0.0,0.0,0.0,0.0,0.0,0.0,0.0,0.0,0.0,0.0,0.0,0.0,0.0,0.0,0.0,0.0,0.0,0.0,0.0,0.0,0.0,0.0,0.0,0.0,0.0,0.0,0.0,0.0,0.0,0.0,0.0,0.0,0.0,0.0,0.0,0.0,0.0,0.0,0.0,0.0,-3.0546,0.0,0.0,0.0,0.0,0.0,0.0,0.0,0.0,0.0,0.0,0.0,0.0,0.0,0.0,0.0,0.0,0.0,0.0,0.0,0.0,0.0,0.0,0.0,0.0,0.0,0.0,0.0,0.0,0.0,0.0,0.0,0.0,0.0,0.0,0.0,0.0,0.0,0.0,0.0,0.0,0.0,0.0,0.0,0.0,0.0,0.0,0.0,0.0,0.0,0.0,0.0,0.0,0.0,0.0,0.0,0.0,0.0,0.0,0.0,-3.1799,-3.2592,-3.3368,-3.3587,-3.3128,-3.1604,-3.0577,0.0,0.0,0.0,0.0,0.0,0.0,0.0,0.0,0.0,0.0,0.0,0.0,0.0,0.0,0.0,0.0,0.0,0.0,0.0,0.0,0.0,0.0,0.0,0.0,0.0,0.0,0.0,0.0,0.0,0.0,0.0,0.0,0.0,0.0,0.0,0.0,0.0,0.0,0.0,0.0,0.0,0.0,0.0,0.0,0.0,0.0,0.0,0.0,0.0,0.0,0.0,0.0,0.0,0.0,0.0,0.0,0.0,0.0,0.0,0.0,0.0,0.0,0.0,0.0,0.0,0.0,0.0,0.0,0.0,0.0,0.0,0.0,0.0,0.0,0.0,0.0,0.0,0.0,0.0,0.0,0.0,0.0,0.0,0.0,0.0,0.0,0.0,0.0,0.0,0.0,0.0,0.0,0.0,0.0,0.0,0.0,0.0,0.0,0.0,0.0,0.0,0.0,0.0,0.0,0.0,0.0,0.0,-3.0595,-3.1744,-3.2765,-3.3468,-3.3807,-3.3788,-3.2228,-3.1072,-3.0411,0.0,0.0,0.0,0.0,0.0,0.0,0.0,0.0,0.0,0.0,0.0,0.0,0.0,0.0,0.0,0.0,0.0,0.0,0.0,0.0,0.0,0.0,0.0,0.0,0.0,0.0,0.0,0.0,0.0,0.0,0.0,0.0,0.0,0.0,0.0,0.0,0.0,0.0,-3.0393,-3.1072,0.0,0.0,0.0,0.0,0.0,0.0,0.0,0.0,-3.071,0.0,0.0,0.0,0.0,0.0,0.0,0.0,0.0,0.0,0.0,0.0,0.0,0.0,0.0,0.0,0.0,0.0,0.0,0.0,0.0,0.0,0.0,0.0,0.0,0.0,0.0,0.0,0.0,0.0,0.0,0.0,0.0,0.0,0.0,0.0,0.0,0.0,0.0,0.0,0.0,0.0,0.0,0.0,0.0,0.0,0.0,0.0,0.0,0.0,0.0,0.0,0.0,0.0,0.0,0.0,0.0,-3.0962,-3.0595,-3.1458,-3.3542,-3.3733,-3.3807,-3.377,-3.2247,-3.1329,-3.1146,0.0,0.0,0.0,0.0,0.0,0.0,0.0,0.0,0.0,0.0,0.0,0.0,0.0,0.0,0.0,0.0,0.0,0.0,0.0,0.0,0.0,0.0,0.0,0.0,0.0,0.0,0.0,0.0,0.0,0.0,0.0,0.0,0.0,0.0,0.0,0.0,0.0,0.0,0.0,-3.1898,-3.2467,0.0,0.0,0.0,0.0,0.0,0.0,0.0,0.0,-3.1186,0.0,0.0,0.0,0.0,0.0,0.0,0.0,0.0,0.0,0.0,0.0,0.0,0.0,0.0,0.0,0.0,0.0,0.0,0.0,0.0,0.0,0.0,0.0,0.0,0.0,0.0,0.0,0.0,0.0,0.0,0.0,0.0,0.0,0.0,0.0,0.0,0.0,0.0,0.0,0.0,0.0,0.0,0.0,0.0,0.0,0.0,0.0,0.0,0.0,0.0,0.0,0.0,0.0,0.0,0.0,-3.0043,-3.0599,-3.1788,-3.3733,-3.3807,-3.3807,-3.377,-3.2228,-3.1403,0.0,0.0,0.0,0.0,0.0,0.0,0.0,0.0,0.0,0.0,0.0,0.0,0.0,0.0,0.0,0.0,0.0,0.0,0.0,0.0,0.0,0.0,0.0,0.0,0.0,0.0,0.0,0.0,0.0,0.0,0.0,0.0,0.0,0.0,0.0,0.0,0.0,0.0,0.0,0.0,-3.21,-3.2614,-3.2614,0.0,0.0,0.0,0.0,0.0,0.0,-3.19,-3.1977,0.0,0.0,0.0,0.0,0.0,0.0,0.0,0.0,0.0,0.0,0.0,0.0,0.0,0.0,0.0,0.0,0.0,0.0,0.0,0.0,0.0,0.0,0.0,0.0,0.0,0.0,0.0,0.0,0.0,0.0,0.0,0.0,0.0,0.0,0.0,0.0,0.0,0.0,0.0,0.0,0.0,0.0,0.0,0.0,0.0,0.0,0.0,0.0,0.0,0.0,0.0,0.0,0.0,0.0,0.0,-2.8967,-3.0411,-3.2008,-3.3715,-3.3807,-3.3715,-3.355,-3.2137,-3.1311,0.0,0.0,0.0,0.0,0.0,0.0,0.0,0.0,0.0,0.0,0.0,0.0,0.0,0.0,0.0,0.0,0.0,0.0,0.0,0.0,0.0,0.0,0.0,0.0,0.0,0.0,0.0,0.0,0.0,0.0,0.0,0.0,0.0,0.0,0.0,0.0,0.0,0.0,0.0,0.0,0.0,-3.2779,-3.2632,-3.3164,0.0,0.0,0.0,0.0,-3.277,-3.2999,0.0,0.0,0.0,0.0,0.0,0.0,0.0,0.0,0.0,0.0,0.0,0.0,0.0,0.0,0.0,0.0,0.0,0.0,0.0,0.0,0.0,0.0,0.0,0.0,0.0,0.0,0.0,0.0,0.0,0.0,0.0,0.0,0.0,0.0,0.0,0.0,0.0,0.0,0.0,0.0,0.0,0.0,0.0,0.0,0.0,0.0,0.0,0.0,0.0,0.0,0.0,0.0,0.0,0.0,0.0,0.0,-2.8934,-2.9881,-3.1458,-3.366,-3.3807,-3.3458,-3.2761,-3.1861,-3.1054,0.0,0.0,0.0,0.0,0.0,0.0,0.0,0.0,0.0,0.0,0.0,0.0,0.0,0.0,0.0,0.0,0.0,0.0,0.0,0.0,0.0,0.0,0.0,0.0,0.0,0.0,0.0,0.0,0.0,0.0,0.0,0.0,0.0,0.0,0.0,0.0,0.0,0.0,0.0,0.0,0.0,-3.3403,-3.2706,-3.2661,-3.3048,0.0,0.0,-3.2883,-3.4503,-3.5002,0.0,0.0,0.0,0.0,0.0,0.0,0.0,0.0,0.0,0.0,0.0,0.0,0.0,0.0,0.0,0.0,0.0,0.0,0.0,0.0,0.0,0.0,0.0,0.0,0.0,0.0,0.0,0.0,0.0,0.0,0.0,0.0,0.0,0.0,0.0,0.0,0.0,0.0,0.0,0.0,0.0,0.0,0.0,0.0,0.0,0.0,0.0,0.0,0.0,0.0,0.0,0.0,0.0,0.0,0.0,-2.7046,-2.8966,-3.0249,-3.1825,-3.3715,-3.3807,-3.3421,-3.2632,-3.1825,-3.1017,0.0,0.0,0.0,0.0,0.0,0.0,0.0,0.0,0.0,0.0,0.0,0.0,0.0,0.0,0.0,0.0,0.0,0.0,0.0,0.0,0.0,0.0,0.0,0.0,0.0,0.0,0.0,0.0,0.0,0.0,0.0,0.0,0.0,0.0,0.0,0.0,0.0,0.0,0.0,0.0,0.0,0.0,-3.3482,-3.3669,0.0,0.0,0.0,-3.4148,-3.4973,0.0,0.0,0.0,0.0,0.0,0.0,0.0,0.0,0.0,0.0,0.0,0.0,0.0,0.0,0.0,0.0,0.0,0.0,0.0,0.0,0.0,0.0,0.0,0.0,0.0,0.0,0.0,0.0,0.0,0.0,0.0,0.0,0.0,0.0,0.0,0.0,0.0,0.0,0.0,0.0,0.0,0.0,0.0,0.0,0.0,0.0,0.0,0.0,0.0,0.0,0.0,0.0,0.0,0.0,0.0,0.0,0.0,-2.8987,-3.0581,-3.2192,-3.3715,-3.3605,-3.3109,-3.232,-3.1513,0.0,0.0,0.0,0.0,0.0,0.0,0.0,0.0,0.0,0.0,0.0,0.0,0.0,0.0,0.0,0.0,0.0,0.0,0.0,0.0,0.0,0.0,0.0,0.0,0.0,0.0,0.0,-3.0173,0.0,0.0,0.0,0.0,0.0,0.0,0.0,0.0,0.0,0.0,0.0,0.0,0.0,0.0,-3.3873,-3.4539,-3.4833,-3.5092,0.0,0.0,-3.5434,-3.5496,-3.5863,-3.5982,0.0,0.0,0.0,0.0,0.0,0.0,0.0,0.0,0.0,0.0,0.0,0.0,0.0,0.0,0.0,0.0,0.0,0.0,0.0,0.0,0.0,0.0,0.0,0.0,0.0,0.0,0.0,0.0,0.0,0.0,0.0,0.0,0.0,0.0,0.0,0.0,0.0,0.0,0.0,0.0,0.0,0.0,0.0,0.0,0.0,0.0,0.0,0.0,0.0,0.0,0.0,0.0,0.0,0.0,0.0,-2.8966,-3.0581,-3.2173,-3.3715,-3.3073,-3.2302,-3.1513,-3.0687,-2.9916,0.0,0.0,0.0,0.0,0.0,0.0,0.0,0.0,0.0,0.0,0.0,0.0,0.0,0.0,0.0,0.0,0.0,0.0,0.0,0.0,0.0,0.0,0.0,0.0,0.0,0.0,0.0,0.0,0.0,0.0,0.0,0.0,0.0,0.0,0.0,0.0,0.0,0.0,0.0,0.0,0.0,-3.5423,-3.5727,-3.5809,-3.6195,0.0,0.0,-3.6303,-3.6546,-3.7286,-3.7299,-3.5738,0.0,0.0,0.0,0.0,0.0,0.0,0.0,0.0,0.0,0.0,0.0,0.0,0.0,0.0,0.0,0.0,0.0,0.0,0.0,0.0,0.0,0.0,0.0,0.0,0.0,0.0,0.0,0.0,0.0,0.0,0.0,0.0,0.0,0.0,0.0,0.0,0.0,0.0,0.0,0.0,0.0,0.0,0.0,0.0,0.0,0.0,0.0,0.0,0.0,0.0,0.0,0.0,0.0,-2.7638,-2.9718,-3.0825,-3.1967,-3.2985,-3.275,-3.199,-3.0705,-3.0356,-2.9824,0.0,0.0,0.0,0.0,0.0,0.0,0.0,0.0,0.0,0.0,0.0,0.0,0.0,0.0,0.0,0.0,0.0,0.0,0.0,0.0,0.0,0.0,0.0,0.0,0.0,0.0,0.0,0.0,-3.2614,-3.2926,-3.3715,0.0,0.0,0.0,0.0,0.0,0.0,0.0,0.0,0.0,0.0,-3.5666,-3.6768,-3.7086,0.0,0.0,-3.7233,-3.7018,-3.6108,-3.667,-3.6804,-3.5699,-3.5743,0.0,0.0,0.0,0.0,0.0,0.0,0.0,0.0,0.0,0.0,0.0,0.0,0.0,0.0,0.0,0.0,0.0,0.0,0.0,0.0,0.0,0.0,0.0,0.0,0.0,0.0,0.0,0.0,0.0,0.0,0.0,0.0,0.0,0.0,0.0,0.0,0.0,0.0,0.0,0.0,0.0,0.0,0.0,0.0,0.0,0.0,0.0,0.0,0.0,0.0,0.0,0.0,-2.8028,-3.0169,-3.1236,-3.2151,-3.2937,-3.2493,-3.1696,-3.0595,-3.0099,-2.9586,0.0,0.0,0.0,0.0,0.0,0.0,0.0,0.0,0.0,0.0,0.0,0.0,0.0,0.0,0.0,0.0,0.0,0.0,0.0,0.0,0.0,0.0,0.0,0.0,0.0,0.0,0.0,0.0,-3.2963,-3.3183,-3.3752,0.0,0.0,0.0,0.0,0.0,0.0,0.0,0.0,0.0,0.0,-3.6604,-3.7592,-3.7878,-3.7796,-3.718,-3.7373,-3.7199,-3.6045,-3.6559,-3.6713,-3.568,0.0,0.0,0.0,0.0,0.0,0.0,0.0,0.0,0.0,0.0,0.0,0.0,0.0,0.0,0.0,0.0,0.0,0.0,0.0,0.0,0.0,0.0,0.0,0.0,0.0,0.0,0.0,0.0,0.0,0.0,-2.8975,0.0,0.0,0.0,0.0,0.0,0.0,0.0,0.0,0.0,0.0,0.0,0.0,0.0,0.0,0.0,0.0,0.0,0.0,0.0,0.0,0.0,0.0,-2.8581,-3.0188,-3.1746,-3.2944,-3.3678,-3.2228,-3.1427,-3.1292,-2.9843,-2.9012,-2.8975,0.0,0.0,0.0,0.0,0.0,0.0,0.0,0.0,0.0,0.0,0.0,0.0,0.0,0.0,0.0,0.0,0.0,0.0,0.0,0.0,0.0,0.0,0.0,0.0,0.0,0.0,-3.3733,-3.377,-3.377,0.0,0.0,0.0,0.0,0.0,0.0,0.0,0.0,0.0,0.0,-3.7585,-3.8625,-3.8112,-3.8027,-3.8046,-3.7988,-3.731,-3.6752,-3.6699,-3.7392,-3.7411,0.0,0.0,0.0,0.0,0.0,0.0,0.0,0.0,0.0,0.0,0.0,0.0,0.0,0.0,0.0,0.0,0.0,0.0,0.0,0.0,0.0,0.0,0.0,0.0,0.0,0.0,0.0,-2.8975,-2.8975,0.0,0.0,0.0,0.0,0.0,0.0,0.0,0.0,0.0,0.0,0.0,-2.9769,-2.9232,0.0,0.0,0.0,0.0,0.0,0.0,0.0,0.0,0.0,0.0,0.0,0.0,-2.9393,-3.0978,-3.2059,-3.2727,-3.2975,-3.1964,-3.1146,-3.0613,-2.9567,-2.8975,-2.8975,0.0,0.0,0.0,0.0,0.0,0.0,0.0,0.0,0.0,0.0,0.0,0.0,0.0,0.0,0.0,0.0,0.0,0.0,0.0,0.0,0.0,0.0,0.0,0.0,0.0,-3.3807,0.0,0.0,0.0,0.0,0.0,0.0,0.0,0.0,0.0,0.0,0.0,-3.6501,-3.7738,-3.8625,-3.9292,-3.9604,-3.9662,-3.9469,0.0,0.0,0.0,0.0,0.0,0.0,0.0,0.0,0.0,0.0,0.0,0.0,0.0,0.0,-3.9815,-3.7565,-3.7142,-3.7161,-3.718,0.0,0.0,0.0,0.0,0.0,0.0,0.0,0.0,0.0,0.0,0.0,0.0,0.0,0.0,-2.9637,0.0,-2.9377,0.0,0.0,0.0,0.0,0.0,0.0,0.0,0.0,-2.942,-2.9861,-3.0577,-3.0099,-3.0118,0.0,-3.0081,-2.9843,0.0,0.0,0.0,0.0,0.0,0.0,0.0,0.0,-3.0509,-3.1765,-3.2621,-3.3156,-3.3395,-3.2368,-3.1439,-3.065,-2.9843,-2.942,-2.942,-3.0189,-3.0612,0.0,0.0,0.0,0.0,0.0,0.0,0.0,0.0,0.0,0.0,0.0,0.0,0.0,0.0,0.0,0.0,0.0,0.0,0.0,0.0,0.0,0.0,0.0,-3.3807,0.0,0.0,0.0,0.0,0.0,0.0,0.0,0.0,0.0,-3.5946,-3.6654,-3.7639,-3.8746,-3.9377,-3.9796,-4.0027,0.0,0.0,0.0,0.0,0.0,0.0,0.0,-3.921,-3.8911,-3.8642,-3.8565,-3.8815,-3.9335,-3.9892,-4.0427,0.0,0.0,-3.9258,-3.9123,-3.9335,-3.9319,-3.9084,-3.9046,-3.9604,-3.9258,-3.9027,0.0,0.0,0.0,0.0,0.0,0.0,0.0,0.0,-3.0766,-3.0868,0.0,-3.0178,0.0,0.0,0.0,0.0,0.0,-2.9127,0.0,0.0,-3.0246,-3.0668,-3.1403,-3.1384,-3.1384,-3.1421,-3.1384,-3.1347,-3.1292,-2.9843,0.0,0.0,0.0,0.0,0.0,0.0,-3.1857,-3.2668,-3.3493,-3.4265,-3.4926,-3.3474,-3.2247,-3.1384,-3.0632,-3.0246,-3.0265,-3.1017,-3.1421,-3.1421,-3.1481,0.0,0.0,0.0,0.0,0.0,0.0,0.0,0.0,0.0,0.0,0.0,0.0,0.0,0.0,0.0,0.0,0.0,0.0,0.0,0.0,-3.3825,0.0,0.0,0.0,0.0,0.0,0.0,0.0,0.0,0.0,0.0,-3.6328,-3.77,-3.8917,-3.8955,0.0,0.0,0.0,0.0,-3.9431,-3.9469,-3.9441,-3.973,-4.0466,-4.1242,-4.1476,-4.0719,0.0,0.0,-4.0719,-4.0566,-4.0623,-4.0642,-4.1412,-4.2159,-4.2957,-4.231,-4.1761,-4.1745,-4.1146,-4.0662,-4.0658,-4.0758,-4.0719,-3.4639,0.0,0.0,0.0,0.0,-3.2713,-3.2806,-3.2995,-3.269,-3.2351,-3.2071,-3.1619,0.0,0.0,0.0,0.0,0.0,0.0,-3.0834,-3.1054,-3.1035,-3.1494,-3.2228,-3.1659,-3.1678,-3.2228,-3.1659,-3.1403,-3.1366,-3.0944,-3.0834,-3.1035,0.0,0.0,0.0,0.0,-3.3511,-3.4308,-3.5165,-3.5697,-3.5907,-3.4321,-3.2797,-3.1421,-3.1182,-3.1035,-3.1054,-3.1832,-3.2274,-3.2265,-3.2808,0.0,0.0,0.0,0.0,0.0,0.0,0.0,0.0,0.0,0.0,0.0,0.0,0.0,0.0,0.0,0.0,0.0,0.0,0.0,-3.3807,-3.4339,-3.4741,0.0,0.0,0.0,0.0,0.0,0.0,0.0,0.0,0.0,-3.9152,-3.9166,-3.9391,0.0,0.0,-4.1354,-4.1123,-4.1604,-4.2008,-4.2008,-4.2024,0.0,-4.2316,-4.2055,-4.1923,-4.2297,-4.2566,-4.2643,-4.2393,-4.2354,-4.2547,-4.3066,-4.3412,-4.3855,-4.4583,-4.3698,-4.2799,-4.2746,-4.2956,-4.3201,-4.322,-4.3294,-4.3313,-3.66,-3.4459,-3.4135,-3.4287,-3.4745,-3.4677,-3.4812,-3.5115,-3.468,-3.4226,-3.3769,-3.3123,-3.2819,-3.2821,-3.26,0.0,0.0,0.0,-3.2736,-3.3032,-3.3175,-3.3655,-3.4357,-3.3802,-3.3746,-3.4183,-3.3629,-3.333,-3.333,-3.333,-3.333,-3.3311,0.0,0.0,-3.3109,-3.4211,-3.5037,-3.5515,-3.6029,-3.6468,-3.6751,-3.4807,-3.3183,-3.1935,-3.188,-3.188,-3.188,-3.2629,-3.3051,-3.3091,-3.3532,-3.3807,0.0,0.0,0.0,0.0,0.0,0.0,0.0,0.0,0.0,0.0,0.0,-3.3807,0.0,0.0,0.0,0.0,-3.4082,-3.4412,-3.4743,-3.5238,0.0,0.0,0.0,0.0,0.0,0.0,0.0,-3.8343,-3.9503,-4.0473,-4.095,-4.0893,-4.0989,-4.147,-4.1989,-4.2316,-4.2316,0.0,-4.322,-4.3528,-4.3566,-4.3698,-4.4028,-4.3647,-4.3496,-4.3989,-4.4085,-4.4085,-4.4085,-4.4085,-4.4259,-4.4682,-4.4816,-4.497,-4.5509,-4.4759,-4.4085,-4.4109,-4.4472,-4.4797,-4.4816,-4.493,-4.4987,-3.8377,-3.8304,-3.7497,-3.7055,-3.6882,-3.6676,-3.701,-3.7603,-3.669,-3.633,-3.6268,-3.4759,-3.4124,-3.4088,-3.3595,0.0,-3.3018,-3.4017,-3.4881,-3.5613,-3.5907,-3.6411,-3.7106,-3.6857,-3.6763,-3.6763,-3.651,-3.6413,-3.645,-3.6321,-3.634,-3.634,-3.4853,-3.4082,-3.4174,-3.5624,-3.6423,-3.6481,-3.6497,-3.6798,-3.7434,-3.5202,-3.3623,-3.2816,-3.2742,-3.2706,-3.2724,-3.3403,-3.3807,-3.3807,-3.3807,-3.3807,-3.3807,0.0,0.0,0.0,0.0,0.0,0.0,0.0,0.0,0.0,0.0,0.0,0.0,0.0,0.0,0.0,-3.4688,0.0,-3.6211,-3.634,0.0,0.0,0.0,-3.6883,-3.7676,-3.83,-3.8944,-3.9717,0.0,0.0,-4.1956,-4.2665,-4.322,-4.3278,-4.3258,-4.3201,-4.3201,-4.3278,-4.3547,-4.4297,-4.441,-4.468,-4.5315,-4.5413,-4.5374,-4.5413,-4.5586,-4.549,-4.549,-4.5509,-4.5566,-4.5528,-4.5586,-4.5586,-4.5586,-4.5509,-4.5586,-4.5509,-4.5528,-4.5566,-4.5528,-4.5642,-4.5719,-4.1735,-4.1418,-4.1189,-4.0189,-3.8723,-3.8992,-3.8899,-3.8518,-3.8634,-3.8142,-3.7186,-3.6785,-3.6771,-3.6972,-3.6668,-3.6483,-3.6404,-3.6204,-3.6218,-3.6404,-3.63,-3.6324,-3.6527,-3.7072,-3.7311,-3.7311,-3.7243,-3.7533,-3.8046,-3.689,-3.6615,-3.7147,-3.6798,-3.6644,-3.6615,-3.7019,-3.7526,-3.815,-3.812,-3.7924,-3.7479,-3.6329,-3.5312,-3.4422,-3.3844,-3.3513,-3.3532,-3.3715,-3.3807,-3.3807,-3.3807,-3.3807,-3.3807,-3.3807,0.0,0.0,0.0,0.0,0.0,0.0,0.0,0.0,0.0,-3.4339,-3.5605,0.0,-3.4989,0.0,-3.5881,-3.6083,-3.6285,-3.6835,0.0,0.0,-3.8409,-3.9298,-3.9937,-4.0486,-4.0989,-4.1393,-4.1965,-4.2578,-4.3251,-4.3712,-4.4259,-4.4874,-4.4432,-4.4008,-4.4028,-4.4605,-4.5066,-4.522,-4.5257,-4.5372,-4.5565,-4.5586,-4.5586,-4.5586,-4.5586,-4.5586,-4.5586,-4.5586,-4.5586,-4.5586,-4.5586,-4.5586,-4.5586,-4.5586,-4.5586,-4.5586,-4.5586,-4.5586,-4.5586,-4.5719,-4.5815,-4.2699,-4.2522,-4.2699,-4.2082,-4.0992,-4.1074,-4.096,-4.0747,-4.1016,-4.0482,-3.9352,-3.8621,-3.8261,-3.8192,-3.8365,-3.831,-3.8136,-3.8644,-3.8894,-3.8875,-3.8867,-3.884,-3.8831,-3.9174,-3.9327,-3.9309,-3.9166,-3.9331,-3.9698,-3.8872,-3.867,-3.9093,-3.9093,-3.9093,-3.9093,-3.8744,-3.8781,-3.9221,-3.8872,-3.8297,-3.7491,-3.6703,-3.6064,-3.5587,-3.4431,-3.399,-3.4321,-3.399,-3.3807,-3.3807,-3.3807,-3.3807,-3.3807,-3.3807,-3.3972,0.0,0.0,0.0,0.0,0.0,0.0,0.0,0.0,0.0,0.0,0.0,-3.5937,-3.6762,-3.6835,-3.7129,-3.7826,-3.8303,-3.8762,-3.9264,-4.0133,-4.0781,-4.1132,-4.1683,-4.2089,-4.2257,-4.2881,-4.3463,-4.3963,-4.4516,-4.5047,-4.5528,-4.5163,-4.4874,-4.4913,-4.5316,-4.5586,-4.5586,-4.5586,-4.5586,-4.5586,-4.5586,-4.5586,-4.5586,-4.5586,-4.5586,-4.5586,-4.5586,-4.5586,-4.5586,-4.5586,-4.5586,-4.5586,-4.5586,-4.5586,-4.5586,-4.5586,-4.5586,-4.5586,-4.5719,-4.5815,-4.2865,-4.2804,-4.3158,-4.327,-4.3196,-4.2845,-4.2792,-4.2981,-4.2985,-4.2544,-4.1694,-4.0277,-3.9357,-3.8924,-3.9515,-3.9575,-3.9239,-4.0855,-4.1603,-4.1632,-4.1798,-4.1893,-4.1886,-4.1763,-4.1712,-4.1664,-4.1401,-4.1332,-4.1405,-4.1203,-4.1167,-4.124,-4.1148,-4.1167,-4.124,-4.0543,-4.0171,-4.0024,-3.935,-3.8621,-3.7827,-3.6934,-3.6395,-3.6248,-3.4669,-3.4137,-3.477,-3.4174,-3.3807,-3.3807,-3.3807,-3.3844,-3.3935,-3.3972,-3.4293,0.0,-3.5155,0.0,0.0,0.0,0.0,0.0,0.0,0.0,0.0,-3.6614,-3.693,-3.7753,-3.779,-3.8414,-3.9918,-4.0047,-4.0322,-4.102,-4.1477,-4.1686,-4.1696,-4.2291,-4.2737,-4.2781,-4.3694,-4.4344,-4.4438,-4.5107,-4.5586,-4.5586,-4.5566,-4.5509,-4.5566,-4.5566,-4.5586,-4.5586,-4.5586,-4.5586,-4.5586,-4.5586,-4.5586,-4.5586,-4.5586,-4.5586,-4.5586,-4.5586,-4.5586,-4.5586,-4.5586,-4.5586,-4.5586,-4.5586,-4.5586,-4.5586,-4.5586,-4.5586,-4.5605,-4.5699,-4.5776,-4.4704,-4.4209,-4.4283,-4.4115,-4.3802,-4.3746,-4.3186,-4.229,-4.2399,-4.2145,-4.1635,-4.1537,-4.1437,-4.1324,-4.1474,-4.1475,-4.1365,-4.1549,-4.1603,-4.1603,-4.1366,-4.1261,-4.1317,-4.1866,-4.2179,-4.2147,-4.2099,-4.2415,-4.3002,-4.1735,-4.146,-4.2047,-4.1423,-4.1442,-4.2047,0.0,0.0,0.0,-4.0698,-4.0281,-3.9412,-3.8003,-3.6945,-3.6285,-3.4669,0.0,-3.4009,-3.388,-3.3807,-3.3807,-3.3807,0.0,0.0,0.0,0.0,0.0,0.0,0.0,0.0,0.0,0.0,0.0,-3.834,-3.8248,-3.8248,-3.8255,-3.8603,-3.935,-3.9441,-3.9808,-4.0781,-4.0873,-4.0946,-4.1111,-4.1746,-4.2161,-4.2179,-4.2857,-4.3417,-4.3708,-4.4221,-4.463,-4.4913,-4.5323,-4.5586,-4.5568,-4.5586,-4.5586,-4.5605,-4.5586,-4.5586,-4.5586,-4.5586,-4.5586,-4.5586,-4.5586,-4.5586,-4.5586,-4.5586,-4.5586,-4.5586,-4.5586,-4.5586,-4.5586,-4.5586,-4.5586,-4.5586,-4.5586,-4.5586,-4.5586,-4.5586,-4.5586,-4.5586,-4.5605,-4.568,-4.4787,0.0,-4.4527,-4.4474,0.0,-4.4087,-4.3621,-4.3043,-4.3322,-4.3314,-4.3071,-4.2782,-4.2557,-4.2388,-4.2379,-4.2287,-4.2151,-4.2415,-4.2538,-4.2525,-4.2368,-4.2286,-4.2304,-4.2708,-4.2892,-4.2873,-4.2892,-4.3112,-4.3424,-4.2671,-4.2506,-4.2873,-4.247,-4.2488,-4.2873,-4.2892,-4.2503,-4.1673,-4.1309,-4.0726,-3.9918,-3.8707,-3.7698,-3.6872,-3.5275,0.0,0.0,0.0,0.0,0.0,0.0,0.0,0.0,-3.5626,0.0,-3.6835,-3.689,-3.7422,-3.856,-3.867,-3.9038,-3.9827,-3.99,-3.9722,-3.9342,-3.9648,-4.0065,-4.0451,-4.0487,-4.0818,-4.1607,-4.1699,-4.1864,-4.2249,-4.2797,-4.3212,-4.3427,-4.3932,-4.4428,-4.4719,-4.4969,-4.5118,-4.5096,-4.5222,-4.5263,-4.514,-4.5099,-4.5182,-4.5342,-4.5495,-4.5586,-4.5586,-4.5586,-4.5586,-4.5586,-4.5586,-4.5586,-4.5586,-4.5586,-4.5586,-4.5586,-4.5586,-4.5586,-4.5586,-4.5586,-4.5586,-4.5586,-4.5586,-4.5586,-4.5586,-4.5586,-4.5586,-4.5586,-4.5586,-4.5624,-4.4346,-4.4028,-4.4364,-4.4447,-4.4364,-4.4046,-4.3893,-4.3943,0.0,0.0,0.0,-4.367,-4.3159,-4.2921,-4.2927,-4.2746,-4.2561,-4.3185,-4.3479,-4.3479,-4.3479,-4.3479,-4.3479,-4.3479,-4.3479,-4.3479,-4.3479,-4.3479,-4.3479,-4.3479,-4.3479,-4.3479,-4.3479,-4.3479,-4.3479,-4.3479,-4.3169,-4.2514,-4.1867,-4.1079,-4.0119,-3.9355,-3.845,-3.7514,-3.6028,-3.5587,-3.6248,-3.5616,-3.5561,-3.6229,-3.627,-3.639,-3.6505,-3.6492,-3.6876,-3.7643,-3.7845,-3.8536,-3.979,-4.0029,-4.0396,-4.1075,-4.124,-4.0987,-4.0193,-4.0716,-4.1185,-4.1313,-4.1332,-4.1644,-4.2433,-4.2506,-4.2782,-4.3424,-4.3758,-4.4046,-4.4346,-4.4657,-4.4834,-4.5244,-4.5303,-4.5342,-4.5137,-4.5161,-4.5115,-4.4872,-4.4896,-4.4806,-4.5074,-4.54,-4.5586,-4.5586,-4.5586,-4.5586,-4.5586,-4.5586,-4.5586,-4.5586,-4.5586,-4.5586,-4.5586,-4.5586,-4.5586,-4.5586,-4.5586,-4.5586,-4.5586,-4.5586,-4.5586,-4.5586,-4.5586,-4.5586,-4.5586,-4.5586,-4.5586,-4.4346,-4.4016,-4.4058,-4.3912,-4.3646,-4.3597,-4.3563,-4.3563,-4.3631,-4.3646,-4.3646,-4.3539,-4.345,-4.3398,-4.3416,-4.3401,-4.3332,-4.3442,-4.3479,-4.3479,-4.3479,-4.3479,-4.3479,-4.3479,-4.3479,-4.3479,-4.3479,-4.3479,-4.3479,-4.3479,-4.3479,-4.3479,-4.3479,-4.3479,-4.3479,-4.3479,-4.3442,-4.3332,-4.3222,-4.2451,-4.0969,-4.0139,-3.9001,-3.7533,-3.6615,-3.6156,-3.6285,-3.6203,-3.6185,-3.6285,-3.6296,-3.6614,-3.7276,-3.7369,-3.7686,-3.8487,-3.9166,-3.9662,-3.99,-4.0543,-4.0983,-4.1148,-4.1735,-4.1776,-4.1027,-4.1042,-4.1405,-4.2029,-4.2139,-4.247,-4.3204,-4.3296,-4.3314,-4.3461,-4.3548,-4.3597,-4.3693,-4.3758,-4.3943,-4.4299,-4.4535,-4.4872,-4.5011,-4.5263,-4.5381,-4.54,-4.5161,-4.5322,-4.5118,-4.5381,-4.5568,-4.5586,-4.5586,-4.5586,-4.5547,-4.5586,-4.5586,-4.5586,-4.5586,-4.5586,-4.5586,-4.5586,-4.5586,-4.5586,-4.5586,-4.5586,-4.5586,-4.5586,-4.5586,-4.5586,-4.5586,-4.5586,-4.5586,-4.5586,-4.5586,-4.408,-4.374,-4.3726,-4.3646,-4.3479,-4.3479,-4.3479,-4.3479,-4.3479,-4.3479,-4.3479,-4.3479,-4.3479,-4.3479,-4.3479,-4.3479,-4.3479,-4.3479,-4.3479,-4.3479,-4.3479,-4.3479,-4.3479,-4.3479,-4.3479,-4.3479,-4.3479,-4.3479,-4.3479,-4.3479,-4.3479,-4.3479,-4.3479,-4.3479,-4.3479,-4.3479,-4.3479,-4.3479,-4.3479,-4.2947,-4.1779,-4.139,-4.0212,-3.8212,-3.7771,-3.7386,-3.6964,-3.6948,-3.7151,-3.7569,-3.7589,-3.7772,-3.8138,-3.8559,-3.898,-3.935,-4.0102,-4.0744,-4.1185,-4.1956,-4.2396,-4.2415,-4.2727,-4.28,-4.2417,-4.2433,-4.2543,-4.291,-4.2947,-4.3094,-4.3461,-4.3479,-4.3479,-4.3479,-4.3479,-4.3582,-4.3726,-4.3772,-4.3912,-4.4261,-4.4474,-4.458,-4.4508,-4.4644,-4.4644,-4.4516,-4.4594,-4.4669,-4.4542,-4.4988,-4.5247,-4.509,-4.5053,-4.5167,-4.5303,-4.5323,-4.54,-4.5568,-4.5586,-4.5586,-4.5586,-4.5586,-4.5586,-4.5586,-4.5586,-4.5586,-4.5586,-4.5586,-4.5586,-4.5586,-4.5586,-4.5586,-4.5586,-4.5586,-4.5586,-4.3743,-4.3479,-4.3479,-4.3479,-4.3479,-4.3479,-4.3479,-4.3479,-4.3479,-4.3479,-4.3479,-4.3479,-4.3479,-4.3479,-4.3479,-4.3479,-4.3479,-4.3479,-4.3479,-4.3479,-4.3479,-4.3479,-4.3479,-4.3479,-4.3479,-4.3479,-4.3479,-4.3479,-4.3479,-4.3479,-4.3479,-4.3479,-4.3479,-4.3479,-4.3479,-4.3479,-4.3479,-4.3479,-4.3479,-4.3114,-4.2315,-4.2307,-4.1222,-3.9166,-3.8964,-3.8579,-3.7856,-3.7757,-3.8173,-3.8891,-3.8975,-3.9067,-3.9245,-3.9804,-4.017,-4.0249,-4.0928,-4.1735,-4.2506,-4.313,-4.3479,-4.3479,-4.3479,-4.3479,-4.3479,-4.3479,-4.3479,-4.3479,-4.3442,-4.3461,-4.3479,-4.3479,-4.3479,-4.3479,-4.3479,-4.3597,-4.3818,-4.3881,-4.4004,-4.4308,-4.4419,-4.4318,-4.4106,-4.4087,-4.4087,-4.3974,-4.3974,-4.4106,-4.4087,-4.4516,-4.4676,-4.4505,-4.452,-4.4819,-4.5044,-4.5039,-4.5096,-4.5342,-4.5438,-4.5438,-4.5457,-4.5513,-4.5586,-4.5586,-4.5586,-4.5586,-4.5586,-4.5586,-4.5586,-4.5586,-4.5586,-4.5586,-4.5586,-4.5586,-4.5586,-4.3529,-4.3497,-4.3479,-4.3479,-4.3479,-4.3479,-4.3479,-4.3479,-4.3479,-4.3479,-4.3479,-4.3479,-4.3479,-4.3479,-4.3479,-4.3479,-4.3479,-4.3479,-4.3479,-4.3479,-4.3479,-4.3479,-4.3479,-4.3479,-4.3479,-4.3479,-4.3479,-4.3479,-4.3479,-4.3479,-4.3479,-4.3479,-4.3479,-4.3479,-4.3479,-4.3479,-4.3479,-4.3479,-4.3479,-4.3114,-4.2333,-4.2307,-4.1479,-3.9827,-3.979,-3.9405,-3.8689,-3.8597,-3.8946,-3.9717,-3.9801,-4.0133,-4.0734,-4.0936,-4.0991,-4.1038,-4.1754,-4.2525,-4.3277,-4.3442,-4.3479,-4.3479,-4.3479,-4.3479,-4.3479,-4.3479,-4.3479,-4.3479,-4.3479,-4.3479,-4.3479,-4.3479,-4.3479,-4.3479,-4.3479,-4.3513,-4.3529,-4.3548,-4.3582,-4.3597,-4.3931,-4.4028,-4.4016,-4.4223,-4.4419,-4.4299,-4.428,-4.4252,-4.4016,-4.4087,-4.4121,-4.395,-4.4373,-4.494,-4.4974,-4.4824,-4.4707,-4.4706,-4.4928,-4.5006,-4.5013,-4.5227,-4.5566,-4.5336,-4.5586,-4.5586,-4.5586,-4.5586,-4.5586,-4.5586,-4.5586,-4.5586,-4.5586,-4.5586,-4.5586,-4.3479,-4.3479,-4.3479,-4.3479,-4.3479,-4.3479,-4.3479,-4.3479,-4.3479,-4.3479,-4.3479,-4.3479,-4.3479,-4.3479,-4.3479,-4.3479,-4.3479,-4.3479,-4.3479,-4.3479,-4.3479,-4.3479,-4.3479,-4.3479,-4.3479,-4.3479,-4.3479,-4.3479,-4.3479,-4.3479,-4.3479,-4.3479,-4.3479,-4.3479,-4.3479,-4.3479,-4.3479,-4.3479,-4.3479,-4.3351,-4.3059,-4.3039,-4.247,-4.146,-4.1313,-4.0946,-4.0212,-4.0123,-4.0252,-4.0598,-4.0586,-4.075,-4.1079,-4.1559,-4.1815,-4.1864,-4.258,-4.313,-4.3461,-4.3479,-4.3479,-4.3479,-4.3479,-4.3479,-4.3479,-4.3479,-4.3479,-4.3479,-4.3479,-4.3479,-4.3479,-4.3479,-4.3479,-4.3479,-4.3479,-4.3479,-4.3479,-4.3479,-4.3479,-4.3513,-4.3612,-4.3693,-4.3726,-4.3836,-4.3931,-4.3962,-4.3962,-4.3899,-4.3726,-4.3881,-4.3943,-4.3868,-4.4213,-4.4267,-4.4186,-4.4619,-4.4393,-4.3855,-4.3983,-4.4298,-4.3899,-4.4228,-4.4633,-4.4857,-4.5297,-4.5566,-4.5586,-4.5586,-4.5586,-4.5586,-4.5586,-4.5586,-4.5586,-4.5586,-4.5586,-4.3479,-4.3479,-4.3479,-4.3479,-4.3479,-4.3479,-4.3479,-4.3479,-4.3479,-4.3479,-4.3479,-4.3479,-4.3479,-4.3479,-4.3479,-4.3479,-4.3479,-4.3479,-4.3479,-4.3479,-4.3479,-4.3479,-4.3479,-4.3479,-4.3479,-4.3479,-4.3479,-4.3479,-4.3479,-4.3479,-4.3479,-4.3479,-4.3479,-4.3479,-4.3479,-4.3479,-4.3479,-4.3479,-4.3479,-4.3479,-4.3479,-4.3479,-4.3112,-4.2396,-4.2304,-4.1919,-4.1167,-4.1112,-4.1204,-4.1442,-4.1421,-4.1531,-4.1757,-4.231,-4.264,-4.2671,-4.3149,-4.3479,-4.3479,-4.3479,-4.3479,-4.3479,-4.3479,-4.3479,-4.3479,-4.3479,-4.3479,-4.3479,-4.3479,-4.3479,-4.3479,-4.3479,-4.3479,-4.3479,-4.3479,-4.3479,-4.3479,-4.3479,-4.3479,-4.3479,-4.3513,-4.3479,-4.3479,-4.3513,-4.3529,-4.3548,-4.3513,-4.3479,-4.3513,-4.3712,-4.3865,-4.3873,-4.3915,-4.3882,-4.3615,-4.4115,-4.4023,-4.3506,-4.3483,-4.3942,-4.315,-4.3725,-4.4344,-4.5148,-4.5414,-4.5547,-4.5586,-4.5586,-4.5586,-4.5586,-4.5586,-4.5586,-4.5586,-4.5586,-4.5586,-4.3479,-4.3479,-4.3479,-4.3479,-4.3479,-4.3479,-4.3479,-4.3479,-4.3479,-4.3479,-4.3479,-4.3479,-4.3479,-4.3479,-4.3479,-4.3479,-4.3479,-4.3479,-4.3479,-4.3479,-4.3479,-4.3479,-4.3479,-4.3479,-4.3479,-4.3479,-4.3479,-4.3479,-4.3479,-4.3479,-4.3479,-4.3479,-4.3479,-4.3479,-4.3479,-4.3479,-4.3479,-4.3479,-4.3479,-4.3479,-4.3479,-4.3479,-4.3112,-4.2451,-4.2323,-4.1992,-4.1313,-4.1148,-4.146,-4.2231,-4.2221,-4.2569,-4.3259,-4.3369,-4.3387,-4.3406,-4.3442,-4.3479,-4.3479,-4.3479,-4.3479,-4.3479,-4.3479,-4.3479,-4.3479,-4.3479,-4.3479,-4.3479,-4.3479,-4.3479,-4.3479,-4.3479,-4.3479,-4.3479,-4.3479,-4.3479,-4.3479,-4.3479,-4.3479,-4.3479,-4.3479,-4.3479,-4.3479,-4.3479,-4.3479,-4.3479,-4.3479,-4.3479,-4.3479,-4.3513,-4.3584,-4.36,-4.3763,-4.3949,-4.3948,-4.4192,-4.3811,-4.2997,-4.3089,-4.4145,-4.4277,-4.4412,-4.492,-4.5323,-4.5491,-4.5566,-4.5586,-4.5586,-4.5586,-4.5586,-4.5586,-4.5586,-4.5586,-4.5586,-4.5586,-4.3479,-4.3479,-4.3479,-4.3479,-4.3479,-4.3479,-4.3479,-4.3479,-4.3479,-4.3479,-4.3479,-4.3479,-4.3479,-4.3479,-4.3479,-4.3479,-4.3479,-4.3479,-4.3479,-4.3479,-4.3479,-4.3479,-4.3479,-4.3479,-4.3479,-4.3479,-4.3479,-4.3479,-4.3479,-4.3479,-4.3479,-4.3479,-4.3479,-4.3479,-4.3479,-4.3479,-4.3479,-4.3479,-4.3479,-4.3479,-4.3479,-4.3479,-4.3332,-4.3094,-4.3057,-4.2928,-4.2635,-4.2635,-4.2782,-4.3057,-4.3059,-4.3188,-4.3442,-4.3479,-4.3479,-4.3479,-4.3479,-4.3479,-4.3479,-4.3479,-4.3479,-4.3479,-4.3479,-4.3479,-4.3479,-4.3479,-4.3479,-4.3479,-4.3479,-4.3479,-4.3479,-4.3479,-4.3479,-4.3479,-4.3479,-4.3479,-4.3479,-4.3479,-4.3479,-4.3479,-4.3479,-4.3479,-4.3479,-4.3479,-4.3479,-4.3479,-4.3479,-4.3479,-4.3479,-4.3479,-4.3479,-4.3513,-4.3597,-4.3682,-4.3692,-4.414,-4.3951,-4.2576,-4.2179,-4.2599,-4.2848,-4.3871,-4.4478,-4.492,-4.5204,-4.5566,-4.5586,-4.5586,-4.5586,-4.5586,-4.5586,-4.5586,-4.5586,-4.5586,-4.5586,-4.3479,-4.3479,-4.3479,-4.3479,-4.3479,-4.3479,-4.3479,-4.3479,-4.3479,-4.3479,-4.3479,-4.3479,-4.3479,-4.3479,-4.3479,-4.3479,-4.3479,-4.3479,-4.3479,-4.3479,-4.3479,-4.3479,-4.3479,-4.3479,-4.3479,-4.3479,-4.3479,-4.3479,-4.3479,-4.3479,-4.3479,-4.3479,-4.3479,-4.3479,-4.3479,-4.3479,-4.3479,-4.3479,-4.3479,-4.3479,-4.3479,-4.3479,-4.3479,-4.3479,-4.3479,-4.3479,-4.3479,-4.3479,-4.3479,-4.3479,-4.3479,-4.3479,-4.3479,-4.3479,-4.3479,-4.3479,-4.3479,-4.3479,-4.3479,-4.3479,-4.3479,-4.3479,-4.3479,-4.3479,-4.3479,-4.3479,-4.3479,-4.3479,-4.3479,-4.3479,-4.3479,-4.3479,-4.3479,-4.3479,-4.3479,-4.3479,-4.3479,-4.3479,-4.3479,-4.3479,-4.3479,-4.3479,-4.3479,-4.3479,-4.3479,-4.3479,-4.3479,-4.3479,-4.3479,-4.3479,-4.3479,-4.3479,-4.3479,-4.3513,-4.3534,-4.3841,-4.3837,-4.2659,-4.2704,-4.2567,-4.2475,-4.3482,-4.4208,-4.4576,-4.4956,-4.5395,-4.5586,-4.5586,-4.5586,-4.5586,-4.5586,-4.5586,-4.5586,-4.5586,-4.5586,-4.3479,-4.3479,-4.3479,-4.3479,-4.3479,-4.3479,-4.3479,-4.3479,-4.3479,-4.3479,-4.3479,-4.3479,-4.3479,-4.3479,-4.3479,-4.3479,-4.3479,-4.3479,-4.3479,-4.3479,-4.3479,-4.3479,-4.3479,-4.3479,-4.3479,-4.3479,-4.3479,-4.3479,-4.3479,-4.3479,-4.3479,-4.3479,-4.3479,-4.3479,-4.3479,-4.3479,-4.3479,-4.3479,-4.3479,-4.3479,-4.3479,-4.3479,-4.3479,-4.3479,-4.3479,-4.3479,-4.3479,-4.3479,-4.3479,-4.3479,-4.3479,-4.3479,-4.3479,-4.3479,-4.3479,-4.3479,-4.3479,-4.3479,-4.3479,-4.3479,-4.3479,-4.3479,-4.3479,-4.3479,-4.3479,-4.3479,-4.3479,-4.3479,-4.3479,-4.3479,-4.3479,-4.3479,-4.3479,-4.3479,-4.3479,-4.3479,-4.3479,-4.3479,-4.3479,-4.3479,-4.3479,-4.3479,-4.3479,-4.3479,-4.3479,-4.3479,-4.3479,-4.3479,-4.3479,-4.3479,-4.3479,-4.3479,-4.3479,-4.3479,-4.3479,-4.3458,-4.3232,-4.3058,-4.3708,-4.3983,-4.3478,-4.395,-4.4687,-4.5093,-4.5204,-4.5586,-4.5586,-4.5586,-4.5586,-4.5586,-4.5586,-4.5586,-4.5586,-4.5586,-4.5586,-4.3479,-4.3479,-4.3479,-4.3479,-4.3479,-4.3479,-4.3479,-4.3479,-4.3479,-4.3479,-4.3479,-4.3479,-4.3479,-4.3479,-4.3479,-4.3479,-4.3479,-4.3479,-4.3479,-4.3479,-4.3479,-4.3479,-4.3479,-4.3479,-4.3479,-4.3479,-4.3479,-4.3479,-4.3479,-4.3479,-4.3479,-4.3479,-4.3479,-4.3479,-4.3479,-4.3479,-4.3479,-4.3479,-4.3479,-4.3479,-4.3479,-4.3479,-4.3479,-4.3479,-4.3479,-4.3479,-4.3479,-4.3479,-4.3479,-4.3479,-4.3479,-4.3479,-4.3479,-4.3479,-4.3479,-4.3479,-4.3479,-4.3479,-4.3479,-4.3479,-4.3479,-4.3479,-4.3479,-4.3479,-4.3479,-4.3479,-4.3479,-4.3479,-4.3479,-4.3479,-4.3479,-4.3479,-4.3479,-4.3479,-4.3479,-4.3479,-4.3479,-4.3479,-4.3479,-4.3479,-4.3479,-4.3479,-4.3479,-4.3479,-4.3479,-4.3479,-4.3479,-4.3479,-4.3479,-4.3479,-4.3479,-4.3479,-4.3479,-4.3479,-4.3479,-4.3479,-4.3376,-4.3373,-4.3998,-4.4406,-4.4084,-4.4296,-4.5012,-4.5381,-4.5495,-4.5586,-4.5586,-4.5586,-4.5586,-4.5586,-4.5586,-4.5586,-4.5586,-4.5586,-4.5586,-4.3479,-4.3479,-4.3479,-4.3479,-4.3479,-4.3479,-4.3479,-4.3479,-4.3479,-4.3479,-4.3479,-4.3479,-4.3479,-4.3479,-4.3479,-4.3479,-4.3479,-4.3479,-4.3479,-4.3479,-4.3479,-4.3479,-4.3479,-4.3479,-4.3479,-4.3479,-4.3479,-4.3479,-4.3479,-4.3479,-4.3479,-4.3479,-4.3479,-4.3479,-4.3479,-4.3479,-4.3479,-4.3479,-4.3479,-4.3479,-4.3479,-4.3479,-4.3479,-4.3479,-4.3479,-4.3479,-4.3479,-4.3479,-4.3479,-4.3479,-4.3479,-4.3479,-4.3479,-4.3479,-4.3479,-4.3479,-4.3479,-4.3479,-4.3479,-4.3479,-4.3479,-4.3479,-4.3479,-4.3479,-4.3479,-4.3479,-4.3479,-4.3479,-4.3479,-4.3479,-4.3479,-4.3479,-4.3479,-4.3479,-4.3479,-4.3479,-4.3479,-4.3479,-4.3479,-4.3479,-4.3479,-4.3479,-4.3479,-4.3479,-4.3479,-4.3479,-4.3479,-4.3479,-4.3479,-4.3479,-4.3479,-4.3479,-4.3479,-4.3479,-4.3479,-4.3479,-4.3479,-4.3717,-4.408,-4.4149,-4.3987,-4.4573,-4.5263,-4.5322,-4.5419,-4.5568,-4.5586,-4.5586,-4.5586,-4.5586,-4.5586,-4.5586,-4.5586,-4.5586,-4.5586,-4.3479,-4.3479,-4.3479,-4.3479,-4.3479,-4.3479,-4.3479,-4.3479,-4.3479,-4.3479,-4.3479,-4.3479,-4.3479,-4.3479,-4.3479,-4.3479,-4.3479,-4.3479,-4.3479,-4.3479,-4.3479,-4.3479,-4.3479,-4.3479,-4.3479,-4.3479,-4.3479,-4.3479,-4.3479,-4.3479,-4.3479,-4.3479,-4.3479,-4.3479,-4.3479,-4.3479,-4.3479,-4.3479,-4.3479,-4.3479,-4.3479,-4.3479,-4.3479,-4.3479,-4.3479,-4.3479,-4.3479,-4.3479,-4.3479,-4.3479,-4.3479,-4.3479,-4.3479,-4.3479,-4.3479,-4.3479,-4.3479,-4.3479,-4.3479,-4.3479,-4.3479,-4.3479,-4.3479,-4.3479,-4.3479,-4.3479,-4.3479,-4.3479,-4.3479,-4.3479,-4.3479,-4.3479,-4.3479,-4.3479,-4.3479,-4.3479,-4.3479,-4.3479,-4.3479,-4.3479,-4.3479,-4.3479,-4.3479,-4.3479,-4.3479,-4.3479,-4.3479,-4.3479,-4.3479,-4.3479,-4.3479,-4.3479,-4.3479,-4.3479,-4.3479,-4.3479,-4.3479,-4.3646,-4.4004,-4.4101,-4.4194,-4.4824,-4.5322,-4.5361,-4.54,-4.5513,-4.5586,-4.5586,-4.5586,-4.5586,-4.5586,-4.5586,-4.5586,-4.5586,-4.5586,-4.3479,-4.3479,-4.3479,-4.3479,-4.3479,-4.3479,-4.3479,-4.3479,-4.3479,-4.3479,-4.3479,-4.3479,-4.3479,-4.3479,-4.3479,-4.3479,-4.3479,-4.3479,-4.3479,-4.3479,-4.3479,-4.3479,-4.3479,-4.3479,-4.3479,-4.3479,-4.3479,-4.3479,-4.3479,-4.3479,-4.3479,-4.3479,-4.3479,-4.3479,-4.3479,-4.3479,-4.3479,-4.3479,-4.3479,-4.3479,-4.3479,-4.3479,-4.3479,-4.3479,-4.3479,-4.3479,-4.3479,-4.3479,-4.3479,-4.3479,-4.3479,-4.3479,-4.3479,-4.3479,-4.3479,-4.3479,-4.3479,-4.3479,-4.3479,-4.3479,-4.3479,-4.3479,-4.3479,-4.3479,-4.3479,-4.3479,-4.3479,-4.3479,-4.3479,-4.3479,-4.3479,-4.3479,-4.3479,-4.3479,-4.3479,-4.3479,-4.3479,-4.3479,-4.3479,-4.3479,-4.3479,-4.3479,-4.3479,-4.3479,-4.3479,-4.3479,-4.3479,-4.3479,-4.3479,-4.3479,-4.3479,-4.3479,-4.3479,-4.3479,-4.3479,-4.3479,-4.3513,-4.3563,-4.3868,-4.4204,-4.4466,-4.5017,-4.5342,-4.5513,-4.5495,-4.5586,-4.5586,-4.5586,-4.5586,-4.5507,-4.5566,-4.5566,-4.5566,-4.5566,-4.5586,-4.3479,-4.3479,-4.3479,-4.3479,-4.3479,-4.3479,-4.3479,-4.3479,-4.3479,-4.3479,-4.3479,-4.3479,-4.3479,-4.3479,-4.3479,-4.3479,-4.3479,-4.3479,-4.3479,-4.3479,-4.3479,-4.3479,-4.3479,-4.3479,-4.3479,-4.3479,-4.3479,-4.3479,-4.3479,-4.3479,-4.3479,-4.3479,-4.3479,-4.3479,-4.3479,-4.3479,-4.3479,-4.3479,-4.3479,-4.3479,-4.3479,-4.3479,-4.3479,-4.3479,-4.3479,-4.3479,-4.3479,-4.3479,-4.3479,-4.3479,-4.3479,-4.3479,-4.3479,-4.3479,-4.3479,-4.3479,-4.3479,-4.3479,-4.3479,-4.3479,-4.3479,-4.3479,-4.3479,-4.3479,-4.3479,-4.3479,-4.3479,-4.3479,-4.3479,-4.3479,-4.3479,-4.3479,-4.3479,-4.3479,-4.3479,-4.3479,-4.3479,-4.3479,-4.3479,-4.3479,-4.3479,-4.3479,-4.3479,-4.3479,-4.3479,-4.3479,-4.3479,-4.3479,-4.3479,-4.3479,-4.3479,-4.3479,-4.3479,-4.3479,-4.3479,-4.3479,-4.3479,-4.3529,-4.3974,-4.429,-4.4463,-4.4969,-4.5223,-4.5419,-4.5513,-4.5586,-4.5586,-4.5526,-4.5315,-4.5295,-4.5449,-4.5413,-4.5316,-4.5374,-4.5413,-4.3479,-4.3479,-4.3479,-4.3479,-4.3479,-4.3479,-4.3479,-4.3479,-4.3479,-4.3479,-4.3479,-4.3479,-4.3479,-4.3479,-4.3479,-4.3479,-4.3479,-4.3479,-4.3479,-4.3479,-4.3479,-4.3479,-4.3479,-4.3479,-4.3479,-4.3479,-4.3479,-4.3479,-4.3479,-4.3479,-4.3479,-4.3479,-4.3479,-4.3479,-4.3479,-4.3479,-4.3479,-4.3479,-4.3479,-4.3479,-4.3479,-4.3479,-4.3479,-4.3479,-4.3479,-4.3479,-4.3479,-4.3479,-4.3479,-4.3479,-4.3479,-4.3479,-4.3479,-4.3479,-4.3479,-4.3479,-4.3479,-4.3479,-4.3479,-4.3479,-4.3479,-4.3479,-4.3479,-4.3479,-4.3479,-4.3479,-4.3479,-4.3479,-4.3479,-4.3479,-4.3479,-4.3479,-4.3479,-4.3479,-4.3479,-4.3479,-4.3479,-4.3479,-4.3479,-4.3479,-4.3479,-4.3479,-4.3479,-4.3479,-4.3479,-4.3479,-4.3479,-4.3479,-4.3479,-4.3479,-4.3479,-4.3479,-4.3479,-4.3479,-4.3479,-4.3479,-4.3479,-4.3529,-4.4136,-4.4428,-4.4243,-4.4568,-4.4947,-4.5203,-4.5457,-4.5586,-4.5586,-4.543,-4.5218,-4.5064,-4.5199,-4.497,-4.4778,-4.497,-4.5086,-4.3479,-4.3479,-4.3479,-4.3479,-4.3479,-4.3479,-4.3479,-4.3479,-4.3479,-4.3479,-4.3479,-4.3479,-4.3479,-4.3479,-4.3479,-4.3479,-4.3479,-4.3479,-4.3479,-4.3479,-4.3479,-4.3479,-4.3479,-4.3479,-4.3479,-4.3479,-4.3479,-4.3479,-4.3479,-4.3479,-4.3479,-4.3479,-4.3479,-4.3479,-4.3479,-4.3479,-4.3479,-4.3479,-4.3479,-4.3479,-4.3479,-4.3479,-4.3479,-4.3479,-4.3479,-4.3479,-4.3479,-4.3479,-4.3479,-4.3479,-4.3479,-4.3479,-4.3479,-4.3479,-4.3479,-4.3479,-4.3479,-4.3479,-4.3479,-4.3479,-4.3479,-4.3479,-4.3479,-4.3479,-4.3479,-4.3479,-4.3479,-4.3479,-4.3479,-4.3479,-4.3479,-4.3479,-4.3479,-4.3479,-4.3479,-4.3479,-4.3479,-4.3479,-4.3479,-4.3479,-4.3479,-4.3479,-4.3479,-4.3479,-4.3479,-4.3479,-4.3479,-4.3479,-4.3479,-4.3479,-4.3479,-4.3479,-4.3479,-4.3479,-4.3479,-4.3479,-4.3479,-4.3563,-4.4076,-4.4447,-4.4233,-4.4516,-4.4992,-4.5303,-4.5513,-4.5586,-4.5586,-4.5566,-4.5411,-4.518,-4.4836,-4.4605,-4.447,-4.4624,-4.4643,-4.3479,-4.3479,-4.3479,-4.3479,-4.3479,-4.3479,-4.3479,-4.3479,-4.3479,-4.3479,-4.3479,-4.3479,-4.3479,-4.3479,-4.3479,-4.3479,-4.3479,-4.3479,-4.3479,-4.3479,-4.3479,-4.3479,-4.3479,-4.3479,-4.3479,-4.3479,-4.3479,-4.3479,-4.3479,-4.3479,-4.3479,-4.3479,-4.3479,-4.3479,-4.3479,-4.3479,-4.3479,-4.3479,-4.3479,-4.3479,-4.3479,-4.3479,-4.3479,-4.3479,-4.3479,-4.3479,-4.3479,-4.3479,-4.3479,-4.3479,-4.3479,-4.3479,-4.3479,-4.3479,-4.3479,-4.3479,-4.3479,-4.3479,-4.3479,-4.3479,-4.3479,-4.3479,-4.3479,-4.3479,-4.3479,-4.3479,-4.3479,-4.3479,-4.3479,-4.3479,-4.3479,-4.3479,-4.3479,-4.3479,-4.3479,-4.3479,-4.3479,-4.3479,-4.3479,-4.3479,-4.3479,-4.3479,-4.3479,-4.3479,-4.3479,-4.3479,-4.3479,-4.3479,-4.3479,-4.3479,-4.3479,-4.3479,-4.3479,-4.3479,-4.3479,-4.3479,-4.3479,-4.3612,-4.3912,-4.4106,-4.4028,-4.4568,-4.5222,-4.5342,-4.5381,-4.5586,-4.5586,-4.5566,-4.522,-4.4432,-4.4008,-4.4047,-4.3951,-4.3662,-4.3701,-4.3479,-4.3479,-4.3479,-4.3479,-4.3479,-4.3479,-4.3479,-4.3479,-4.3479,-4.3479,-4.3479,-4.3479,-4.3479,-4.3479,-4.3479,-4.3479,-4.3479,-4.3479,-4.3479,-4.3479,-4.3479,-4.3479,-4.3479,-4.3479,-4.3479,-4.3479,-4.3479,-4.3479,-4.3479,-4.3479,-4.3479,-4.3479,-4.3479,-4.3479,-4.3479,-4.3479,-4.3479,-4.3479,-4.3479,-4.3479,-4.3479,-4.3479,-4.3479,-4.3479,-4.3479,-4.3479,-4.3479,-4.3479,-4.3479,-4.3479,-4.3479,-4.3479,-4.3479,-4.3479,-4.3479,-4.3479,-4.3479,-4.3479,-4.3479,-4.3479,-4.3479,-4.3479,-4.3479,-4.3479,-4.3479,-4.3479,-4.3479,-4.3479,-4.3479,-4.3479,-4.3479,-4.3479,-4.3479,-4.3479,-4.3479,-4.3479,-4.3479,-4.3479,-4.3479,-4.3479,-4.3479,-4.3479,-4.3479,-4.3479,-4.3479,-4.3479,-4.3479,-4.3479,-4.3479,-4.3479,-4.3479,-4.3479,-4.3479,-4.3479,-4.3479,-4.3479,-4.3479,-4.3597,-4.3804,-4.3849,-4.3955,-4.4594,-4.5096,-4.5096,-4.5161,-4.54,-4.5586,-4.5586,-4.4951,-4.3758,-4.3374,-4.3585,-4.3239,-4.2662,-4.2835,-4.3479,-4.3479,-4.3479,-4.3479,-4.3479,-4.3479,-4.3479,-4.3479,-4.3479,-4.3479,-4.3479,-4.3479,-4.3479,-4.3479,-4.3479,-4.3479,-4.3479,-4.3479,-4.3479,-4.3479,-4.3479,-4.3479,-4.3479,-4.3479,-4.3479,-4.3479,-4.3479,-4.3479,-4.3479,-4.3479,-4.3479,-4.3479,-4.3479,-4.3479,-4.3479,-4.3479,-4.3479,-4.3479,-4.3479,-4.3479,-4.3479,-4.3479,-4.3479,-4.3479,-4.3479,-4.3479,-4.3479,-4.3479,-4.3479,-4.3479,-4.3479,-4.3479,-4.3479,-4.3479,-4.3479,-4.3479,-4.3479,-4.3479,-4.3479,-4.3479,-4.3479,-4.3479,-4.3479,-4.3479,-4.3479,-4.3479,-4.3479,-4.3479,-4.3479,-4.3479,-4.3479,-4.3479,-4.3479,-4.3479,-4.3479,-4.3479,-4.3479,-4.3479,-4.3479,-4.3479,-4.3479,-4.3479,-4.3479,-4.3479,-4.3479,-4.3479,-4.3479,-4.3479,-4.3479,-4.3479,-4.3479,-4.3479,-4.3479,-4.3479,-4.3479,-4.3479,-4.3479,-4.3563,-4.3693,-4.3726,-4.3986,-4.4587,-4.49,-4.483,-4.5036,-4.5419,-4.553,-4.553,-4.4836,-4.3761,-4.347,-4.3239,-4.2569,-4.2011,-4.2203,-4.3479,-4.3479,-4.3479,-4.3479,-4.3479,-4.3479,-4.3479,-4.3479,-4.3479,-4.3479,-4.3479,-4.3479,-4.3479,-4.3479,-4.3479,-4.3479,-4.3479,-4.3479,-4.3479,-4.3479,-4.3479,-4.3479,-4.3479,-4.3479,-4.3479,-4.3479,-4.3479,-4.3479,-4.3479,-4.3479,-4.3479,-4.3479,-4.3479,-4.3479,-4.3479,-4.3479,-4.3479,-4.3479,-4.3479,-4.3479,-4.3479,-4.3479,-4.3479,-4.3479,-4.3479,-4.3479,-4.3479,-4.3479,-4.3479,-4.3479,-4.3479,-4.3479,-4.3479,-4.3479,-4.3479,-4.3479,-4.3479,-4.3479,-4.3479,-4.3479,-4.3479,-4.3479,-4.3479,-4.3479,-4.3479,-4.3479,-4.3479,-4.3479,-4.3479,-4.3479,-4.3479,-4.3479,-4.3479,-4.3479,-4.3479,-4.3479,-4.3479,-4.3479,-4.3479,-4.3479,-4.3479,-4.3479,-4.3479,-4.3479,-4.3479,-4.3479,-4.3479,-4.3479,-4.3479,-4.3479,-4.3479,-4.3479,-4.3479,-4.3479,-4.3479,-4.3479,-4.3479,-4.3529,-4.3597,-4.3612,-4.3836,-4.4373,-4.4508,-4.4409,-4.4815,-4.5225,-4.5323,-4.5246,-4.4496,-4.3801,-4.3361,-4.2825,-4.194,-4.1478,-4.1543,-4.3479,-4.3479,-4.3479,-4.3479,-4.3479,-4.3479,-4.3479,-4.3479,-4.3479,-4.3479,-4.3479,-4.3479,-4.3479,-4.3479,-4.3479,-4.3479,-4.3479,-4.3479,-4.3479,-4.3479,-4.3479,-4.3479,-4.3479,-4.3479,-4.3479,-4.3479,-4.3479,-4.3479,-4.3479,-4.3479,-4.3479,-4.3479,-4.3479,-4.3479,-4.3479,-4.3479,-4.3479,-4.3479,-4.3479,-4.3479,-4.3479,-4.3479,-4.3479,-4.3479,-4.3479,-4.3479,-4.3479,-4.3479,-4.3479,-4.3479,-4.3479,-4.3479,-4.3479,-4.3479,-4.3479,-4.3479,-4.3479,-4.3479,-4.3479,-4.3479,-4.3479,-4.3479,-4.3479,-4.3479,-4.3479,-4.3479,-4.3479,-4.3479,-4.3479,-4.3479,-4.3479,-4.3479,-4.3479,-4.3479,-4.3479,-4.3479,-4.3479,-4.3479,-4.3479,-4.3479,-4.3479,-4.3479,-4.3479,-4.3479,-4.3479,-4.3479,-4.3479,-4.3479,-4.3479,-4.3479,-4.3479,-4.3479,-4.3479,-4.3479,-4.3479,-4.3479,-4.3479,-4.3513,-4.3548,-4.3529,-4.3758,-4.4046,-4.4106,-4.4175,-4.4382,-4.4749,-4.4884,-4.4841,-4.413,-4.3519,-4.3063,-4.2259,-4.1132,-4.0559,-4.0519,-4.3479,-4.3479,-4.3479,-4.3479,-4.3479,-4.3479,-4.3479,-4.3479,-4.3479,-4.3479,-4.3479,-4.3479,-4.3479,-4.3479,-4.3479,-4.3479,-4.3479,-4.3479,-4.3479,-4.3479,-4.3479,-4.3479,-4.3479,-4.3479,-4.3479,-4.3479,-4.3479,-4.3479,-4.3479,-4.3479,-4.3479,-4.3479,-4.3479,-4.3479,-4.3479,-4.3479,-4.3479,-4.3479,-4.3479,-4.3479,-4.3479,-4.3479,-4.3479,-4.3479,-4.3479,-4.3479,-4.3479,-4.3479,-4.3479,-4.3479,-4.3479,-4.3479,-4.3479,-4.3479,-4.3479,-4.3479,-4.3479,-4.3479,-4.3479,-4.3479,-4.3479,-4.3479,-4.3479,-4.3479,-4.3479,-4.3479,-4.3479,-4.3479,-4.3479,-4.3479,-4.3479,-4.3479,-4.3479,-4.3479,-4.3479,-4.3479,-4.3479,-4.3479,-4.3479,-4.3479,-4.3479,-4.3479,-4.3479,-4.3479,-4.3479,-4.3479,-4.3479,-4.3479,-4.3479,-4.3479,-4.3479,-4.3479,-4.3479,-4.3479,-4.3479,-4.3479,-4.3479,-4.3479,-4.3479,-4.3479,-4.3679,-4.3868,-4.3974,-4.4076,-4.4233,-4.4318,-4.4414,-4.4222,-4.368,-4.3071,-4.2382,-4.1317,-4.0068,-3.9762,-3.969,-4.3479,-4.3479,-4.3479,-4.3479,-4.3479,-4.3479,-4.3479,-4.3479,-4.3479,-4.3479,-4.3479,-4.3479,-4.3479,-4.3479,-4.3479,-4.3479,-4.3479,-4.3479,-4.3479,-4.3479,-4.3479,-4.3479,-4.3479,-4.3479,-4.3479,-4.3479,-4.3479,-4.3479,-4.3479,-4.3479,-4.3479,-4.3479,-4.3479,-4.3479,-4.3479,-4.3479,-4.3479,-4.3479,-4.3479,-4.3479,-4.3479,-4.3479,-4.3479,-4.3479,-4.3479,-4.3479,-4.3479,-4.3479,-4.3479,-4.3479,-4.3479,-4.3479,-4.3479,-4.3479,-4.3479,-4.3479,-4.3479,-4.3479,-4.3479,-4.3479,-4.3479,-4.3479,-4.3479,-4.3479,-4.3479,-4.3479,-4.3479,-4.3479,-4.3479,-4.3479,-4.3479,-4.3479,-4.3479,-4.3479,-4.3479,-4.3479,-4.3479,-4.3479,-4.3479,-4.3479,-4.3479,-4.3479,-4.3479,-4.3479,-4.3479,-4.3479,-4.3479,-4.3479,-4.3479,-4.3479,-4.3479,-4.3479,-4.3479,-4.3479,-4.3479,-4.3479,-4.3479,-4.3479,-4.3479,-4.3513,-4.3563,-4.3693,-4.3804,-4.3881,-4.3974,-4.4016,-4.4028,-4.3669,-4.3166,-4.2433,-4.1635,-4.0685,-3.9789,-3.9414,-3.9333,-4.3296,-4.3479,-4.3479,-4.3479,-4.3479,-4.3479,-4.3479,-4.3479,-4.3479,-4.3479,-4.3479,-4.3479,-4.3479,-4.3479,-4.3479,-4.3479,-4.3479,-4.3479,-4.3479,-4.3479,-4.3479,-4.3479,-4.3479,-4.3479,-4.3479,-4.3479,-4.3479,-4.3479,-4.3479,-4.3479,-4.3479,-4.3479,-4.3479,-4.3479,-4.3479,-4.3479,-4.3479,-4.3479,-4.3479,-4.3479,-4.3479,-4.3479,-4.3479,-4.3479,-4.3479,-4.3479,-4.3479,-4.3479,-4.3479,-4.3479,-4.3479,-4.3479,-4.3479,-4.3479,-4.3479,-4.3479,-4.3479,-4.3479,-4.3479,-4.3479,-4.3479,-4.3479,-4.3479,-4.3479,-4.3479,-4.3479,-4.3479,-4.3479,-4.3479,-4.3479,-4.3479,-4.3479,-4.3479,-4.3479,-4.3479,-4.3479,-4.3479,-4.3479,-4.3479,-4.3479,-4.3479,-4.3479,-4.3479,-4.3479,-4.3479,-4.3479,-4.3479,-4.3479,-4.3479,-4.3479,-4.3479,-4.3479,-4.3479,-4.3479,-4.3479,-4.3479,-4.3479,-4.3479,-4.3479,-4.3513,-4.3529,-4.3597,-4.3712,-4.3758,-4.3772,-4.3758,-4.374,-4.323,-4.2681,-4.1954,-4.1222,-4.0475,-3.9765,-3.9341,-3.9064,-4.2818,-4.3479,-4.3479,-4.3479,-4.3479,-4.3479,-4.3479,-4.3479,-4.3479,-4.3479,-4.3479,-4.3479,-4.3479,-4.3479,-4.3479,-4.3479,-4.3479,-4.3479,-4.3479,-4.3479,-4.3479,-4.3479,-4.3479,-4.3479,-4.3479,-4.3479,-4.3479,-4.3479,-4.3479,-4.3479,-4.3479,-4.3479,-4.3479,-4.3479,-4.3479,-4.3479,-4.3479,-4.3479,-4.3479,-4.3479,-4.3479,-4.3479,-4.3479,-4.3479,-4.3479,-4.3479,-4.3479,-4.3479,-4.3479,-4.3479,-4.3479,-4.3479,-4.3479,-4.3479,-4.3479,-4.3479,-4.3479,-4.3479,-4.3479,-4.3479,-4.3479,-4.3479,-4.3479,-4.3479,-4.3479,-4.3479,-4.3479,-4.3479,-4.3479,-4.3479,-4.3479,-4.3479,-4.3479,-4.3479,-4.3479,-4.3479,-4.3479,-4.3479,-4.3479,-4.3479,-4.3479,-4.3479,-4.3479,-4.3479,-4.3479,-4.3479,-4.3479,-4.3479,-4.3479,-4.3479,-4.3479,-4.3479,-4.3479,-4.3479,-4.3479,-4.3479,-4.3479,-4.3479,-4.3479,-4.3479,-4.3513,-4.3563,-4.3597,-4.3597,-4.3612,-4.3548,-4.3513,-4.3281,-4.2756,-4.1686,-4.0824,-4.0222,-3.974,-3.9346,-3.911,-4.3204,-4.3479,-4.3479,-4.3479,-4.3479,-4.3479,-4.3479,-4.3479,-4.3479,-4.3479,-4.3479,-4.3479,-4.3479,-4.3479,-4.3479,-4.3479,-4.3479,-4.3479,-4.3479,-4.3479,-4.3479,-4.3479,-4.3479,-4.3479,-4.3479,-4.3479,-4.3479,-4.3479,-4.3479,-4.3479,-4.3479,-4.3479,-4.3479,-4.3479,-4.3479,-4.3479,-4.3479,-4.3479,-4.3479,-4.3479,-4.3479,-4.3479,-4.3479,-4.3479,-4.3479,-4.3479,-4.3479,-4.3479,-4.3479,-4.3479,-4.3479,-4.3479,-4.3479,-4.3479,-4.3479,-4.3479,-4.3479,-4.3479,-4.3479,-4.3479,-4.3479,-4.3479,-4.3479,-4.3479,-4.3479,-4.3479,-4.3479,-4.3479,-4.3479,-4.3479,-4.3479,-4.3479,-4.3479,-4.3479,-4.3479,-4.3479,-4.3479,-4.3479,-4.3479,-4.3479,-4.3479,-4.3479,-4.3479,-4.3479,-4.3479,-4.3479,-4.3479,-4.3479,-4.3479,-4.3479,-4.3479,-4.3479,-4.3479,-4.3479,-4.3479,-4.3479,-4.3479,-4.3479,-4.3479,-4.3479,-4.3479,-4.3479,-4.3513,-4.3479,-4.3479,-4.3479,-4.3479,-4.3479,-4.2944,-4.2004,-4.1011,-4.0123,-3.9693,-3.946,-3.9368,-4.3277,-4.3442,-4.324,-4.3277,-4.3461,-4.3479,-4.3479,-4.3479,-4.3479,-4.3479,-4.3479,-4.3479,-4.3479,-4.3479,-4.3479,-4.3479,-4.3479,-4.3479,-4.3479,-4.3479,-4.3479,-4.3479,-4.3479,-4.3479,-4.3479,-4.3479,-4.3479,-4.3479,-4.3479,-4.3479,-4.3479,-4.3479,-4.3479,-4.3479,-4.3479,-4.3479,-4.3479,-4.3479,-4.3479,-4.3479,-4.3479,-4.3479,-4.3479,-4.3479,-4.3479,-4.3479,-4.3479,-4.3479,-4.3479,-4.3479,-4.3479,-4.3479,-4.3479,-4.3479,-4.3479,-4.3479,-4.3479,-4.3479,-4.3479,-4.3479,-4.3479,-4.3479,-4.3479,-4.3479,-4.3479,-4.3479,-4.3479,-4.3479,-4.3479,-4.3479,-4.3479,-4.3479,-4.3479,-4.3479,-4.3479,-4.3479,-4.3479,-4.3479,-4.3479,-4.3479,-4.3479,-4.3479,-4.3479,-4.3479,-4.3479,-4.3479,-4.3479,-4.3479,-4.3479,-4.3479,-4.3479,-4.3479,-4.3479,-4.3479,-4.3479,-4.3479,-4.3479,-4.3479,-4.3479,-4.3479,-4.3479,-4.3479,-4.3479,-4.3479,-4.3479,-4.3479,-4.3479,-4.3479,-4.3041,-4.2404,-4.1449,-4.0561,-4.0396,-4.023,-3.9992,-4.2818,-4.3351,-4.269,-4.2837,-4.3461,-4.3479,-4.3479,-4.3479,-4.3479,-4.3479,-4.3479,-4.3479,-4.3479,-4.3479,-4.3479,-4.3479,-4.3479,-4.3479,-4.3479,-4.3479,-4.3479,-4.3479,-4.3479,-4.3479,-4.3479,-4.3479,-4.3479,-4.3479,-4.3479,-4.3479,-4.3479,-4.3479,-4.3479,-4.3479,-4.3479,-4.3479,-4.3479,-4.3479,-4.3479,-4.3479,-4.3479,-4.3479,-4.3479,-4.3479,-4.3479,-4.3479,-4.3479,-4.3479,-4.3479,-4.3479,-4.3479,-4.3479,-4.3479,-4.3479,-4.3479,-4.3479,-4.3479,-4.3479,-4.3479,-4.3479,-4.3479,-4.3479,-4.3479,-4.3479,-4.3479,-4.3479,-4.3479,-4.3479,-4.3479,-4.3479,-4.3479,-4.3479,-4.3479,-4.3479,-4.3479,-4.3479,-4.3479,-4.3479,-4.3479,-4.3479,-4.3479,-4.3479,-4.3479,-4.3479,-4.3479,-4.3479,-4.3479,-4.3479,-4.3479,-4.3479,-4.3479,-4.3479,-4.3479,-4.3479,-4.3479,-4.3479,-4.3479,-4.3479,-4.3479,-4.3479,-4.3479,-4.3479,-4.3479,-4.3479,-4.3479,-4.3479,-4.3479,-4.3479,-4.3096,-4.2713,-4.2032,-4.1332,-4.1185,-4.1001,-4.0763,-4.324,-4.3461,-4.3204,-4.324,-4.3461,-4.3479,-4.3479,-4.3479,-4.3479,-4.3479,-4.3479,-4.3479,-4.3479,-4.3479,-4.3479,-4.3479,-4.3479,-4.3479,-4.3479,-4.3479,-4.3479,-4.3479,-4.3479,-4.3479,-4.3479,-4.3479,-4.3479,-4.3479,-4.3479,-4.3479,-4.3479,-4.3479,-4.3479,-4.3479,-4.3479,-4.3479,-4.3479,-4.3479,-4.3479,-4.3479,-4.3479,-4.3479,-4.3479,-4.3479,-4.3479,-4.3479,-4.3479,-4.3479,-4.3479,-4.3479,-4.3479,-4.3479,-4.3479,-4.3479,-4.3479,-4.3479,-4.3479,-4.3479,-4.3479,-4.3479,-4.3479,-4.3479,-4.3479,-4.3479,-4.3479,-4.3479,-4.3479,-4.3479,-4.3479,-4.3479,-4.3479,-4.3479,-4.3479,-4.3479,-4.3479,-4.3479,-4.3479,-4.3479,-4.3479,-4.3479,-4.3479,-4.3479,-4.3479,-4.3479,-4.3479,-4.3479,-4.3479,-4.3479,-4.3479,-4.3479,-4.3479,-4.3479,-4.3479,-4.3479,-4.3479,-4.3479,-4.3479,-4.3479,-4.3479,-4.3479,-4.3479,-4.3479,-4.3479,-4.3479,-4.3479,-4.3479,-4.3479,-4.3479,-4.3406,-4.3057,-4.2506,-4.2139,-4.1956,-4.1772,-4.1552,-4.3479,-4.3479,-4.3479,-4.3479,-4.3479,-4.3479,-4.3479,-4.3479,-4.3479,-4.3479,-4.3479,-4.3479,-4.3479,-4.3479,-4.3479,-4.3479,-4.3479,-4.3479,-4.3479,-4.3479,-4.3479,-4.3479,-4.3479,-4.3479,-4.3479,-4.3479,-4.3479,-4.3479,-4.3479,-4.3479,-4.3479,-4.3479,-4.3479,-4.3479,-4.3479,-4.3479,-4.3479,-4.3479,-4.3479,-4.3479,-4.3479,-4.3479,-4.3479,-4.3479,-4.3479,-4.3479,-4.3479,-4.3479,-4.3479,-4.3479,-4.3479,-4.3479,-4.3479,-4.3479,-4.3479,-4.3479,-4.3479,-4.3479,-4.3479,-4.3479,-4.3479,-4.3479,-4.3479,-4.3479,-4.3479,-4.3479,-4.3479,-4.3479,-4.3479,-4.3479,-4.3479,-4.3479,-4.3479,-4.3479,-4.3479,-4.3479,-4.3479,-4.3479,-4.3479,-4.3479,-4.3479,-4.3479,-4.3479,-4.3479,-4.3479,-4.3479,-4.3479,-4.3479,-4.3479,-4.3479,-4.3479,-4.3479,-4.3479,-4.3479,-4.3479,-4.3479,-4.3479,-4.3479,-4.3479,-4.3479,-4.3479,-4.3479,-4.3479,-4.3479,-4.3479,-4.3479,-4.3479,-4.3461,-4.3424,-4.3424,-4.3277,-4.2965,-4.2745,-4.2525,-4.2286,-4.3479,-4.3479,-4.3479,-4.3479,-4.3479,-4.3479,-4.3479,-4.3479,-4.3479,-4.3479,-4.3479,-4.3479,-4.3479,-4.3479,-4.3479,-4.3479,-4.3479,-4.3479,-4.3479,-4.3479,-4.3479,-4.3479,-4.3479,-4.3479,-4.3479,-4.3479,-4.3479,-4.3479,-4.3479,-4.3479,-4.3479,-4.3479,-4.3479,-4.3479,-4.3479,-4.3479,-4.3479,-4.3479,-4.3479,-4.3479,-4.3479,-4.3479,-4.3479,-4.3479,-4.3479,-4.3479,-4.3479,-4.3479,-4.3479,-4.3479,-4.3479,-4.3479,-4.3479,-4.3479,-4.3479,-4.3479,-4.3479,-4.3479,-4.3479,-4.3479,-4.3479,-4.3479,-4.3479,-4.3479,-4.3479,-4.3479,-4.3479,-4.3479,-4.3479,-4.3479,-4.3479,-4.3479,-4.3479,-4.3479,-4.3479,-4.3479,-4.3479,-4.3479,-4.3479,-4.3479,-4.3479,-4.3479,-4.3479,-4.3479,-4.3479,-4.3479,-4.3479,-4.3479,-4.3479,-4.3479,-4.3479,-4.3479,-4.3479,-4.3479,-4.3479,-4.3479,-4.3479,-4.3479,-4.3479,-4.3479,-4.3479,-4.3479,-4.3479,-4.3479,-4.3479,-4.3479,-4.3479,-4.3479,-4.3479,-4.3479,-4.3479,-4.3406,-4.3075,-4.3149,-4.2873,-4.3479,-4.3479,-4.3479,-4.3479,-4.3479,-4.3479,-4.3479,-4.3479,-4.3479,-4.3479,-4.3479,-4.3479,-4.3479,-4.3479,-4.3479,-4.3479,-4.3479,-4.3479,-4.3479,-4.3479,-4.3479,-4.3479,-4.3479,-4.3479,-4.3479,-4.3479,-4.3479,-4.3479,-4.3479,-4.3479,-4.3479,-4.3479,-4.3479,-4.3479,-4.3479,-4.3479,-4.3479,-4.3479,-4.3479,-4.3479,-4.3479,-4.3479,-4.3479,-4.3479,-4.3479,-4.3479,-4.3479,-4.3479,-4.3479,-4.3479,-4.3479,-4.3479,-4.3479,-4.3479,-4.3479,-4.3479,-4.3479,-4.3479,-4.3479,-4.3479,-4.3479,-4.3479,-4.3479,-4.3479,-4.3479,-4.3479,-4.3479,-4.3479,-4.3479,-4.3479,-4.3479,-4.3479,-4.3479,-4.3479,-4.3516,-4.3552,-4.3589,-4.3718,-4.3718,-4.3699,-4.3699,-4.3605,-4.3552,-4.3479,-4.3479,-4.3479,-4.3479,-4.3479,-4.3479,-4.3479,-4.3479,-4.3479,-4.3479,-4.3479,-4.3479,-4.3479,-4.3479,-4.3479,-4.3479,-4.3479,-4.3479,-4.3479,-4.3479,-4.3479,-4.3479,-4.3479,-4.3479,-4.3479,-4.3479,-4.3479,-4.3479,-4.3479,-4.3479,-4.3442,-4.3094,-4.3188,-4.3479,-4.3479,-4.3479,-4.3479,-4.3479,-4.3479,-4.3479,-4.3479,-4.3479,-4.3479,-4.3479,-4.3479,-4.3479,-4.3479,-4.3479,-4.3479,-4.3479,-4.3479,-4.3479,-4.3479,-4.3479,-4.3479,-4.3479,-4.3479,-4.3479,-4.3479,-4.3479,-4.3479,-4.3479,-4.3479,-4.3479,-4.3479,-4.3479,-4.3479,-4.3479,-4.3479,-4.3479,-4.3479,-4.3479,-4.3479,-4.3479,-4.3479,-4.3479,-4.3479,-4.3479,-4.3479,-4.3479,-4.3479,-4.3479,-4.3479,-4.3479,-4.3479,-4.3479,-4.3479,-4.3479,-4.3479,-4.3479,-4.3479,-4.3479,-4.3479,-4.3479,-4.3479,-4.3479,-4.3479,-4.3479,-4.3479,-4.3479,-4.3479,-4.3479,-4.3479,-4.3479,-4.3479,-4.3479,-4.3571,-4.3644,-4.3809,-4.3993,-4.4011,-4.3993,-4.3936,-4.3789,-4.3697,-4.3552,-4.3479,-4.3479,-4.3479,-4.3479,-4.3479,-4.3479,-4.3479,-4.3479,-4.3479,-4.3479,-4.3479,-4.3479,-4.3479,-4.3479,-4.3479,-4.3479,-4.3479,-4.3479,-4.3479,-4.3479,-4.3479,-4.3479,-4.3479,-4.3479,-4.3479,-4.3479,-4.3479,-4.3479,-4.3479,-4.3479,-4.2928,-4.2677,-4.3387,-4.3479,-4.3479,-4.3479,-4.3479,-4.3479,-4.3479,-4.3479,-4.3479,-4.3479,-4.3479,-4.3479,-4.3479,-4.3479,-4.3479,-4.3479,-4.3479,-4.3479,-4.3479,-4.3479,-4.3479,-4.3479,-4.3479,-4.3479,-4.3479,-4.3479,-4.3479,-4.3479,-4.3479,-4.3479,-4.3479,-4.3479,-4.3479,-4.3479,-4.3479,-4.3479,-4.3479,-4.3479,-4.3479,-4.3479,-4.3479,-4.3479,-4.3479,-4.3479,-4.3479,-4.3479,-4.3479,-4.3479,-4.3479,-4.3479,-4.3479,-4.3479,-4.3479,-4.3479,-4.3479,-4.3479,-4.3479,-4.3479,-4.3479,-4.3479,-4.3479,-4.3479,-4.3479,-4.3479,-4.3479,-4.3479,-4.3479,-4.3479,-4.3479,-4.3479,-4.3534,-4.3552,-4.3754,-4.3956,-4.4268,-4.4672,-4.4727,-4.4635,-4.4562,-4.4356,-4.4154,-4.3624,-4.3479,-4.3479,-4.3479,-4.3479,-4.3479,-4.3479,-4.3479,-4.3479,-4.3479,-4.3479,-4.3479,-4.3479,-4.3479,-4.3479,-4.3479,-4.3479,-4.3479,-4.3479,-4.3479,-4.3479,-4.3479,-4.3479,-4.3479,-4.3479,-4.3479,-4.3479,-4.3479,-4.3479,-4.3479,-4.3479,-4.3479,-4.3002,-4.1849,-4.2653,-4.324,-4.3479,-4.3479,-4.3479,-4.3479,-4.3479,-4.3479,-4.3479,-4.3479,-4.3479,-4.3479,-4.3479,-4.3479,-4.3479,-4.3479,-4.3479,-4.3479,-4.3479,-4.3479,-4.3479,-4.3479,-4.3479,-4.3479,-4.3479,-4.3479,-4.3479,-4.3479,-4.3479,-4.3479,-4.3479,-4.3479,-4.3479,-4.3479,-4.3479,-4.3479,-4.3479,-4.3479,-4.3479,-4.3479,-4.3479,-4.3479,-4.3479,-4.3479,-4.3479,-4.3479,-4.3479,-4.3479,-4.3479,-4.3479,-4.3479,-4.3479,-4.3479,-4.3479,-4.3479,-4.3479,-4.3479,-4.3479,-4.3479,-4.3479,-4.3479,-4.3479,-4.3479,-4.3479,-4.3479,-4.3479,-4.3479,-4.3479,-4.3479,-4.3497,-4.3552,-4.3644,-4.3975,-4.4305,-4.4837,-4.5406,-4.5406,-4.5296,-4.5001,-4.4777,-4.4283,-4.3734,-4.3479,-4.3479,-4.3479,-4.3479,-4.3479,-4.3479,-4.3479,-4.3479,-4.3479,-4.3479,-4.3479,-4.3479,-4.3479,-4.3479,-4.3479,-4.3479,-4.3479,-4.3479,-4.3479,-4.3479,-4.3479,-4.3479,-4.3479,-4.3479,-4.3479,-4.3479,-4.3479,-4.3479,-4.3479,-4.3479,-4.3479,-4.3002,-4.1052,-4.1827,-4.2616,-4.3167,-4.3461,-4.3479,-4.3479,-4.3479,-4.3479,-4.3479,-4.3479,-4.3479,-4.3479,-4.3479,-4.3479,-4.3479,-4.3479,-4.3479,-4.3479,-4.3479,-4.3479,-4.3479,-4.3479,-4.3479,-4.3479,-4.3479,-4.3479,-4.3479,-4.3479,-4.3479,-4.3479,-4.3479,-4.3479,-4.3479,-4.3479,-4.3479,-4.3479,-4.3479,-4.3479,-4.3479,-4.3479,-4.3479,-4.3479,-4.3479,-4.3479,-4.3479,-4.3479,-4.3479,-4.3479,-4.3479,-4.3479,-4.3479,-4.3479,-4.3479,-4.3479,-4.3479,-4.3479,-4.3479,-4.3479,-4.3479,-4.3479,-4.3479,-4.3479,-4.3479,-4.3479,-4.3479,-4.3479,-4.3479,-4.3479,-4.3479,-4.3479,-4.3516,-4.3552,-4.3773,-4.3938,-4.4268,-4.5168,-4.5828,-4.5407,-4.4837,-4.4614,-4.4336,-4.3807,-4.3479,-4.3479,-4.3479,-4.3479,-4.3479,-4.3479,-4.3479,-4.3479,-4.3479,-4.3479,-4.3479,-4.3479,-4.3479,-4.3479,-4.3479,-4.3479,-4.3479,-4.3479,-4.3479,-4.3479,-4.3479,-4.3479,-4.3479,-4.3479,-4.3479,-4.3479,-4.3479,-4.3479,-4.3479,-4.3479,-4.3479,-4.3204,-4.0276,-4.1148,-4.1992,-4.2763,-4.3424,-4.3479,-4.3479,-4.3479,-4.3479,-4.3479,-4.3479,-4.3479,-4.3479,-4.3479,-4.3479,-4.3479,-4.3479,-4.3479,-4.3479,-4.3479,-4.3479,-4.3479,-4.3479,-4.3479,-4.3479,-4.3479,-4.3479,-4.3479,-4.3479,-4.3479,-4.3479,-4.3479,-4.3479,-4.3479,-4.3479,-4.3479,-4.3479,-4.3479,-4.3479,-4.3479,-4.3479,-4.3479,-4.3479,-4.3479,-4.3479,-4.3479,-4.3479,-4.3479,-4.3479,-4.3479,-4.3479,-4.3479,-4.3479,-4.3479,-4.3479,-4.3479,-4.3479,-4.3479,-4.3479,-4.3479,-4.3479,-4.3479,-4.3479,-4.3479,-4.3479,-4.3479,-4.3479,-4.3479,-4.3479,-4.3479,-4.3479,-4.3497,-4.3516,-4.3773,-4.3901,-4.4048,-4.5113,-4.6012,-4.5443,-4.48,-4.4487,-4.4246,-4.3897,-4.3534,-4.3479,-4.3479,-4.3479,-4.3479,-4.3479,-4.3479,-4.3479,-4.3479,-4.3479,-4.3479,-4.3479,-4.3479,-4.3479,-4.3479,-4.3479,-4.3479,-4.3479,-4.3479,-4.3479,-4.3479,-4.3479,-4.3479,-4.3479,-4.3479,-4.3479,-4.3479,-4.3479,-4.3479,-4.3479,-4.3479,-4.3479,-3.9772,-4.1185,-4.1974,-4.2745,-4.3406,-4.3461,-4.3479,-4.3479,-4.3479,-4.3479,-4.3479,-4.3479,-4.3479,-4.3479,-4.3479,-4.3479,-4.3479,-4.3479,-4.3479,-4.3479,-4.3479,-4.3479,-4.3479,-4.3479,-4.3479,-4.3479,-4.3479,-4.3479,-4.3479,-4.3479,-4.3479,-4.3479,-4.3479,-4.3479,-4.3479,-4.3479,-4.3479,-4.3479,-4.3479,-4.3479,-4.3479,-4.3479,-4.3479,-4.3479,-4.3479,-4.3479,-4.3479,-4.3479,-4.3479,-4.3479,-4.3479,-4.3479,-4.3479,-4.3479,-4.3479,-4.3479,-4.3479,-4.3479,-4.3479,-4.3479,-4.3479,-4.3479,-4.3479,-4.3479,-4.3479,-4.3479,-4.3479,-4.3479,-4.3479,-4.3479,-4.3479,-4.3479,-4.3552,-4.425,-4.4617,-4.4856,-4.5516,-4.5645,-4.5388,-4.4874,-4.4504,-4.4118,-4.3679,-4.3479,-4.3479,-4.3479,-4.3479,-4.3479,-4.3479,-4.3479,-4.3479,-4.3479,-4.3479,-4.3479,-4.3479,-4.3479,-4.3479,-4.3479,-4.3479,-4.3479,-4.3479,-4.3479,-4.3479,-4.3479,-4.3479,-4.3479,-4.3479,-4.3479,-4.3479,-4.3479,-4.3479,-4.3479,-4.3479,-4.3479,-4.3479]}]]